<?xml version='1.0' encoding='UTF-8'?><gpx version="1.1" creator="JPX - https://github.com/jenetics/jpx" xmlns="http://www.topografix.com/GPX/1/1"><trk><trkseg><trkpt lat="36.79978486458073" lon="-108.1257118948527"><ele>1746.0</ele><time>2026-04-16T22:13:46Z</time></trkpt><trkpt lat="36.79972931865418" lon="-108.12576794958109"><ele>1746.0</ele><time>2026-04-16T22:13:50Z</time></trkpt><trkpt lat="36.79970677198591" lon="-108.12569160632795"><ele>1746.0</ele><time>2026-04-16T22:14:19Z</time></trkpt><trkpt lat="36.79973236956703" lon="-108.12581684658932"><ele>1746.0</ele><time>2026-04-16T22:14:24Z</time></trkpt><trkpt lat="36.799747423662616" lon="-108.12589361803127"><ele>1746.0</ele><time>2026-04-16T22:14:25Z</time></trkpt><trkpt lat="36.79976935710486" lon="-108.12598472409888"><ele>1746.0</ele><time>2026-04-16T22:14:26Z</time></trkpt><trkpt lat="36.7997756560087" lon="-108.12611968845074"><ele>1746.1666666666667</ele><time>2026-04-16T22:14:27Z</time></trkpt><trkpt lat="36.79976930229121" lon="-108.12624253787628"><ele>1746.3333333333335</ele><time>2026-04-16T22:14:28Z</time></trkpt><trkpt lat="36.799748173921444" lon="-108.12633619495706"><ele>1746.5</ele><time>2026-04-16T22:14:29Z</time></trkpt><trkpt lat="36.79970853241062" lon="-108.12640069914649"><ele>1746.6666666666667</ele><time>2026-04-16T22:14:30Z</time></trkpt><trkpt lat="36.79964673733693" lon="-108.12645309996125"><ele>1746.8333333333335</ele><time>2026-04-16T22:14:31Z</time></trkpt><trkpt lat="36.799545959857944" lon="-108.12648126596999"><ele>1747.0</ele><time>2026-04-16T22:14:32Z</time></trkpt><trkpt lat="36.79943791632639" lon="-108.12647780394637"><ele>1745.75</ele><time>2026-04-16T22:14:33Z</time></trkpt><trkpt lat="36.79932555887291" lon="-108.12648617973817"><ele>1744.5</ele><time>2026-04-16T22:14:34Z</time></trkpt><trkpt lat="36.799205775492005" lon="-108.12648031713363"><ele>1743.25</ele><time>2026-04-16T22:14:35Z</time></trkpt><trkpt lat="36.79905894575522" lon="-108.12645576423759"><ele>1742.0</ele><time>2026-04-16T22:14:36Z</time></trkpt><trkpt lat="36.798919278742325" lon="-108.12645197870245"><ele>1742.0</ele><time>2026-04-16T22:14:37Z</time></trkpt><trkpt lat="36.79876917865307" lon="-108.12645195764712"><ele>1742.0</ele><time>2026-04-16T22:14:38Z</time></trkpt><trkpt lat="36.798642373330544" lon="-108.12645570135835"><ele>1742.0</ele><time>2026-04-16T22:14:39Z</time></trkpt><trkpt lat="36.79853280602523" lon="-108.12646235703109"><ele>1742.0</ele><time>2026-04-16T22:14:40Z</time></trkpt><trkpt lat="36.79843569520919" lon="-108.12647107630765"><ele>1741.8</ele><time>2026-04-16T22:14:41Z</time></trkpt><trkpt lat="36.79834849938361" lon="-108.1264835371543"><ele>1741.6</ele><time>2026-04-16T22:14:42Z</time></trkpt><trkpt lat="36.798273237936286" lon="-108.12651613609957"><ele>1741.3999999999999</ele><time>2026-04-16T22:14:43Z</time></trkpt><trkpt lat="36.79822833901693" lon="-108.12659823430539"><ele>1741.1999999999998</ele><time>2026-04-16T22:14:44Z</time></trkpt><trkpt lat="36.79821515499137" lon="-108.12671830322093"><ele>1741.0</ele><time>2026-04-16T22:14:45Z</time></trkpt><trkpt lat="36.79821498251196" lon="-108.12685409455256"><ele>1742.75</ele><time>2026-04-16T22:14:46Z</time></trkpt><trkpt lat="36.798220837497546" lon="-108.12700328914062"><ele>1744.5</ele><time>2026-04-16T22:14:47Z</time></trkpt><trkpt lat="36.79822572293194" lon="-108.1271607391034"><ele>1746.25</ele><time>2026-04-16T22:14:48Z</time></trkpt><trkpt lat="36.79822711393628" lon="-108.12732458828044"><ele>1748.0</ele><time>2026-04-16T22:14:49Z</time></trkpt><trkpt lat="36.79823430356643" lon="-108.127498074682"><ele>1750.25</ele><time>2026-04-16T22:14:50Z</time></trkpt><trkpt lat="36.798246604011865" lon="-108.12767735111429"><ele>1752.5</ele><time>2026-04-16T22:14:51Z</time></trkpt><trkpt lat="36.798270473381486" lon="-108.12786048182109"><ele>1754.75</ele><time>2026-04-16T22:14:52Z</time></trkpt><trkpt lat="36.798305963595816" lon="-108.12804087646569"><ele>1757.0</ele><time>2026-04-16T22:14:53Z</time></trkpt><trkpt lat="36.79835668693762" lon="-108.12821606937491"><ele>1757.0</ele><time>2026-04-16T22:14:54Z</time></trkpt><trkpt lat="36.79842014802499" lon="-108.12838716303048"><ele>1757.0</ele><time>2026-04-16T22:14:55Z</time></trkpt><trkpt lat="36.79849441906021" lon="-108.12854212448224"><ele>1757.0</ele><time>2026-04-16T22:14:56Z</time></trkpt><trkpt lat="36.79857469294771" lon="-108.12867698629232"><ele>1757.0</ele><time>2026-04-16T22:14:57Z</time></trkpt><trkpt lat="36.79866952786466" lon="-108.12881240410049"><ele>1757.0</ele><time>2026-04-16T22:14:58Z</time></trkpt><trkpt lat="36.79876372852016" lon="-108.12894729520993"><ele>1757.0</ele><time>2026-04-16T22:14:59Z</time></trkpt><trkpt lat="36.798863309793006" lon="-108.12908199949635"><ele>1757.0</ele><time>2026-04-16T22:15:00Z</time></trkpt><trkpt lat="36.79897486603604" lon="-108.12920304689499"><ele>1757.0</ele><time>2026-04-16T22:15:01Z</time></trkpt><trkpt lat="36.79908515533553" lon="-108.12928798522836"><ele>1756.3333333333333</ele><time>2026-04-16T22:15:02Z</time></trkpt><trkpt lat="36.799212618679306" lon="-108.12937295840833"><ele>1755.6666666666665</ele><time>2026-04-16T22:15:03Z</time></trkpt><trkpt lat="36.79936275843261" lon="-108.12945698415044"><ele>1755.0</ele><time>2026-04-16T22:15:04Z</time></trkpt><trkpt lat="36.79951948523876" lon="-108.12952016583085"><ele>1755.0</ele><time>2026-04-16T22:15:05Z</time></trkpt><trkpt lat="36.79966953182532" lon="-108.12955268207755"><ele>1755.0</ele><time>2026-04-16T22:15:06Z</time></trkpt><trkpt lat="36.79982214768303" lon="-108.1295764375609"><ele>1755.0</ele><time>2026-04-16T22:15:07Z</time></trkpt><trkpt lat="36.799986395053985" lon="-108.12960697470835"><ele>1755.0</ele><time>2026-04-16T22:15:08Z</time></trkpt><trkpt lat="36.80013401324935" lon="-108.12964266109712"><ele>1755.0</ele><time>2026-04-16T22:15:09Z</time></trkpt><trkpt lat="36.80025406381282" lon="-108.12967949924271"><ele>1755.0</ele><time>2026-04-16T22:15:10Z</time></trkpt><trkpt lat="36.800376217724704" lon="-108.12972209842047"><ele>1755.0</ele><time>2026-04-16T22:15:11Z</time></trkpt><trkpt lat="36.800501361335435" lon="-108.12977900539008"><ele>1755.5</ele><time>2026-04-16T22:15:12Z</time></trkpt><trkpt lat="36.80062681541677" lon="-108.12985560945515"><ele>1756.0</ele><time>2026-04-16T22:15:13Z</time></trkpt><trkpt lat="36.80074426960273" lon="-108.1299520060907"><ele>1756.5</ele><time>2026-04-16T22:15:14Z</time></trkpt><trkpt lat="36.800853900315516" lon="-108.13005939463237"><ele>1757.0</ele><time>2026-04-16T22:15:15Z</time></trkpt><trkpt lat="36.80095330082868" lon="-108.13018485676974"><ele>1758.25</ele><time>2026-04-16T22:15:16Z</time></trkpt><trkpt lat="36.80104265949377" lon="-108.13032567810558"><ele>1759.5</ele><time>2026-04-16T22:15:17Z</time></trkpt><trkpt lat="36.80112170671172" lon="-108.13047780796707"><ele>1760.75</ele><time>2026-04-16T22:15:18Z</time></trkpt><trkpt lat="36.801187816510186" lon="-108.13063410306565"><ele>1762.0</ele><time>2026-04-16T22:15:19Z</time></trkpt><trkpt lat="36.80124077996583" lon="-108.13080248935115"><ele>1762.5</ele><time>2026-04-16T22:15:20Z</time></trkpt><trkpt lat="36.80127375090438" lon="-108.13097528995188"><ele>1763.0</ele><time>2026-04-16T22:15:21Z</time></trkpt><trkpt lat="36.80129134594171" lon="-108.13115171829956"><ele>1763.5</ele><time>2026-04-16T22:15:22Z</time></trkpt><trkpt lat="36.8012927998221" lon="-108.1313328677444"><ele>1764.0</ele><time>2026-04-16T22:15:23Z</time></trkpt><trkpt lat="36.80129054536889" lon="-108.13152419109572"><ele>1765.0</ele><time>2026-04-16T22:15:24Z</time></trkpt><trkpt lat="36.80129840315106" lon="-108.13174096779576"><ele>1766.0</ele><time>2026-04-16T22:15:25Z</time></trkpt><trkpt lat="36.80131907995436" lon="-108.1319882665664"><ele>1767.0</ele><time>2026-04-16T22:15:26Z</time></trkpt><trkpt lat="36.801359254517685" lon="-108.1322546389003"><ele>1768.0</ele><time>2026-04-16T22:15:27Z</time></trkpt><trkpt lat="36.80142619078413" lon="-108.13252398602873"><ele>1769.0</ele><time>2026-04-16T22:15:28Z</time></trkpt><trkpt lat="36.80151590099554" lon="-108.13276055632457"><ele>1770.0</ele><time>2026-04-16T22:15:29Z</time></trkpt><trkpt lat="36.80160956015293" lon="-108.13293558446297"><ele>1770.0</ele><time>2026-04-16T22:15:30Z</time></trkpt><trkpt lat="36.80170983535486" lon="-108.1330533480815"><ele>1770.0</ele><time>2026-04-16T22:15:31Z</time></trkpt><trkpt lat="36.80179325420884" lon="-108.13313671821724"><ele>1770.0</ele><time>2026-04-16T22:15:32Z</time></trkpt><trkpt lat="36.80186909862158" lon="-108.1331790133642"><ele>1770.0</ele><time>2026-04-16T22:15:33Z</time></trkpt><trkpt lat="36.80194734975477" lon="-108.13315717010816"><ele>1770.0</ele><time>2026-04-16T22:15:34Z</time></trkpt><trkpt lat="36.80202345582178" lon="-108.13309161880422"><ele>1771.0</ele><time>2026-04-16T22:15:35Z</time></trkpt><trkpt lat="36.80209373351281" lon="-108.13300046833457"><ele>1772.0</ele><time>2026-04-16T22:15:36Z</time></trkpt><trkpt lat="36.802172593735584" lon="-108.13290789020583"><ele>1773.0</ele><time>2026-04-16T22:15:37Z</time></trkpt><trkpt lat="36.80228971926171" lon="-108.1328491435974"><ele>1774.0</ele><time>2026-04-16T22:15:38Z</time></trkpt><trkpt lat="36.80242508404099" lon="-108.13281693911802"><ele>1774.0</ele><time>2026-04-16T22:15:39Z</time></trkpt><trkpt lat="36.802564527570794" lon="-108.13280887755656"><ele>1774.0</ele><time>2026-04-16T22:15:40Z</time></trkpt><trkpt lat="36.802708864027984" lon="-108.1328180423353"><ele>1774.0</ele><time>2026-04-16T22:15:41Z</time></trkpt><trkpt lat="36.802856879990564" lon="-108.1328267152448"><ele>1774.0</ele><time>2026-04-16T22:15:42Z</time></trkpt><trkpt lat="36.80300615788436" lon="-108.13282761358997"><ele>1774.5</ele><time>2026-04-16T22:15:43Z</time></trkpt><trkpt lat="36.80315435590615" lon="-108.13282272447096"><ele>1775.0</ele><time>2026-04-16T22:15:44Z</time></trkpt><trkpt lat="36.803288393818505" lon="-108.1328109685403"><ele>1775.5</ele><time>2026-04-16T22:15:45Z</time></trkpt><trkpt lat="36.80342375490198" lon="-108.13279806136636"><ele>1776.0</ele><time>2026-04-16T22:15:46Z</time></trkpt><trkpt lat="36.803543954981954" lon="-108.13279121690243"><ele>1776.8333333333333</ele><time>2026-04-16T22:15:47Z</time></trkpt><trkpt lat="36.8036467731275" lon="-108.13278368128425"><ele>1777.6666666666665</ele><time>2026-04-16T22:15:48Z</time></trkpt><trkpt lat="36.80374148261902" lon="-108.13277355910594"><ele>1778.5</ele><time>2026-04-16T22:15:49Z</time></trkpt><trkpt lat="36.80382258114079" lon="-108.13276410478296"><ele>1779.3333333333333</ele><time>2026-04-16T22:15:50Z</time></trkpt><trkpt lat="36.80389803822476" lon="-108.132760428128"><ele>1780.1666666666665</ele><time>2026-04-16T22:15:51Z</time></trkpt><trkpt lat="36.80396237067016" lon="-108.13276443917965"><ele>1781.0</ele><time>2026-04-16T22:15:52Z</time></trkpt><trkpt lat="36.80406511432518" lon="-108.13277101682002"><ele>1781.0</ele><time>2026-04-16T22:15:54Z</time></trkpt><trkpt lat="36.80415895075159" lon="-108.13276218063736"><ele>1781.0</ele><time>2026-04-16T22:15:56Z</time></trkpt><trkpt lat="36.80422922380745" lon="-108.13274632131947"><ele>1781.0</ele><time>2026-04-16T22:15:57Z</time></trkpt><trkpt lat="36.804316443376145" lon="-108.13273534464196"><ele>1781.0</ele><time>2026-04-16T22:15:58Z</time></trkpt><trkpt lat="36.80441875259796" lon="-108.1327318994508"><ele>1781.0</ele><time>2026-04-16T22:15:59Z</time></trkpt><trkpt lat="36.80453605263905" lon="-108.13272783632966"><ele>1781.1999999999998</ele><time>2026-04-16T22:16:00Z</time></trkpt><trkpt lat="36.80466485475077" lon="-108.13272513724486"><ele>1781.3999999999999</ele><time>2026-04-16T22:16:01Z</time></trkpt><trkpt lat="36.804790016565775" lon="-108.13272039793935"><ele>1781.6</ele><time>2026-04-16T22:16:02Z</time></trkpt><trkpt lat="36.804895342705386" lon="-108.1327006367974"><ele>1781.8</ele><time>2026-04-16T22:16:03Z</time></trkpt><trkpt lat="36.804954246097786" lon="-108.13264250785186"><ele>1782.0</ele><time>2026-04-16T22:16:04Z</time></trkpt><trkpt lat="36.80497298483508" lon="-108.13253480154785"><ele>1781.0</ele><time>2026-04-16T22:16:05Z</time></trkpt><trkpt lat="36.80495989605782" lon="-108.13238636657448"><ele>1780.0</ele><time>2026-04-16T22:16:06Z</time></trkpt><trkpt lat="36.80494057456939" lon="-108.13221449916335"><ele>1779.0</ele><time>2026-04-16T22:16:07Z</time></trkpt><trkpt lat="36.80494092866229" lon="-108.13201849044097"><ele>1778.0</ele><time>2026-04-16T22:16:08Z</time></trkpt><trkpt lat="36.80495426537486" lon="-108.13179693036246"><ele>1778.0</ele><time>2026-04-16T22:16:09Z</time></trkpt><trkpt lat="36.804963665716784" lon="-108.13155736937131"><ele>1778.0</ele><time>2026-04-16T22:16:10Z</time></trkpt><trkpt lat="36.80496621028627" lon="-108.13129653184899"><ele>1778.0</ele><time>2026-04-16T22:16:11Z</time></trkpt><trkpt lat="36.80496904845429" lon="-108.13102683129307"><ele>1777.75</ele><time>2026-04-16T22:16:12Z</time></trkpt><trkpt lat="36.804970992241024" lon="-108.13081125592467"><ele>1777.5</ele><time>2026-04-16T22:16:13Z</time></trkpt><trkpt lat="36.8049750477967" lon="-108.13063196055798"><ele>1777.25</ele><time>2026-04-16T22:16:14Z</time></trkpt><trkpt lat="36.804982316754014" lon="-108.13046772173129"><ele>1777.0</ele><time>2026-04-16T22:16:15Z</time></trkpt><trkpt lat="36.80498998643032" lon="-108.13031768127239"><ele>1777.0</ele><time>2026-04-16T22:16:16Z</time></trkpt><trkpt lat="36.804995491862854" lon="-108.1301748574099"><ele>1776.9999999999998</ele><time>2026-04-16T22:16:17Z</time></trkpt><trkpt lat="36.80499098725464" lon="-108.13004597828508"><ele>1776.9999999999998</ele><time>2026-04-16T22:16:18Z</time></trkpt><trkpt lat="36.80497689867668" lon="-108.12992641385065"><ele>1777.0</ele><time>2026-04-16T22:16:19Z</time></trkpt><trkpt lat="36.804959852761854" lon="-108.12977686972005"><ele>1777.0</ele><time>2026-04-16T22:16:20Z</time></trkpt><trkpt lat="36.8049528591246" lon="-108.12964838980587"><ele>1777.0</ele><time>2026-04-16T22:16:21Z</time></trkpt><trkpt lat="36.804961767688724" lon="-108.1295400372673"><ele>1776.9999999999998</ele><time>2026-04-16T22:16:22Z</time></trkpt><trkpt lat="36.80500403904998" lon="-108.1294261345301"><ele>1776.9999999999998</ele><time>2026-04-16T22:16:23Z</time></trkpt><trkpt lat="36.80506533323752" lon="-108.1293089968233"><ele>1777.0</ele><time>2026-04-16T22:16:24Z</time></trkpt><trkpt lat="36.805100414210926" lon="-108.12918197332064"><ele>1777.0</ele><time>2026-04-16T22:16:25Z</time></trkpt><trkpt lat="36.805140057546396" lon="-108.12907578247601"><ele>1778.75</ele><time>2026-04-16T22:16:26Z</time></trkpt><trkpt lat="36.80523858946331" lon="-108.12901904030149"><ele>1780.5</ele><time>2026-04-16T22:16:27Z</time></trkpt><trkpt lat="36.80535474170105" lon="-108.12896045049851"><ele>1782.25</ele><time>2026-04-16T22:16:28Z</time></trkpt><trkpt lat="36.80544838752317" lon="-108.12884632283416"><ele>1784.0</ele><time>2026-04-16T22:16:29Z</time></trkpt><trkpt lat="36.80553051623387" lon="-108.12873874852203"><ele>1784.0</ele><time>2026-04-16T22:16:30Z</time></trkpt><trkpt lat="36.80559876009424" lon="-108.12869730353546"><ele>1784.0</ele><time>2026-04-16T22:16:31Z</time></trkpt><trkpt lat="36.80569703068244" lon="-108.12876105924086"><ele>1784.0</ele><time>2026-04-16T22:16:32Z</time></trkpt><trkpt lat="36.805804369893224" lon="-108.12878009650937"><ele>1784.0</ele><time>2026-04-16T22:16:33Z</time></trkpt><trkpt lat="36.80590488356527" lon="-108.12869422529921"><ele>1784.0</ele><time>2026-04-16T22:16:34Z</time></trkpt><trkpt lat="36.80605178716808" lon="-108.12855886122401"><ele>1785.0</ele><time>2026-04-16T22:16:35Z</time></trkpt><trkpt lat="36.806151079278806" lon="-108.12850431856845"><ele>1786.0</ele><time>2026-04-16T22:16:36Z</time></trkpt><trkpt lat="36.806278254169804" lon="-108.12845818680682"><ele>1787.0</ele><time>2026-04-16T22:16:37Z</time></trkpt><trkpt lat="36.806413030718325" lon="-108.12838628014022"><ele>1788.0</ele><time>2026-04-16T22:16:38Z</time></trkpt><trkpt lat="36.806514983278696" lon="-108.12822742741533"><ele>1787.75</ele><time>2026-04-16T22:16:39Z</time></trkpt><trkpt lat="36.80662148425985" lon="-108.12812865424104"><ele>1787.5</ele><time>2026-04-16T22:16:40Z</time></trkpt><trkpt lat="36.80674429404584" lon="-108.12813648047475"><ele>1787.25</ele><time>2026-04-16T22:16:41Z</time></trkpt><trkpt lat="36.806909697981276" lon="-108.12816798833217"><ele>1787.0</ele><time>2026-04-16T22:16:42Z</time></trkpt><trkpt lat="36.807062326590476" lon="-108.12817885060589"><ele>1787.0</ele><time>2026-04-16T22:16:43Z</time></trkpt><trkpt lat="36.8072241228248" lon="-108.12819707343498"><ele>1787.0</ele><time>2026-04-16T22:16:44Z</time></trkpt><trkpt lat="36.80738010341875" lon="-108.12820671777683"><ele>1787.0</ele><time>2026-04-16T22:16:45Z</time></trkpt><trkpt lat="36.80752951622087" lon="-108.12816265062213"><ele>1787.0</ele><time>2026-04-16T22:16:46Z</time></trkpt><trkpt lat="36.80765403945915" lon="-108.12814604537147"><ele>1786.9999999999998</ele><time>2026-04-16T22:16:47Z</time></trkpt><trkpt lat="36.80775493854638" lon="-108.12819762281558"><ele>1786.9999999999998</ele><time>2026-04-16T22:16:48Z</time></trkpt><trkpt lat="36.8078294684634" lon="-108.12819819751743"><ele>1787.0</ele><time>2026-04-16T22:16:49Z</time></trkpt><trkpt lat="36.807843849743904" lon="-108.12811737294251"><ele>1787.0</ele><time>2026-04-16T22:16:50Z</time></trkpt><trkpt lat="36.80782553688698" lon="-108.1279944131429"><ele>1788.0</ele><time>2026-04-16T22:16:51Z</time></trkpt><trkpt lat="36.80780798001381" lon="-108.12789953880008"><ele>1788.9999999999998</ele><time>2026-04-16T22:16:52Z</time></trkpt><trkpt lat="36.80783617874744" lon="-108.12780051527315"><ele>1789.9999999999998</ele><time>2026-04-16T22:16:53Z</time></trkpt><trkpt lat="36.8078947143957" lon="-108.12774050488188"><ele>1791.0</ele><time>2026-04-16T22:16:54Z</time></trkpt><trkpt lat="36.807993648869186" lon="-108.12768043284557"><ele>1792.0</ele><time>2026-04-16T22:16:55Z</time></trkpt><trkpt lat="36.808096655929745" lon="-108.12759347710477"><ele>1792.0</ele><time>2026-04-16T22:16:56Z</time></trkpt><trkpt lat="36.8081884410766" lon="-108.12748447702533"><ele>1792.0</ele><time>2026-04-16T22:16:57Z</time></trkpt><trkpt lat="36.80827046002758" lon="-108.12738406610666"><ele>1792.0</ele><time>2026-04-16T22:16:58Z</time></trkpt><trkpt lat="36.80835709637788" lon="-108.12726519515168"><ele>1792.0</ele><time>2026-04-16T22:16:59Z</time></trkpt><trkpt lat="36.80845065242195" lon="-108.12713576715421"><ele>1791.25</ele><time>2026-04-16T22:17:00Z</time></trkpt><trkpt lat="36.80854585271484" lon="-108.12698860949124"><ele>1790.5</ele><time>2026-04-16T22:17:01Z</time></trkpt><trkpt lat="36.80863671075668" lon="-108.12687052993206"><ele>1789.75</ele><time>2026-04-16T22:17:02Z</time></trkpt><trkpt lat="36.808724226229714" lon="-108.12677528856602"><ele>1789.0</ele><time>2026-04-16T22:17:03Z</time></trkpt><trkpt lat="36.80881124640182" lon="-108.12671504451528"><ele>1789.0</ele><time>2026-04-16T22:17:04Z</time></trkpt><trkpt lat="36.80889976808886" lon="-108.12666885158524"><ele>1789.0</ele><time>2026-04-16T22:17:05Z</time></trkpt><trkpt lat="36.80898055799291" lon="-108.12663308048711"><ele>1789.0</ele><time>2026-04-16T22:17:06Z</time></trkpt><trkpt lat="36.80904713050981" lon="-108.12659969889866"><ele>1789.0</ele><time>2026-04-16T22:17:07Z</time></trkpt><trkpt lat="36.80909858344598" lon="-108.12653950334126"><ele>1789.0</ele><time>2026-04-16T22:17:08Z</time></trkpt><trkpt lat="36.80921718969369" lon="-108.12646854520395"><ele>1791.3333333333335</ele><time>2026-04-16T22:17:09Z</time></trkpt><trkpt lat="36.809336678122705" lon="-108.12639037164793"><ele>1793.6666666666665</ele><time>2026-04-16T22:17:10Z</time></trkpt><trkpt lat="36.80948013266223" lon="-108.12631727318342"><ele>1796.0</ele><time>2026-04-16T22:17:11Z</time></trkpt><trkpt lat="36.80964364446201" lon="-108.12627531991187"><ele>1796.0</ele><time>2026-04-16T22:17:12Z</time></trkpt><trkpt lat="36.80981302177801" lon="-108.12627091961048"><ele>1796.0</ele><time>2026-04-16T22:17:13Z</time></trkpt><trkpt lat="36.80994548370528" lon="-108.1263159637806"><ele>1796.0</ele><time>2026-04-16T22:17:14Z</time></trkpt><trkpt lat="36.810061098519" lon="-108.12639111912968"><ele>1796.0</ele><time>2026-04-16T22:17:15Z</time></trkpt><trkpt lat="36.81013970481309" lon="-108.12644144295325"><ele>1797.0</ele><time>2026-04-16T22:17:16Z</time></trkpt><trkpt lat="36.810224243686164" lon="-108.1265029058379"><ele>1798.0</ele><time>2026-04-16T22:17:17Z</time></trkpt><trkpt lat="36.81030115014019" lon="-108.12652294670029"><ele>1799.0</ele><time>2026-04-16T22:17:18Z</time></trkpt><trkpt lat="36.810412409598996" lon="-108.12659343325903"><ele>1800.0</ele><time>2026-04-16T22:17:19Z</time></trkpt><trkpt lat="36.81052338115039" lon="-108.12667133397613"><ele>1801.0</ele><time>2026-04-16T22:17:20Z</time></trkpt><trkpt lat="36.81061644141754" lon="-108.1267196787501"><ele>1801.0</ele><time>2026-04-16T22:17:21Z</time></trkpt><trkpt lat="36.81070748939753" lon="-108.12678220073234"><ele>1801.0</ele><time>2026-04-16T22:17:22Z</time></trkpt><trkpt lat="36.81082385189501" lon="-108.12687420371971"><ele>1801.0</ele><time>2026-04-16T22:17:23Z</time></trkpt><trkpt lat="36.81091666326619" lon="-108.12695827661801"><ele>1801.0</ele><time>2026-04-16T22:17:24Z</time></trkpt><trkpt lat="36.811016383111294" lon="-108.12688456895599"><ele>1801.0</ele><time>2026-04-16T22:17:26Z</time></trkpt><trkpt lat="36.81109350325035" lon="-108.1267628791138"><ele>1801.0</ele><time>2026-04-16T22:17:27Z</time></trkpt><trkpt lat="36.811172095973646" lon="-108.12667839671589"><ele>1801.0</ele><time>2026-04-16T22:17:28Z</time></trkpt><trkpt lat="36.81123637923825" lon="-108.12659843441865"><ele>1801.0</ele><time>2026-04-16T22:17:29Z</time></trkpt><trkpt lat="36.81131335537857" lon="-108.12652547500328"><ele>1801.0</ele><time>2026-04-16T22:17:30Z</time></trkpt><trkpt lat="36.811445935569246" lon="-108.12650581285219"><ele>1800.0</ele><time>2026-04-16T22:17:31Z</time></trkpt><trkpt lat="36.811612743960794" lon="-108.12651387688054"><ele>1799.0</ele><time>2026-04-16T22:17:32Z</time></trkpt><trkpt lat="36.81176978980205" lon="-108.12645102264786"><ele>1798.0</ele><time>2026-04-16T22:17:33Z</time></trkpt><trkpt lat="36.81189600564586" lon="-108.12638133963046"><ele>1797.5</ele><time>2026-04-16T22:17:34Z</time></trkpt><trkpt lat="36.81202433031313" lon="-108.12634742832849"><ele>1797.0</ele><time>2026-04-16T22:17:35Z</time></trkpt><trkpt lat="36.812138005854735" lon="-108.12630747389947"><ele>1796.5</ele><time>2026-04-16T22:17:36Z</time></trkpt><trkpt lat="36.81225079711035" lon="-108.12625959426998"><ele>1796.0</ele><time>2026-04-16T22:17:37Z</time></trkpt><trkpt lat="36.8124112973717" lon="-108.12622343784359"><ele>1796.0</ele><time>2026-04-16T22:17:38Z</time></trkpt><trkpt lat="36.812567033912394" lon="-108.12625917031573"><ele>1796.0</ele><time>2026-04-16T22:17:39Z</time></trkpt><trkpt lat="36.81271648170813" lon="-108.1262942682576"><ele>1796.0</ele><time>2026-04-16T22:17:40Z</time></trkpt><trkpt lat="36.81282307259131" lon="-108.12630517621679"><ele>1796.0</ele><time>2026-04-16T22:17:41Z</time></trkpt><trkpt lat="36.812940244815174" lon="-108.12626156674817"><ele>1796.0</ele><time>2026-04-16T22:17:42Z</time></trkpt><trkpt lat="36.813054014885395" lon="-108.12614851933323"><ele>1796.0</ele><time>2026-04-16T22:17:43Z</time></trkpt><trkpt lat="36.81316731101102" lon="-108.12602323134124"><ele>1796.0</ele><time>2026-04-16T22:17:44Z</time></trkpt><trkpt lat="36.81327837123208" lon="-108.12589395119599"><ele>1796.0</ele><time>2026-04-16T22:17:45Z</time></trkpt><trkpt lat="36.813366681038836" lon="-108.12578125597894"><ele>1795.5</ele><time>2026-04-16T22:17:46Z</time></trkpt><trkpt lat="36.81346322126824" lon="-108.12565242615779"><ele>1795.0</ele><time>2026-04-16T22:17:47Z</time></trkpt><trkpt lat="36.813569595266145" lon="-108.1255869261853"><ele>1794.5</ele><time>2026-04-16T22:17:48Z</time></trkpt><trkpt lat="36.813698597699315" lon="-108.12556619089513"><ele>1794.0</ele><time>2026-04-16T22:17:49Z</time></trkpt><trkpt lat="36.81385072408132" lon="-108.12552964520249"><ele>1793.75</ele><time>2026-04-16T22:17:50Z</time></trkpt><trkpt lat="36.81399658941931" lon="-108.12545658350739"><ele>1793.5</ele><time>2026-04-16T22:17:51Z</time></trkpt><trkpt lat="36.81412705030371" lon="-108.12539715100769"><ele>1793.25</ele><time>2026-04-16T22:17:52Z</time></trkpt><trkpt lat="36.81424458250571" lon="-108.12535497517703"><ele>1793.0</ele><time>2026-04-16T22:17:53Z</time></trkpt><trkpt lat="36.81436330630718" lon="-108.12540921692155"><ele>1792.4</ele><time>2026-04-16T22:17:55Z</time></trkpt><trkpt lat="36.814428959975935" lon="-108.12552666224208"><ele>1791.8000000000002</ele><time>2026-04-16T22:17:56Z</time></trkpt><trkpt lat="36.814513695455815" lon="-108.12560448040513"><ele>1791.2</ele><time>2026-04-16T22:17:57Z</time></trkpt><trkpt lat="36.81458314494028" lon="-108.1255715788451"><ele>1790.6</ele><time>2026-04-16T22:17:58Z</time></trkpt><trkpt lat="36.8147047644668" lon="-108.12547796894147"><ele>1790.0</ele><time>2026-04-16T22:17:59Z</time></trkpt><trkpt lat="36.814834772664085" lon="-108.12544359268095"><ele>1790.0</ele><time>2026-04-16T22:18:00Z</time></trkpt><trkpt lat="36.8149926262725" lon="-108.12542831146112"><ele>1790.0</ele><time>2026-04-16T22:18:01Z</time></trkpt><trkpt lat="36.815102115289484" lon="-108.12539046005705"><ele>1790.0</ele><time>2026-04-16T22:18:02Z</time></trkpt><trkpt lat="36.81522830594816" lon="-108.12534347797236"><ele>1790.0</ele><time>2026-04-16T22:18:03Z</time></trkpt><trkpt lat="36.81534057028551" lon="-108.12535201072387"><ele>1789.0</ele><time>2026-04-16T22:18:04Z</time></trkpt><trkpt lat="36.81548553713564" lon="-108.12540483683948"><ele>1788.0</ele><time>2026-04-16T22:18:05Z</time></trkpt><trkpt lat="36.81563545915313" lon="-108.12541325195988"><ele>1787.0</ele><time>2026-04-16T22:18:06Z</time></trkpt><trkpt lat="36.81578852966059" lon="-108.12539246700575"><ele>1787.0</ele><time>2026-04-16T22:18:07Z</time></trkpt><trkpt lat="36.81589776447378" lon="-108.12537905917586"><ele>1787.0</ele><time>2026-04-16T22:18:08Z</time></trkpt><trkpt lat="36.816038014157286" lon="-108.12541678881183"><ele>1787.0</ele><time>2026-04-16T22:18:09Z</time></trkpt><trkpt lat="36.81617687445637" lon="-108.12543494229239"><ele>1787.0</ele><time>2026-04-16T22:18:10Z</time></trkpt><trkpt lat="36.81630116890986" lon="-108.12544715996262"><ele>1787.6</ele><time>2026-04-16T22:18:11Z</time></trkpt><trkpt lat="36.81637342739451" lon="-108.12542021587865"><ele>1788.1999999999998</ele><time>2026-04-16T22:18:12Z</time></trkpt><trkpt lat="36.816446598471074" lon="-108.12534555115982"><ele>1788.8</ele><time>2026-04-16T22:18:13Z</time></trkpt><trkpt lat="36.81653927816517" lon="-108.12526036385444"><ele>1789.4</ele><time>2026-04-16T22:18:14Z</time></trkpt><trkpt lat="36.816682629156766" lon="-108.12521593567753"><ele>1790.0</ele><time>2026-04-16T22:18:15Z</time></trkpt><trkpt lat="36.81683465466575" lon="-108.12518702811417"><ele>1790.75</ele><time>2026-04-16T22:18:16Z</time></trkpt><trkpt lat="36.8169504982066" lon="-108.12519557899682"><ele>1791.5</ele><time>2026-04-16T22:18:17Z</time></trkpt><trkpt lat="36.8170628969049" lon="-108.12522770260479"><ele>1792.25</ele><time>2026-04-16T22:18:18Z</time></trkpt><trkpt lat="36.81717618882903" lon="-108.1252604625397"><ele>1793.0</ele><time>2026-04-16T22:18:19Z</time></trkpt><trkpt lat="36.81728639139592" lon="-108.12531869450585"><ele>1793.0</ele><time>2026-04-16T22:18:20Z</time></trkpt><trkpt lat="36.81733596077572" lon="-108.12540083469717"><ele>1793.0000000000002</ele><time>2026-04-16T22:18:21Z</time></trkpt><trkpt lat="36.81732698964426" lon="-108.12548755955164"><ele>1793.0000000000002</ele><time>2026-04-16T22:18:22Z</time></trkpt><trkpt lat="36.81734485818642" lon="-108.12559911776276"><ele>1793.0</ele><time>2026-04-16T22:18:23Z</time></trkpt><trkpt lat="36.817406534966224" lon="-108.125720856987"><ele>1793.0</ele><time>2026-04-16T22:18:24Z</time></trkpt><trkpt lat="36.817492607135485" lon="-108.12583737468822"><ele>1793.25</ele><time>2026-04-16T22:18:25Z</time></trkpt><trkpt lat="36.81760601628953" lon="-108.1259129112295"><ele>1793.5</ele><time>2026-04-16T22:18:26Z</time></trkpt><trkpt lat="36.8176854033278" lon="-108.12598505101253"><ele>1793.75</ele><time>2026-04-16T22:18:27Z</time></trkpt><trkpt lat="36.81777713595296" lon="-108.12599423182017"><ele>1794.0</ele><time>2026-04-16T22:18:28Z</time></trkpt><trkpt lat="36.81791815589029" lon="-108.1259738281348"><ele>1794.0</ele><time>2026-04-16T22:18:29Z</time></trkpt><trkpt lat="36.81803399475837" lon="-108.1259848830324"><ele>1794.0</ele><time>2026-04-16T22:18:30Z</time></trkpt><trkpt lat="36.8181403801599" lon="-108.12601373906385"><ele>1794.0</ele><time>2026-04-16T22:18:31Z</time></trkpt><trkpt lat="36.81824277809746" lon="-108.1260175060564"><ele>1794.0</ele><time>2026-04-16T22:18:32Z</time></trkpt><trkpt lat="36.81836187098098" lon="-108.12599355366137"><ele>1794.0</ele><time>2026-04-16T22:18:33Z</time></trkpt><trkpt lat="36.81849148752842" lon="-108.12597848154833"><ele>1792.3333333333335</ele><time>2026-04-16T22:18:34Z</time></trkpt><trkpt lat="36.818648592919814" lon="-108.12598131811379"><ele>1790.6666666666667</ele><time>2026-04-16T22:18:35Z</time></trkpt><trkpt lat="36.81880464451098" lon="-108.12599655499045"><ele>1789.0</ele><time>2026-04-16T22:18:36Z</time></trkpt><trkpt lat="36.818945219749324" lon="-108.12598510358501"><ele>1789.0</ele><time>2026-04-16T22:18:37Z</time></trkpt><trkpt lat="36.81907765625072" lon="-108.12599794454127"><ele>1789.0</ele><time>2026-04-16T22:18:38Z</time></trkpt><trkpt lat="36.81920761119802" lon="-108.12599553017505"><ele>1789.0</ele><time>2026-04-16T22:18:39Z</time></trkpt><trkpt lat="36.81932927280722" lon="-108.12596778489888"><ele>1789.0</ele><time>2026-04-16T22:18:40Z</time></trkpt><trkpt lat="36.81943932702339" lon="-108.12593055201393"><ele>1788.0</ele><time>2026-04-16T22:18:41Z</time></trkpt><trkpt lat="36.819510004138856" lon="-108.12591898664793"><ele>1787.0</ele><time>2026-04-16T22:18:42Z</time></trkpt><trkpt lat="36.81957278067471" lon="-108.12593226630437"><ele>1786.0</ele><time>2026-04-16T22:18:43Z</time></trkpt><trkpt lat="36.819669967008515" lon="-108.12597217803953"><ele>1785.0</ele><time>2026-04-16T22:18:44Z</time></trkpt><trkpt lat="36.81977734705233" lon="-108.12600263855126"><ele>1784.0</ele><time>2026-04-16T22:18:45Z</time></trkpt><trkpt lat="36.81989806519035" lon="-108.12606576009703"><ele>1784.0</ele><time>2026-04-16T22:18:46Z</time></trkpt><trkpt lat="36.81997448870942" lon="-108.12611908446188"><ele>1784.0</ele><time>2026-04-16T22:18:47Z</time></trkpt><trkpt lat="36.820082374985326" lon="-108.12612353030948"><ele>1784.0</ele><time>2026-04-16T22:18:49Z</time></trkpt><trkpt lat="36.82025526077878" lon="-108.12599622540374"><ele>1784.0</ele><time>2026-04-16T22:18:50Z</time></trkpt><trkpt lat="36.82032558868942" lon="-108.12603804970209"><ele>1783.8000000000002</ele><time>2026-04-16T22:18:51Z</time></trkpt><trkpt lat="36.82038903433252" lon="-108.12608451706086"><ele>1783.6000000000001</ele><time>2026-04-16T22:18:52Z</time></trkpt><trkpt lat="36.820465475579795" lon="-108.12613800933559"><ele>1783.4</ele><time>2026-04-16T22:18:53Z</time></trkpt><trkpt lat="36.82055845491972" lon="-108.12623172197252"><ele>1783.2</ele><time>2026-04-16T22:18:54Z</time></trkpt><trkpt lat="36.82066243917749" lon="-108.12635781841337"><ele>1783.0</ele><time>2026-04-16T22:18:55Z</time></trkpt><trkpt lat="36.82076248774062" lon="-108.1264550803115"><ele>1783.0</ele><time>2026-04-16T22:18:56Z</time></trkpt><trkpt lat="36.82089901760228" lon="-108.1265278695977"><ele>1783.0</ele><time>2026-04-16T22:18:57Z</time></trkpt><trkpt lat="36.82101945983041" lon="-108.12655422018784"><ele>1783.0</ele><time>2026-04-16T22:18:58Z</time></trkpt><trkpt lat="36.821117637594405" lon="-108.12656539846915"><ele>1783.0</ele><time>2026-04-16T22:18:59Z</time></trkpt><trkpt lat="36.821231158987054" lon="-108.12658668069476"><ele>1784.5</ele><time>2026-04-16T22:19:00Z</time></trkpt><trkpt lat="36.821345744516805" lon="-108.1265991455411"><ele>1786.0</ele><time>2026-04-16T22:19:01Z</time></trkpt><trkpt lat="36.821454690038706" lon="-108.12664323357102"><ele>1787.5</ele><time>2026-04-16T22:19:02Z</time></trkpt><trkpt lat="36.821537082773006" lon="-108.12674172263353"><ele>1789.0</ele><time>2026-04-16T22:19:03Z</time></trkpt><trkpt lat="36.821634432231974" lon="-108.1268426365492"><ele>1789.0</ele><time>2026-04-16T22:19:04Z</time></trkpt><trkpt lat="36.821741642514205" lon="-108.12697838471485"><ele>1789.0</ele><time>2026-04-16T22:19:05Z</time></trkpt><trkpt lat="36.82182591285156" lon="-108.12708569507072"><ele>1789.0</ele><time>2026-04-16T22:19:06Z</time></trkpt><trkpt lat="36.82192469865751" lon="-108.12719072321417"><ele>1789.0</ele><time>2026-04-16T22:19:07Z</time></trkpt><trkpt lat="36.82201908656456" lon="-108.12728640369313"><ele>1790.0</ele><time>2026-04-16T22:19:08Z</time></trkpt><trkpt lat="36.822121798017406" lon="-108.1273742584131"><ele>1791.0</ele><time>2026-04-16T22:19:09Z</time></trkpt><trkpt lat="36.82223754924037" lon="-108.1274330880353"><ele>1792.0</ele><time>2026-04-16T22:19:10Z</time></trkpt><trkpt lat="36.82235772098502" lon="-108.12747374848267"><ele>1793.0</ele><time>2026-04-16T22:19:11Z</time></trkpt><trkpt lat="36.822481431399865" lon="-108.1275017719097"><ele>1792.8333333333333</ele><time>2026-04-16T22:19:12Z</time></trkpt><trkpt lat="36.82259410486031" lon="-108.12752265632776"><ele>1792.6666666666665</ele><time>2026-04-16T22:19:13Z</time></trkpt><trkpt lat="36.82267543940509" lon="-108.12755231475396"><ele>1792.5</ele><time>2026-04-16T22:19:14Z</time></trkpt><trkpt lat="36.8227340114156" lon="-108.12750972289793"><ele>1792.3333333333335</ele><time>2026-04-16T22:19:15Z</time></trkpt><trkpt lat="36.82274858720509" lon="-108.12739098032968"><ele>1792.1666666666667</ele><time>2026-04-16T22:19:16Z</time></trkpt><trkpt lat="36.82273476483905" lon="-108.1272845877192"><ele>1792.0</ele><time>2026-04-16T22:19:17Z</time></trkpt><trkpt lat="36.82267281065072" lon="-108.12702812625625"><ele>1792.0</ele><time>2026-04-16T22:19:18Z</time></trkpt><trkpt lat="36.82260777039284" lon="-108.12686371561071"><ele>1792.0</ele><time>2026-04-16T22:19:19Z</time></trkpt><trkpt lat="36.82264259448791" lon="-108.1267896535236"><ele>1792.0</ele><time>2026-04-16T22:19:20Z</time></trkpt><trkpt lat="36.822676047548974" lon="-108.12666179948896"><ele>1792.0</ele><time>2026-04-16T22:19:21Z</time></trkpt><trkpt lat="36.82272594103505" lon="-108.12651497763856"><ele>1791.6666666666667</ele><time>2026-04-16T22:19:22Z</time></trkpt><trkpt lat="36.82277345204008" lon="-108.12637634803635"><ele>1791.3333333333335</ele><time>2026-04-16T22:19:23Z</time></trkpt><trkpt lat="36.82280903990369" lon="-108.12614710553721"><ele>1791.0</ele><time>2026-04-16T22:19:24Z</time></trkpt><trkpt lat="36.82289184194798" lon="-108.12590856207775"><ele>1792.0</ele><time>2026-04-16T22:19:25Z</time></trkpt><trkpt lat="36.822960892684854" lon="-108.12571625450504"><ele>1793.0</ele><time>2026-04-16T22:19:26Z</time></trkpt><trkpt lat="36.82297858567074" lon="-108.12540560880447"><ele>1794.0</ele><time>2026-04-16T22:19:27Z</time></trkpt><trkpt lat="36.82304761988508" lon="-108.1252530928832"><ele>1794.0</ele><time>2026-04-16T22:19:28Z</time></trkpt><trkpt lat="36.82311920525458" lon="-108.1251207159148"><ele>1794.0</ele><time>2026-04-16T22:19:29Z</time></trkpt><trkpt lat="36.8231888757736" lon="-108.12499771328382"><ele>1794.0</ele><time>2026-04-16T22:19:30Z</time></trkpt><trkpt lat="36.823258854649175" lon="-108.12487263735665"><ele>1794.0</ele><time>2026-04-16T22:19:31Z</time></trkpt><trkpt lat="36.823346682738766" lon="-108.12477113089092"><ele>1793.4</ele><time>2026-04-16T22:19:32Z</time></trkpt><trkpt lat="36.82342023079944" lon="-108.12468259449304"><ele>1792.8000000000002</ele><time>2026-04-16T22:19:33Z</time></trkpt><trkpt lat="36.82347321220623" lon="-108.12459035075075"><ele>1792.1999999999998</ele><time>2026-04-16T22:19:34Z</time></trkpt><trkpt lat="36.82353334628408" lon="-108.12450792230317"><ele>1791.6</ele><time>2026-04-16T22:19:35Z</time></trkpt><trkpt lat="36.82357568782925" lon="-108.12440639538045"><ele>1791.0</ele><time>2026-04-16T22:19:36Z</time></trkpt><trkpt lat="36.82361640297692" lon="-108.12430309526258"><ele>1791.0</ele><time>2026-04-16T22:19:37Z</time></trkpt><trkpt lat="36.82364061709118" lon="-108.12420353535805"><ele>1791.0</ele><time>2026-04-16T22:19:38Z</time></trkpt><trkpt lat="36.82370839917662" lon="-108.12414975660006"><ele>1791.0</ele><time>2026-04-16T22:19:39Z</time></trkpt><trkpt lat="36.82378569647517" lon="-108.12409581822244"><ele>1791.0</ele><time>2026-04-16T22:19:40Z</time></trkpt><trkpt lat="36.82387668065214" lon="-108.12404476859044"><ele>1791.0</ele><time>2026-04-16T22:19:41Z</time></trkpt><trkpt lat="36.82400849661055" lon="-108.12404944432738"><ele>1791.0</ele><time>2026-04-16T22:19:42Z</time></trkpt><trkpt lat="36.82409856740345" lon="-108.12405083634624"><ele>1791.0</ele><time>2026-04-16T22:19:43Z</time></trkpt><trkpt lat="36.82418002713964" lon="-108.12407504539685"><ele>1791.0</ele><time>2026-04-16T22:19:44Z</time></trkpt><trkpt lat="36.82425070130495" lon="-108.12410828842746"><ele>1791.0</ele><time>2026-04-16T22:19:45Z</time></trkpt><trkpt lat="36.82431976193535" lon="-108.12418679128021"><ele>1791.0</ele><time>2026-04-16T22:19:46Z</time></trkpt><trkpt lat="36.8244216500836" lon="-108.12429062067038"><ele>1790.75</ele><time>2026-04-16T22:19:47Z</time></trkpt><trkpt lat="36.82454139050202" lon="-108.12440893063301"><ele>1790.5</ele><time>2026-04-16T22:19:48Z</time></trkpt><trkpt lat="36.82465566431567" lon="-108.1244972418268"><ele>1790.25</ele><time>2026-04-16T22:19:49Z</time></trkpt><trkpt lat="36.824763590207915" lon="-108.12455937056694"><ele>1790.0</ele><time>2026-04-16T22:19:50Z</time></trkpt><trkpt lat="36.82486484517206" lon="-108.12461944379103"><ele>1790.0</ele><time>2026-04-16T22:19:51Z</time></trkpt><trkpt lat="36.82495247785764" lon="-108.12470684678958"><ele>1790.0</ele><time>2026-04-16T22:19:52Z</time></trkpt><trkpt lat="36.825047653891964" lon="-108.12477371923625"><ele>1790.0</ele><time>2026-04-16T22:19:53Z</time></trkpt><trkpt lat="36.82515257356147" lon="-108.12486052733131"><ele>1790.0</ele><time>2026-04-16T22:19:54Z</time></trkpt><trkpt lat="36.82526429511751" lon="-108.1249556376105"><ele>1791.2</ele><time>2026-04-16T22:19:55Z</time></trkpt><trkpt lat="36.82535801851882" lon="-108.12501465120954"><ele>1792.4</ele><time>2026-04-16T22:19:56Z</time></trkpt><trkpt lat="36.82543629003925" lon="-108.12502452835251"><ele>1793.6</ele><time>2026-04-16T22:19:57Z</time></trkpt><trkpt lat="36.82553538137074" lon="-108.12502654350514"><ele>1794.8</ele><time>2026-04-16T22:19:58Z</time></trkpt><trkpt lat="36.825626371330266" lon="-108.12503359290123"><ele>1796.0</ele><time>2026-04-16T22:19:59Z</time></trkpt><trkpt lat="36.82572552745674" lon="-108.12494864527437"><ele>1795.6666666666665</ele><time>2026-04-16T22:20:00Z</time></trkpt><trkpt lat="36.825824165881954" lon="-108.12473632413968"><ele>1795.3333333333335</ele><time>2026-04-16T22:20:01Z</time></trkpt><trkpt lat="36.825943541550444" lon="-108.12464515794764"><ele>1795.0</ele><time>2026-04-16T22:20:02Z</time></trkpt><trkpt lat="36.82604987164484" lon="-108.12450938207976"><ele>1796.0</ele><time>2026-04-16T22:20:03Z</time></trkpt><trkpt lat="36.826156556702614" lon="-108.12434232961462"><ele>1797.0</ele><time>2026-04-16T22:20:04Z</time></trkpt><trkpt lat="36.826269047566655" lon="-108.12422982382544"><ele>1798.0</ele><time>2026-04-16T22:20:05Z</time></trkpt><trkpt lat="36.82637608400765" lon="-108.12412215411263"><ele>1797.75</ele><time>2026-04-16T22:20:06Z</time></trkpt><trkpt lat="36.826477145851214" lon="-108.12399944136385"><ele>1797.5</ele><time>2026-04-16T22:20:07Z</time></trkpt><trkpt lat="36.826583504254614" lon="-108.12387213628526"><ele>1797.25</ele><time>2026-04-16T22:20:08Z</time></trkpt><trkpt lat="36.82668707778865" lon="-108.12373156922203"><ele>1797.0</ele><time>2026-04-16T22:20:09Z</time></trkpt><trkpt lat="36.8268007537514" lon="-108.12360852987914"><ele>1797.0</ele><time>2026-04-16T22:20:10Z</time></trkpt><trkpt lat="36.82691768897265" lon="-108.12348739657479"><ele>1797.0</ele><time>2026-04-16T22:20:11Z</time></trkpt><trkpt lat="36.827029083153974" lon="-108.12336803738324"><ele>1797.0</ele><time>2026-04-16T22:20:12Z</time></trkpt><trkpt lat="36.82715928079755" lon="-108.12325539670212"><ele>1796.6666666666665</ele><time>2026-04-16T22:20:13Z</time></trkpt><trkpt lat="36.82729347658453" lon="-108.12312454767023"><ele>1796.3333333333333</ele><time>2026-04-16T22:20:14Z</time></trkpt><trkpt lat="36.82741523333293" lon="-108.12298977215009"><ele>1796.0</ele><time>2026-04-16T22:20:15Z</time></trkpt><trkpt lat="36.82754476970455" lon="-108.12286991151095"><ele>1795.0</ele><time>2026-04-16T22:20:16Z</time></trkpt><trkpt lat="36.82768639903866" lon="-108.12274044008429"><ele>1794.0</ele><time>2026-04-16T22:20:17Z</time></trkpt><trkpt lat="36.82782125742811" lon="-108.1225733958028"><ele>1793.0</ele><time>2026-04-16T22:20:18Z</time></trkpt><trkpt lat="36.82796285414238" lon="-108.12246981202685"><ele>1792.5</ele><time>2026-04-16T22:20:19Z</time></trkpt><trkpt lat="36.82811150145521" lon="-108.1223528629235"><ele>1792.0</ele><time>2026-04-16T22:20:20Z</time></trkpt><trkpt lat="36.82820940154476" lon="-108.12225032276183"><ele>1791.5</ele><time>2026-04-16T22:20:21Z</time></trkpt><trkpt lat="36.82831894507715" lon="-108.12217033053778"><ele>1791.0</ele><time>2026-04-16T22:20:22Z</time></trkpt><trkpt lat="36.82845192345833" lon="-108.12211634418404"><ele>1791.6666666666665</ele><time>2026-04-16T22:20:23Z</time></trkpt><trkpt lat="36.8285819071595" lon="-108.12200908963285"><ele>1792.3333333333333</ele><time>2026-04-16T22:20:24Z</time></trkpt><trkpt lat="36.82870531536097" lon="-108.12184182651605"><ele>1793.0</ele><time>2026-04-16T22:20:25Z</time></trkpt><trkpt lat="36.82887328996142" lon="-108.12168168887118"><ele>1793.0</ele><time>2026-04-16T22:20:26Z</time></trkpt><trkpt lat="36.8290021329733" lon="-108.12155319642623"><ele>1793.0</ele><time>2026-04-16T22:20:27Z</time></trkpt><trkpt lat="36.82912695934941" lon="-108.12143399842893"><ele>1793.0</ele><time>2026-04-16T22:20:28Z</time></trkpt><trkpt lat="36.82923431522974" lon="-108.12134821121899"><ele>1793.0</ele><time>2026-04-16T22:20:29Z</time></trkpt><trkpt lat="36.82931049657236" lon="-108.12127467892893"><ele>1792.2</ele><time>2026-04-16T22:20:30Z</time></trkpt><trkpt lat="36.82936746190107" lon="-108.12121714239818"><ele>1791.4</ele><time>2026-04-16T22:20:31Z</time></trkpt><trkpt lat="36.82944907712224" lon="-108.12116416203948"><ele>1790.6000000000001</ele><time>2026-04-16T22:20:33Z</time></trkpt><trkpt lat="36.82958600451577" lon="-108.12117666292761"><ele>1789.8000000000002</ele><time>2026-04-16T22:20:35Z</time></trkpt><trkpt lat="36.82969610536593" lon="-108.12120263968562"><ele>1789.0</ele><time>2026-04-16T22:20:36Z</time></trkpt><trkpt lat="36.829825599567585" lon="-108.12120649232268"><ele>1789.0</ele><time>2026-04-16T22:20:37Z</time></trkpt><trkpt lat="36.82995990479079" lon="-108.12122680423028"><ele>1789.0</ele><time>2026-04-16T22:20:38Z</time></trkpt><trkpt lat="36.830080018994586" lon="-108.12120790579397"><ele>1789.0</ele><time>2026-04-16T22:20:39Z</time></trkpt><trkpt lat="36.83020255570674" lon="-108.12116331731315"><ele>1789.0</ele><time>2026-04-16T22:20:40Z</time></trkpt><trkpt lat="36.830338739897726" lon="-108.12118919405093"><ele>1787.75</ele><time>2026-04-16T22:20:41Z</time></trkpt><trkpt lat="36.83046511956641" lon="-108.12118170141943"><ele>1786.5</ele><time>2026-04-16T22:20:42Z</time></trkpt><trkpt lat="36.83060591634403" lon="-108.12121577652084"><ele>1785.25</ele><time>2026-04-16T22:20:43Z</time></trkpt><trkpt lat="36.83071592229312" lon="-108.12126190780187"><ele>1784.0</ele><time>2026-04-16T22:20:44Z</time></trkpt><trkpt lat="36.83081862360541" lon="-108.12129854679559"><ele>1784.0</ele><time>2026-04-16T22:20:45Z</time></trkpt><trkpt lat="36.8308997655883" lon="-108.12133454280657"><ele>1784.0</ele><time>2026-04-16T22:20:46Z</time></trkpt><trkpt lat="36.83098807265113" lon="-108.12131083754186"><ele>1784.0</ele><time>2026-04-16T22:20:47Z</time></trkpt><trkpt lat="36.831117706553684" lon="-108.12128728080148"><ele>1784.0</ele><time>2026-04-16T22:20:48Z</time></trkpt><trkpt lat="36.83123443853748" lon="-108.12130269716518"><ele>1784.0</ele><time>2026-04-16T22:20:49Z</time></trkpt><trkpt lat="36.83133964224071" lon="-108.12132993112151"><ele>1784.0</ele><time>2026-04-16T22:20:50Z</time></trkpt><trkpt lat="36.83146265535133" lon="-108.12139143193704"><ele>1784.0</ele><time>2026-04-16T22:20:51Z</time></trkpt><trkpt lat="36.831575765690715" lon="-108.12141161033023"><ele>1784.0</ele><time>2026-04-16T22:20:52Z</time></trkpt><trkpt lat="36.831725813199085" lon="-108.12143038589161"><ele>1784.0</ele><time>2026-04-16T22:20:53Z</time></trkpt><trkpt lat="36.831858411980775" lon="-108.1214470620096"><ele>1784.3333333333333</ele><time>2026-04-16T22:20:54Z</time></trkpt><trkpt lat="36.83197362899107" lon="-108.1214841543205"><ele>1784.6666666666665</ele><time>2026-04-16T22:20:55Z</time></trkpt><trkpt lat="36.832127561759805" lon="-108.12154152603246"><ele>1785.0</ele><time>2026-04-16T22:20:56Z</time></trkpt><trkpt lat="36.83229750606852" lon="-108.12158336393543"><ele>1785.0</ele><time>2026-04-16T22:20:57Z</time></trkpt><trkpt lat="36.832463738153685" lon="-108.12165516885538"><ele>1785.0</ele><time>2026-04-16T22:20:58Z</time></trkpt><trkpt lat="36.832633884119616" lon="-108.12176977506533"><ele>1785.0</ele><time>2026-04-16T22:20:59Z</time></trkpt><trkpt lat="36.83280851148787" lon="-108.12192039433789"><ele>1785.5</ele><time>2026-04-16T22:21:00Z</time></trkpt><trkpt lat="36.83294810088355" lon="-108.12203128492169"><ele>1786.0</ele><time>2026-04-16T22:21:01Z</time></trkpt><trkpt lat="36.83307342804506" lon="-108.12208670219935"><ele>1786.5</ele><time>2026-04-16T22:21:02Z</time></trkpt><trkpt lat="36.83318195638881" lon="-108.12215896152185"><ele>1787.0</ele><time>2026-04-16T22:21:03Z</time></trkpt><trkpt lat="36.83326187460921" lon="-108.12218669123627"><ele>1787.0</ele><time>2026-04-16T22:21:04Z</time></trkpt><trkpt lat="36.83334458324522" lon="-108.12213961788146"><ele>1787.0</ele><time>2026-04-16T22:21:05Z</time></trkpt><trkpt lat="36.83350616309751" lon="-108.12216113164293"><ele>1787.0</ele><time>2026-04-16T22:21:07Z</time></trkpt><trkpt lat="36.83362595999363" lon="-108.12222205508239"><ele>1787.0</ele><time>2026-04-16T22:21:08Z</time></trkpt><trkpt lat="36.833751896192126" lon="-108.12227908694291"><ele>1789.0</ele><time>2026-04-16T22:21:09Z</time></trkpt><trkpt lat="36.83385305804674" lon="-108.12235021522567"><ele>1791.0</ele><time>2026-04-16T22:21:10Z</time></trkpt><trkpt lat="36.833890784672505" lon="-108.12247262318651"><ele>1793.0</ele><time>2026-04-16T22:21:11Z</time></trkpt><trkpt lat="36.83394399296903" lon="-108.12261354569517"><ele>1795.0</ele><time>2026-04-16T22:21:12Z</time></trkpt><trkpt lat="36.833986719700675" lon="-108.12274547363323"><ele>1795.0</ele><time>2026-04-16T22:21:13Z</time></trkpt><trkpt lat="36.83402300627025" lon="-108.12285173043001"><ele>1795.0</ele><time>2026-04-16T22:21:14Z</time></trkpt><trkpt lat="36.83406283602666" lon="-108.12295051772477"><ele>1795.0</ele><time>2026-04-16T22:21:15Z</time></trkpt><trkpt lat="36.83410551529733" lon="-108.1230499232744"><ele>1795.0</ele><time>2026-04-16T22:21:16Z</time></trkpt><trkpt lat="36.83431481328535" lon="-108.12265713081611"><ele>1796.0</ele><time>2026-04-16T22:21:17Z</time></trkpt><trkpt lat="36.83444958358948" lon="-108.12261571941117"><ele>1797.0</ele><time>2026-04-16T22:21:18Z</time></trkpt><trkpt lat="36.83458707329745" lon="-108.1225273317605"><ele>1798.0</ele><time>2026-04-16T22:21:19Z</time></trkpt><trkpt lat="36.834726535197206" lon="-108.12248899813031"><ele>1799.0</ele><time>2026-04-16T22:21:20Z</time></trkpt><trkpt lat="36.83488461056562" lon="-108.12247194346938"><ele>1799.0</ele><time>2026-04-16T22:21:21Z</time></trkpt><trkpt lat="36.83501611815256" lon="-108.12240504408165"><ele>1799.0</ele><time>2026-04-16T22:21:22Z</time></trkpt><trkpt lat="36.835132077315635" lon="-108.12235568715045"><ele>1799.0</ele><time>2026-04-16T22:21:23Z</time></trkpt><trkpt lat="36.83522037407098" lon="-108.12239112386281"><ele>1799.0</ele><time>2026-04-16T22:21:24Z</time></trkpt><trkpt lat="36.83535097334739" lon="-108.12243143293446"><ele>1799.6666666666665</ele><time>2026-04-16T22:21:25Z</time></trkpt><trkpt lat="36.83551320737297" lon="-108.12247436597723"><ele>1800.3333333333335</ele><time>2026-04-16T22:21:26Z</time></trkpt><trkpt lat="36.8356952008701" lon="-108.12246366190459"><ele>1801.0</ele><time>2026-04-16T22:21:27Z</time></trkpt><trkpt lat="36.83584507865708" lon="-108.12238904269886"><ele>1800.8</ele><time>2026-04-16T22:21:28Z</time></trkpt><trkpt lat="36.83595406266922" lon="-108.12232313165507"><ele>1800.6</ele><time>2026-04-16T22:21:29Z</time></trkpt><trkpt lat="36.83607568764892" lon="-108.12229119403028"><ele>1800.4</ele><time>2026-04-16T22:21:30Z</time></trkpt><trkpt lat="36.83616889783069" lon="-108.12223368491603"><ele>1800.2</ele><time>2026-04-16T22:21:31Z</time></trkpt><trkpt lat="36.836244419651784" lon="-108.12218567599619"><ele>1800.0</ele><time>2026-04-16T22:21:32Z</time></trkpt><trkpt lat="36.83638045550682" lon="-108.12221091352178"><ele>1800.0</ele><time>2026-04-16T22:21:33Z</time></trkpt><trkpt lat="36.83652008263833" lon="-108.12220456741466"><ele>1800.0</ele><time>2026-04-16T22:21:34Z</time></trkpt><trkpt lat="36.8366344882203" lon="-108.12221906802112"><ele>1800.0</ele><time>2026-04-16T22:21:35Z</time></trkpt><trkpt lat="36.836720458230246" lon="-108.12220903493541"><ele>1800.0</ele><time>2026-04-16T22:21:36Z</time></trkpt><trkpt lat="36.836831998369654" lon="-108.122196085258"><ele>1800.0</ele><time>2026-04-16T22:21:37Z</time></trkpt><trkpt lat="36.83694645002982" lon="-108.1221931593025"><ele>1800.0</ele><time>2026-04-16T22:21:38Z</time></trkpt><trkpt lat="36.8370307857677" lon="-108.12222814428976"><ele>1800.0</ele><time>2026-04-16T22:21:39Z</time></trkpt><trkpt lat="36.837111604408264" lon="-108.12220891182717"><ele>1800.0</ele><time>2026-04-16T22:21:40Z</time></trkpt><trkpt lat="36.83720181361748" lon="-108.12217358735077"><ele>1800.0</ele><time>2026-04-16T22:21:41Z</time></trkpt><trkpt lat="36.83731698799745" lon="-108.12218490396636"><ele>1800.0</ele><time>2026-04-16T22:21:42Z</time></trkpt><trkpt lat="36.837454788956634" lon="-108.12218797867169"><ele>1800.0</ele><time>2026-04-16T22:21:43Z</time></trkpt><trkpt lat="36.83758564379348" lon="-108.12215077851901"><ele>1800.0</ele><time>2026-04-16T22:21:44Z</time></trkpt><trkpt lat="36.837710940364204" lon="-108.12210296332702"><ele>1800.0</ele><time>2026-04-16T22:21:45Z</time></trkpt><trkpt lat="36.837813830232875" lon="-108.12208225529743"><ele>1801.0</ele><time>2026-04-16T22:21:46Z</time></trkpt><trkpt lat="36.83794676015311" lon="-108.1221283857589"><ele>1802.0</ele><time>2026-04-16T22:21:47Z</time></trkpt><trkpt lat="36.83808343902234" lon="-108.12215137301384"><ele>1803.0</ele><time>2026-04-16T22:21:48Z</time></trkpt><trkpt lat="36.83823415156946" lon="-108.12215808987786"><ele>1804.0</ele><time>2026-04-16T22:21:49Z</time></trkpt><trkpt lat="36.83836712276589" lon="-108.12215214250986"><ele>1806.0</ele><time>2026-04-16T22:21:50Z</time></trkpt><trkpt lat="36.838493832017754" lon="-108.12210721658543"><ele>1808.0</ele><time>2026-04-16T22:21:51Z</time></trkpt><trkpt lat="36.83864070559326" lon="-108.12206800967441"><ele>1810.0</ele><time>2026-04-16T22:21:52Z</time></trkpt><trkpt lat="36.83879704102573" lon="-108.1220397968313"><ele>1812.0</ele><time>2026-04-16T22:21:53Z</time></trkpt><trkpt lat="36.83895960748964" lon="-108.12194913791035"><ele>1812.0</ele><time>2026-04-16T22:21:54Z</time></trkpt><trkpt lat="36.8391447552305" lon="-108.12183767658382"><ele>1812.0</ele><time>2026-04-16T22:21:55Z</time></trkpt><trkpt lat="36.8392891530495" lon="-108.12177000710675"><ele>1812.0</ele><time>2026-04-16T22:21:56Z</time></trkpt><trkpt lat="36.83939945875049" lon="-108.12170349646696"><ele>1812.8</ele><time>2026-04-16T22:21:57Z</time></trkpt><trkpt lat="36.83944485777375" lon="-108.12162237113054"><ele>1813.6</ele><time>2026-04-16T22:21:58Z</time></trkpt><trkpt lat="36.83945103957233" lon="-108.12153392177163"><ele>1814.3999999999999</ele><time>2026-04-16T22:21:59Z</time></trkpt><trkpt lat="36.83946153404264" lon="-108.121390243006"><ele>1815.1999999999998</ele><time>2026-04-16T22:22:01Z</time></trkpt><trkpt lat="36.83963039210678" lon="-108.12137149322858"><ele>1816.0</ele><time>2026-04-16T22:22:03Z</time></trkpt><trkpt lat="36.83970405363947" lon="-108.12138093006371"><ele>1816.0</ele><time>2026-04-16T22:22:04Z</time></trkpt><trkpt lat="36.83978910924991" lon="-108.12142183569738"><ele>1816.0</ele><time>2026-04-16T22:22:05Z</time></trkpt><trkpt lat="36.83986524006078" lon="-108.1214109771195"><ele>1816.0</ele><time>2026-04-16T22:22:06Z</time></trkpt><trkpt lat="36.83997686430178" lon="-108.12132058445845"><ele>1816.0</ele><time>2026-04-16T22:22:07Z</time></trkpt><trkpt lat="36.84008593575947" lon="-108.12125923758525"><ele>1816.0</ele><time>2026-04-16T22:22:08Z</time></trkpt><trkpt lat="36.84019722130544" lon="-108.12119673523165"><ele>1814.75</ele><time>2026-04-16T22:22:09Z</time></trkpt><trkpt lat="36.84031695673203" lon="-108.12111276440056"><ele>1813.5</ele><time>2026-04-16T22:22:10Z</time></trkpt><trkpt lat="36.84040887162236" lon="-108.12101197595422"><ele>1812.25</ele><time>2026-04-16T22:22:11Z</time></trkpt><trkpt lat="36.84045600082346" lon="-108.12089285982321"><ele>1811.0</ele><time>2026-04-16T22:22:12Z</time></trkpt><trkpt lat="36.84049935021699" lon="-108.1207192323395"><ele>1810.1999999999998</ele><time>2026-04-16T22:22:13Z</time></trkpt><trkpt lat="36.84053167984362" lon="-108.12059045720069"><ele>1809.3999999999999</ele><time>2026-04-16T22:22:14Z</time></trkpt><trkpt lat="36.84056469541667" lon="-108.12046108284761"><ele>1808.6</ele><time>2026-04-16T22:22:15Z</time></trkpt><trkpt lat="36.84062058289698" lon="-108.12033508679033"><ele>1807.8</ele><time>2026-04-16T22:22:16Z</time></trkpt><trkpt lat="36.840692834941265" lon="-108.12024154465361"><ele>1807.0</ele><time>2026-04-16T22:22:17Z</time></trkpt><trkpt lat="36.840756576475826" lon="-108.12013598653846"><ele>1807.0</ele><time>2026-04-16T22:22:18Z</time></trkpt><trkpt lat="36.84086027978727" lon="-108.12009822481733"><ele>1806.9999999999998</ele><time>2026-04-16T22:22:19Z</time></trkpt><trkpt lat="36.84094511423666" lon="-108.12001265975759"><ele>1806.9999999999998</ele><time>2026-04-16T22:22:20Z</time></trkpt><trkpt lat="36.84102013692951" lon="-108.1199216381866"><ele>1807.0</ele><time>2026-04-16T22:22:21Z</time></trkpt><trkpt lat="36.84112466156066" lon="-108.11987184846255"><ele>1807.0</ele><time>2026-04-16T22:22:22Z</time></trkpt><trkpt lat="36.84126277043154" lon="-108.1198275767982"><ele>1805.0</ele><time>2026-04-16T22:22:23Z</time></trkpt><trkpt lat="36.84141020049859" lon="-108.1197834431685"><ele>1803.0</ele><time>2026-04-16T22:22:24Z</time></trkpt><trkpt lat="36.84158016149387" lon="-108.11981135844766"><ele>1801.0</ele><time>2026-04-16T22:22:25Z</time></trkpt><trkpt lat="36.841723531130704" lon="-108.11979654993424"><ele>1802.25</ele><time>2026-04-16T22:22:26Z</time></trkpt><trkpt lat="36.841875167486506" lon="-108.11979543884024"><ele>1803.5</ele><time>2026-04-16T22:22:27Z</time></trkpt><trkpt lat="36.84201559340949" lon="-108.11976936397261"><ele>1804.75</ele><time>2026-04-16T22:22:28Z</time></trkpt><trkpt lat="36.84214074606345" lon="-108.11972753328723"><ele>1806.0</ele><time>2026-04-16T22:22:29Z</time></trkpt><trkpt lat="36.842266345431014" lon="-108.11966588105699"><ele>1806.0</ele><time>2026-04-16T22:22:30Z</time></trkpt><trkpt lat="36.84237686979525" lon="-108.11963437625198"><ele>1806.0</ele><time>2026-04-16T22:22:31Z</time></trkpt><trkpt lat="36.84249555942173" lon="-108.11966094293949"><ele>1806.0</ele><time>2026-04-16T22:22:32Z</time></trkpt><trkpt lat="36.84255733194799" lon="-108.1196119452036"><ele>1806.0</ele><time>2026-04-16T22:22:33Z</time></trkpt><trkpt lat="36.84261595843575" lon="-108.11953126648015"><ele>1806.0</ele><time>2026-04-16T22:22:34Z</time></trkpt><trkpt lat="36.84267372759956" lon="-108.11946116688793"><ele>1806.1999999999998</ele><time>2026-04-16T22:22:35Z</time></trkpt><trkpt lat="36.842727212795715" lon="-108.11939649625238"><ele>1806.3999999999999</ele><time>2026-04-16T22:22:36Z</time></trkpt><trkpt lat="36.8427530966286" lon="-108.11925640145448"><ele>1806.6</ele><time>2026-04-16T22:22:37Z</time></trkpt><trkpt lat="36.84280965204411" lon="-108.11914571685041"><ele>1806.8</ele><time>2026-04-16T22:22:38Z</time></trkpt><trkpt lat="36.84291868079754" lon="-108.11903297229759"><ele>1807.0</ele><time>2026-04-16T22:22:39Z</time></trkpt><trkpt lat="36.84299619081381" lon="-108.11892646952053"><ele>1807.0</ele><time>2026-04-16T22:22:40Z</time></trkpt><trkpt lat="36.843046484483224" lon="-108.11884280679668"><ele>1806.9999999999998</ele><time>2026-04-16T22:22:41Z</time></trkpt><trkpt lat="36.84308872287092" lon="-108.11870995657027"><ele>1806.9999999999998</ele><time>2026-04-16T22:22:42Z</time></trkpt><trkpt lat="36.84311352230035" lon="-108.11859199935003"><ele>1807.0</ele><time>2026-04-16T22:22:43Z</time></trkpt><trkpt lat="36.843167037528055" lon="-108.11854948161236"><ele>1807.0</ele><time>2026-04-16T22:22:44Z</time></trkpt><trkpt lat="36.84327453497128" lon="-108.11855310242579"><ele>1807.0</ele><time>2026-04-16T22:22:45Z</time></trkpt><trkpt lat="36.843404287191994" lon="-108.1185259587097"><ele>1807.0</ele><time>2026-04-16T22:22:46Z</time></trkpt><trkpt lat="36.8435184626469" lon="-108.11844804673403"><ele>1807.0</ele><time>2026-04-16T22:22:47Z</time></trkpt><trkpt lat="36.84362705917234" lon="-108.11839639455695"><ele>1807.0</ele><time>2026-04-16T22:22:48Z</time></trkpt><trkpt lat="36.84369471884218" lon="-108.11832590342883"><ele>1806.0</ele><time>2026-04-16T22:22:49Z</time></trkpt><trkpt lat="36.843731532256115" lon="-108.11821271161593"><ele>1805.0</ele><time>2026-04-16T22:22:50Z</time></trkpt><trkpt lat="36.843792127166886" lon="-108.11805817273454"><ele>1804.0</ele><time>2026-04-16T22:22:51Z</time></trkpt><trkpt lat="36.84384987329094" lon="-108.11794809768134"><ele>1803.0</ele><time>2026-04-16T22:22:52Z</time></trkpt><trkpt lat="36.843924488539734" lon="-108.11783446104167"><ele>1803.0</ele><time>2026-04-16T22:22:53Z</time></trkpt><trkpt lat="36.84399024823231" lon="-108.11777678428597"><ele>1803.0000000000002</ele><time>2026-04-16T22:22:54Z</time></trkpt><trkpt lat="36.84405609266681" lon="-108.11773277405878"><ele>1803.0000000000002</ele><time>2026-04-16T22:22:55Z</time></trkpt><trkpt lat="36.8441429669948" lon="-108.11763312961521"><ele>1803.0</ele><time>2026-04-16T22:22:56Z</time></trkpt><trkpt lat="36.84421844066882" lon="-108.11748941709902"><ele>1803.0</ele><time>2026-04-16T22:22:57Z</time></trkpt><trkpt lat="36.844313868329344" lon="-108.11742496075183"><ele>1801.8000000000002</ele><time>2026-04-16T22:22:58Z</time></trkpt><trkpt lat="36.84441067270754" lon="-108.11736564720552"><ele>1800.6000000000001</ele><time>2026-04-16T22:22:59Z</time></trkpt><trkpt lat="36.84449795862172" lon="-108.11727124533418"><ele>1799.3999999999999</ele><time>2026-04-16T22:23:00Z</time></trkpt><trkpt lat="36.844562299626034" lon="-108.1171588974586"><ele>1798.1999999999998</ele><time>2026-04-16T22:23:01Z</time></trkpt><trkpt lat="36.84463080189559" lon="-108.11705099066643"><ele>1797.0</ele><time>2026-04-16T22:23:02Z</time></trkpt><trkpt lat="36.84467949066894" lon="-108.11679234870746"><ele>1797.0</ele><time>2026-04-16T22:23:03Z</time></trkpt><trkpt lat="36.844753327608345" lon="-108.11662121787786"><ele>1797.0</ele><time>2026-04-16T22:23:04Z</time></trkpt><trkpt lat="36.84480202559996" lon="-108.11644448530267"><ele>1797.0</ele><time>2026-04-16T22:23:05Z</time></trkpt><trkpt lat="36.844943435175466" lon="-108.11638831170643"><ele>1798.0</ele><time>2026-04-16T22:23:06Z</time></trkpt><trkpt lat="36.84508237039603" lon="-108.11635601210602"><ele>1798.9999999999998</ele><time>2026-04-16T22:23:07Z</time></trkpt><trkpt lat="36.84518422396387" lon="-108.11628742088736"><ele>1799.9999999999998</ele><time>2026-04-16T22:23:08Z</time></trkpt><trkpt lat="36.84523523701499" lon="-108.11617075776742"><ele>1801.0</ele><time>2026-04-16T22:23:09Z</time></trkpt><trkpt lat="36.84527586245426" lon="-108.11608176558835"><ele>1802.0</ele><time>2026-04-16T22:23:10Z</time></trkpt><trkpt lat="36.84532509599962" lon="-108.11593299036534"><ele>1802.75</ele><time>2026-04-16T22:23:12Z</time></trkpt><trkpt lat="36.845256923698734" lon="-108.11579184282863"><ele>1803.5</ele><time>2026-04-16T22:23:14Z</time></trkpt><trkpt lat="36.8451709643317" lon="-108.11575377532081"><ele>1804.25</ele><time>2026-04-16T22:23:15Z</time></trkpt><trkpt lat="36.84506459732655" lon="-108.11569242518054"><ele>1805.0</ele><time>2026-04-16T22:23:16Z</time></trkpt><trkpt lat="36.84496850383932" lon="-108.11557776100476"><ele>1805.25</ele><time>2026-04-16T22:23:17Z</time></trkpt><trkpt lat="36.844891012410145" lon="-108.11548507224498"><ele>1805.5</ele><time>2026-04-16T22:23:18Z</time></trkpt><trkpt lat="36.84486690688804" lon="-108.11535274851566"><ele>1805.75</ele><time>2026-04-16T22:23:19Z</time></trkpt><trkpt lat="36.844844408858805" lon="-108.1151965190657"><ele>1806.0</ele><time>2026-04-16T22:23:20Z</time></trkpt><trkpt lat="36.84480622069289" lon="-108.11505222751548"><ele>1806.0</ele><time>2026-04-16T22:23:21Z</time></trkpt><trkpt lat="36.84479776876735" lon="-108.1149580662917"><ele>1806.0</ele><time>2026-04-16T22:23:22Z</time></trkpt><trkpt lat="36.84491439938006" lon="-108.11483078175678"><ele>1806.0</ele><time>2026-04-16T22:23:24Z</time></trkpt><trkpt lat="36.844985762731255" lon="-108.11476193134072"><ele>1806.0</ele><time>2026-04-16T22:23:25Z</time></trkpt><trkpt lat="36.84503411139682" lon="-108.11470086411285"><ele>1806.0</ele><time>2026-04-16T22:23:26Z</time></trkpt><trkpt lat="36.84493175368412" lon="-108.11455064322121"><ele>1807.0</ele><time>2026-04-16T22:23:27Z</time></trkpt><trkpt lat="36.844926272380235" lon="-108.11444632236251"><ele>1808.0</ele><time>2026-04-16T22:23:28Z</time></trkpt><trkpt lat="36.844981246597364" lon="-108.11432396150659"><ele>1809.0</ele><time>2026-04-16T22:23:29Z</time></trkpt><trkpt lat="36.84499139783862" lon="-108.11418801337325"><ele>1810.0</ele><time>2026-04-16T22:23:30Z</time></trkpt><trkpt lat="36.84496962100752" lon="-108.1140299273658"><ele>1811.0</ele><time>2026-04-16T22:23:31Z</time></trkpt><trkpt lat="36.844912262791354" lon="-108.11390665857684"><ele>1811.8333333333333</ele><time>2026-04-16T22:23:32Z</time></trkpt><trkpt lat="36.844871230126174" lon="-108.11383773365986"><ele>1812.6666666666665</ele><time>2026-04-16T22:23:33Z</time></trkpt><trkpt lat="36.84492213099653" lon="-108.1138990817085"><ele>1813.5</ele><time>2026-04-16T22:23:35Z</time></trkpt><trkpt lat="36.844835680803016" lon="-108.11386458958982"><ele>1814.3333333333335</ele><time>2026-04-16T22:24:12Z</time></trkpt><trkpt lat="36.844816147087066" lon="-108.11375733539133"><ele>1815.1666666666667</ele><time>2026-04-16T22:24:15Z</time></trkpt><trkpt lat="36.84488876935462" lon="-108.11368327513917"><ele>1816.0</ele><time>2026-04-16T22:24:17Z</time></trkpt><trkpt lat="36.84492537429564" lon="-108.11359131260753"><ele>1816.0</ele><time>2026-04-16T22:24:21Z</time></trkpt><trkpt lat="36.84481855973265" lon="-108.11348885171827"><ele>1816.0</ele><time>2026-04-16T22:24:23Z</time></trkpt><trkpt lat="36.84474295988044" lon="-108.11340997556688"><ele>1816.0</ele><time>2026-04-16T22:24:24Z</time></trkpt><trkpt lat="36.84466277276163" lon="-108.11330698590295"><ele>1816.0</ele><time>2026-04-16T22:24:25Z</time></trkpt><trkpt lat="36.84458844749967" lon="-108.11319510234719"><ele>1816.0</ele><time>2026-04-16T22:24:26Z</time></trkpt><trkpt lat="36.844529785503354" lon="-108.11305840677885"><ele>1816.0</ele><time>2026-04-16T22:24:27Z</time></trkpt><trkpt lat="36.844471921774826" lon="-108.11291514384313"><ele>1816.0</ele><time>2026-04-16T22:24:28Z</time></trkpt><trkpt lat="36.84440522466756" lon="-108.1127720117962"><ele>1816.0</ele><time>2026-04-16T22:24:29Z</time></trkpt><trkpt lat="36.84433640596778" lon="-108.11262210242072"><ele>1816.0</ele><time>2026-04-16T22:24:30Z</time></trkpt><trkpt lat="36.8442996809879" lon="-108.11242399531382"><ele>1816.0</ele><time>2026-04-16T22:24:31Z</time></trkpt><trkpt lat="36.844339897312764" lon="-108.11223662259266"><ele>1816.0</ele><time>2026-04-16T22:24:32Z</time></trkpt><trkpt lat="36.84436601391629" lon="-108.11203862782423"><ele>1816.5</ele><time>2026-04-16T22:24:33Z</time></trkpt><trkpt lat="36.84434578235114" lon="-108.11183337547678"><ele>1817.0</ele><time>2026-04-16T22:24:34Z</time></trkpt><trkpt lat="36.84430031223496" lon="-108.11164489017904"><ele>1817.5</ele><time>2026-04-16T22:24:35Z</time></trkpt><trkpt lat="36.84428056673099" lon="-108.11153246025356"><ele>1818.0</ele><time>2026-04-16T22:24:36Z</time></trkpt><trkpt lat="36.844240932304956" lon="-108.11145395885026"><ele>1817.2</ele><time>2026-04-16T22:24:37Z</time></trkpt><trkpt lat="36.844162446480645" lon="-108.11143162282895"><ele>1816.4</ele><time>2026-04-16T22:24:38Z</time></trkpt><trkpt lat="36.84406795732031" lon="-108.11142319389499"><ele>1815.6000000000001</ele><time>2026-04-16T22:24:39Z</time></trkpt><trkpt lat="36.84397681389273" lon="-108.11147916224914"><ele>1814.8000000000002</ele><time>2026-04-16T22:24:40Z</time></trkpt><trkpt lat="36.84388956598515" lon="-108.11152076921117"><ele>1814.0</ele><time>2026-04-16T22:24:41Z</time></trkpt><trkpt lat="36.843776864257904" lon="-108.11155694877733"><ele>1814.6</ele><time>2026-04-16T22:24:42Z</time></trkpt><trkpt lat="36.84367367185448" lon="-108.11160492967716"><ele>1815.2</ele><time>2026-04-16T22:24:43Z</time></trkpt><trkpt lat="36.843581793672705" lon="-108.11162905472165"><ele>1815.7999999999997</ele><time>2026-04-16T22:24:44Z</time></trkpt><trkpt lat="36.843495663109685" lon="-108.11161231883939"><ele>1816.3999999999999</ele><time>2026-04-16T22:24:45Z</time></trkpt><trkpt lat="36.84340860041443" lon="-108.11160253455601"><ele>1817.0</ele><time>2026-04-16T22:24:46Z</time></trkpt><trkpt lat="36.843331192316825" lon="-108.11160971229928"><ele>1815.3999999999999</ele><time>2026-04-16T22:24:47Z</time></trkpt><trkpt lat="36.84325512353497" lon="-108.11154882609483"><ele>1813.7999999999997</ele><time>2026-04-16T22:24:48Z</time></trkpt><trkpt lat="36.84314212407724" lon="-108.11147328569751"><ele>1812.2</ele><time>2026-04-16T22:24:49Z</time></trkpt><trkpt lat="36.8430651282001" lon="-108.11144786662007"><ele>1810.6</ele><time>2026-04-16T22:24:50Z</time></trkpt><trkpt lat="36.842970285033246" lon="-108.1113925073417"><ele>1809.0</ele><time>2026-04-16T22:24:51Z</time></trkpt><trkpt lat="36.8429094514517" lon="-108.11135522750843"><ele>1809.0</ele><time>2026-04-16T22:24:52Z</time></trkpt><trkpt lat="36.84288308161981" lon="-108.1112456488468"><ele>1809.0</ele><time>2026-04-16T22:24:54Z</time></trkpt><trkpt lat="36.84281627308697" lon="-108.11117065045566"><ele>1809.0</ele><time>2026-04-16T22:24:55Z</time></trkpt><trkpt lat="36.842723315712256" lon="-108.11108193855928"><ele>1809.0</ele><time>2026-04-16T22:24:56Z</time></trkpt><trkpt lat="36.84260725725986" lon="-108.11099077540895"><ele>1809.0</ele><time>2026-04-16T22:24:57Z</time></trkpt><trkpt lat="36.842483856188394" lon="-108.11086707351726"><ele>1808.0</ele><time>2026-04-16T22:24:58Z</time></trkpt><trkpt lat="36.84237224433338" lon="-108.11076075504549"><ele>1807.0</ele><time>2026-04-16T22:24:59Z</time></trkpt><trkpt lat="36.842287137499135" lon="-108.11068822002383"><ele>1806.0</ele><time>2026-04-16T22:25:00Z</time></trkpt><trkpt lat="36.84220477049155" lon="-108.11061711006147"><ele>1805.0</ele><time>2026-04-16T22:25:01Z</time></trkpt><trkpt lat="36.8421489138158" lon="-108.11055906066775"><ele>1804.0</ele><time>2026-04-16T22:25:02Z</time></trkpt><trkpt lat="36.8420890023991" lon="-108.1104898066631"><ele>1804.0000000000002</ele><time>2026-04-16T22:25:03Z</time></trkpt><trkpt lat="36.84205520086249" lon="-108.11042213620058"><ele>1804.0</ele><time>2026-04-16T22:25:04Z</time></trkpt><trkpt lat="36.8420738195595" lon="-108.1102941131831"><ele>1804.0</ele><time>2026-04-16T22:25:06Z</time></trkpt><trkpt lat="36.84209387912403" lon="-108.11021210709323"><ele>1804.0</ele><time>2026-04-16T22:25:07Z</time></trkpt><trkpt lat="36.84213476021782" lon="-108.11011413604476"><ele>1804.0000000000002</ele><time>2026-04-16T22:25:08Z</time></trkpt><trkpt lat="36.84217902184334" lon="-108.109990752838"><ele>1804.0</ele><time>2026-04-16T22:25:09Z</time></trkpt><trkpt lat="36.842220572497084" lon="-108.10987797320139"><ele>1804.6</ele><time>2026-04-16T22:25:10Z</time></trkpt><trkpt lat="36.84225305453631" lon="-108.10974502407035"><ele>1805.2</ele><time>2026-04-16T22:25:11Z</time></trkpt><trkpt lat="36.84224267052773" lon="-108.10961167459544"><ele>1805.7999999999997</ele><time>2026-04-16T22:25:12Z</time></trkpt><trkpt lat="36.84219117028116" lon="-108.10950771080404"><ele>1806.3999999999999</ele><time>2026-04-16T22:25:13Z</time></trkpt><trkpt lat="36.84217479017765" lon="-108.10940415681495"><ele>1807.0</ele><time>2026-04-16T22:25:14Z</time></trkpt><trkpt lat="36.84221866266179" lon="-108.10931947117074"><ele>1807.0</ele><time>2026-04-16T22:25:15Z</time></trkpt><trkpt lat="36.84228819664307" lon="-108.10922261341638"><ele>1806.9999999999998</ele><time>2026-04-16T22:25:16Z</time></trkpt><trkpt lat="36.84233820669003" lon="-108.10910128131755"><ele>1806.9999999999998</ele><time>2026-04-16T22:25:17Z</time></trkpt><trkpt lat="36.842349303052046" lon="-108.10895558277427"><ele>1807.0</ele><time>2026-04-16T22:25:18Z</time></trkpt><trkpt lat="36.84236977486302" lon="-108.10883434121698"><ele>1807.0</ele><time>2026-04-16T22:25:19Z</time></trkpt><trkpt lat="36.84241237187063" lon="-108.10871727457256"><ele>1805.3999999999999</ele><time>2026-04-16T22:25:20Z</time></trkpt><trkpt lat="36.84247030971575" lon="-108.10859399003765"><ele>1803.7999999999997</ele><time>2026-04-16T22:25:21Z</time></trkpt><trkpt lat="36.84250465428948" lon="-108.10847144930635"><ele>1802.2</ele><time>2026-04-16T22:25:22Z</time></trkpt><trkpt lat="36.84250475590041" lon="-108.10836235080704"><ele>1800.6</ele><time>2026-04-16T22:25:23Z</time></trkpt><trkpt lat="36.842467063849945" lon="-108.10825271649206"><ele>1799.0</ele><time>2026-04-16T22:25:24Z</time></trkpt><trkpt lat="36.84237849386163" lon="-108.1081660877098"><ele>1797.0</ele><time>2026-04-16T22:25:25Z</time></trkpt><trkpt lat="36.842254727237" lon="-108.10810716888311"><ele>1795.0</ele><time>2026-04-16T22:25:26Z</time></trkpt><trkpt lat="36.84211197366295" lon="-108.10805017434318"><ele>1793.0</ele><time>2026-04-16T22:25:27Z</time></trkpt><trkpt lat="36.84200219132963" lon="-108.10796272296157"><ele>1791.0</ele><time>2026-04-16T22:25:28Z</time></trkpt><trkpt lat="36.841923209264095" lon="-108.107866382059"><ele>1791.0</ele><time>2026-04-16T22:25:29Z</time></trkpt><trkpt lat="36.841851121374965" lon="-108.10778588703431"><ele>1791.0</ele><time>2026-04-16T22:25:30Z</time></trkpt><trkpt lat="36.84179865047469" lon="-108.10770836780137"><ele>1791.0</ele><time>2026-04-16T22:25:31Z</time></trkpt><trkpt lat="36.84178233004849" lon="-108.10753919340587"><ele>1791.0</ele><time>2026-04-16T22:25:33Z</time></trkpt><trkpt lat="36.84176389213064" lon="-108.10739323088843"><ele>1791.0</ele><time>2026-04-16T22:25:34Z</time></trkpt><trkpt lat="36.84172512952281" lon="-108.1072560981208"><ele>1790.4</ele><time>2026-04-16T22:25:35Z</time></trkpt><trkpt lat="36.84170266154025" lon="-108.10716890956867"><ele>1789.8</ele><time>2026-04-16T22:25:36Z</time></trkpt><trkpt lat="36.84181120191756" lon="-108.10708612892009"><ele>1789.2000000000003</ele><time>2026-04-16T22:25:38Z</time></trkpt><trkpt lat="36.841872087993494" lon="-108.10699671845171"><ele>1788.6000000000001</ele><time>2026-04-16T22:25:39Z</time></trkpt><trkpt lat="36.84195432335087" lon="-108.10685282197821"><ele>1788.0</ele><time>2026-04-16T22:25:40Z</time></trkpt><trkpt lat="36.8420554931507" lon="-108.10672371914934"><ele>1788.0</ele><time>2026-04-16T22:25:41Z</time></trkpt><trkpt lat="36.842197538338525" lon="-108.10659030197215"><ele>1788.0</ele><time>2026-04-16T22:25:42Z</time></trkpt><trkpt lat="36.84229523964517" lon="-108.10644907312579"><ele>1788.0</ele><time>2026-04-16T22:25:43Z</time></trkpt><trkpt lat="36.84234137317291" lon="-108.10629953075377"><ele>1787.6000000000001</ele><time>2026-04-16T22:25:44Z</time></trkpt><trkpt lat="36.84237015951758" lon="-108.10615310953631"><ele>1787.2000000000003</ele><time>2026-04-16T22:25:45Z</time></trkpt><trkpt lat="36.8423885181164" lon="-108.1060411724626"><ele>1786.8</ele><time>2026-04-16T22:25:46Z</time></trkpt><trkpt lat="36.84238462474616" lon="-108.10595481769631"><ele>1786.4</ele><time>2026-04-16T22:25:47Z</time></trkpt><trkpt lat="36.84232393583489" lon="-108.10586021253746"><ele>1786.0</ele><time>2026-04-16T22:25:48Z</time></trkpt><trkpt lat="36.84223462482001" lon="-108.10576695380833"><ele>1785.8</ele><time>2026-04-16T22:25:49Z</time></trkpt><trkpt lat="36.84214399075837" lon="-108.10565271772312"><ele>1785.6</ele><time>2026-04-16T22:25:50Z</time></trkpt><trkpt lat="36.842073563688025" lon="-108.10553599463474"><ele>1785.4</ele><time>2026-04-16T22:25:51Z</time></trkpt><trkpt lat="36.84202044502499" lon="-108.10544331278702"><ele>1785.2</ele><time>2026-04-16T22:25:52Z</time></trkpt><trkpt lat="36.841977336877854" lon="-108.10538065179678"><ele>1785.0</ele><time>2026-04-16T22:25:53Z</time></trkpt><trkpt lat="36.841886258657844" lon="-108.10535033636192"><ele>1784.4</ele><time>2026-04-16T22:25:55Z</time></trkpt><trkpt lat="36.84176879665527" lon="-108.10537012906154"><ele>1783.8</ele><time>2026-04-16T22:25:57Z</time></trkpt><trkpt lat="36.84169602629092" lon="-108.10537630639605"><ele>1783.1999999999998</ele><time>2026-04-16T22:25:58Z</time></trkpt><trkpt lat="36.84158608417385" lon="-108.10538741722733"><ele>1782.6</ele><time>2026-04-16T22:25:59Z</time></trkpt><trkpt lat="36.84147889999312" lon="-108.10543524773365"><ele>1782.0</ele><time>2026-04-16T22:26:00Z</time></trkpt><trkpt lat="36.84144991969732" lon="-108.10551758190185"><ele>1782.0</ele><time>2026-04-16T22:26:01Z</time></trkpt><trkpt lat="36.841480723396195" lon="-108.10566334626573"><ele>1782.0</ele><time>2026-04-16T22:26:02Z</time></trkpt><trkpt lat="36.84155597069869" lon="-108.10576196885054"><ele>1782.0</ele><time>2026-04-16T22:26:03Z</time></trkpt><trkpt lat="36.84167206608194" lon="-108.10575843087402"><ele>1782.0</ele><time>2026-04-16T22:26:04Z</time></trkpt><trkpt lat="36.84178421992365" lon="-108.10567663322718"><ele>1782.6</ele><time>2026-04-16T22:26:05Z</time></trkpt><trkpt lat="36.84186598201054" lon="-108.10556659002283"><ele>1783.1999999999998</ele><time>2026-04-16T22:26:06Z</time></trkpt><trkpt lat="36.84190312525467" lon="-108.1054850236551"><ele>1783.8</ele><time>2026-04-16T22:26:07Z</time></trkpt><trkpt lat="36.84197695285154" lon="-108.1055450823088"><ele>1784.4</ele><time>2026-04-16T22:26:10Z</time></trkpt><trkpt lat="36.842090646592304" lon="-108.10554729604601"><ele>1785.0</ele><time>2026-04-16T22:26:12Z</time></trkpt><trkpt lat="36.842040163533134" lon="-108.10541885841775"><ele>1785.0</ele><time>2026-04-16T22:26:15Z</time></trkpt><trkpt lat="36.8420154798917" lon="-108.10534292815565"><ele>1785.0</ele><time>2026-04-16T22:26:16Z</time></trkpt><trkpt lat="36.842036349092375" lon="-108.10522588041759"><ele>1785.0</ele><time>2026-04-16T22:26:18Z</time></trkpt><trkpt lat="36.84209962062445" lon="-108.10514728847782"><ele>1785.0</ele><time>2026-04-16T22:26:19Z</time></trkpt><trkpt lat="36.84221087698234" lon="-108.10509952738238"><ele>1785.0</ele><time>2026-04-16T22:26:20Z</time></trkpt><trkpt lat="36.8423309353417" lon="-108.10507667539095"><ele>1785.0</ele><time>2026-04-16T22:26:21Z</time></trkpt><trkpt lat="36.842453358287806" lon="-108.10510502596777"><ele>1785.0</ele><time>2026-04-16T22:26:22Z</time></trkpt><trkpt lat="36.8425555229025" lon="-108.10516830370001"><ele>1785.0</ele><time>2026-04-16T22:26:23Z</time></trkpt><trkpt lat="36.842619631607654" lon="-108.10519851175168"><ele>1785.0</ele><time>2026-04-16T22:26:24Z</time></trkpt><trkpt lat="36.84268458260862" lon="-108.10512372984485"><ele>1785.0</ele><time>2026-04-16T22:26:26Z</time></trkpt><trkpt lat="36.842715378373306" lon="-108.10505285806097"><ele>1786.0</ele><time>2026-04-16T22:26:27Z</time></trkpt><trkpt lat="36.84280168427021" lon="-108.10499549956816"><ele>1787.0</ele><time>2026-04-16T22:26:28Z</time></trkpt><trkpt lat="36.84289378096648" lon="-108.10492352268433"><ele>1788.0</ele><time>2026-04-16T22:26:29Z</time></trkpt><trkpt lat="36.84295336950487" lon="-108.10486876953517"><ele>1789.0</ele><time>2026-04-16T22:26:30Z</time></trkpt><trkpt lat="36.842980362668975" lon="-108.10478306596848"><ele>1790.0</ele><time>2026-04-16T22:26:32Z</time></trkpt><trkpt lat="36.84288894065427" lon="-108.10471639309185"><ele>1789.9999999999998</ele><time>2026-04-16T22:26:34Z</time></trkpt><trkpt lat="36.84281492934488" lon="-108.1046928814127"><ele>1790.0</ele><time>2026-04-16T22:26:35Z</time></trkpt><trkpt lat="36.84275231678396" lon="-108.1046390049763"><ele>1790.0</ele><time>2026-04-16T22:26:36Z</time></trkpt><trkpt lat="36.84270343034122" lon="-108.10456197874583"><ele>1790.0</ele><time>2026-04-16T22:26:37Z</time></trkpt><trkpt lat="36.84269942935536" lon="-108.10446047470403"><ele>1789.9999999999998</ele><time>2026-04-16T22:26:38Z</time></trkpt><trkpt lat="36.84275032774142" lon="-108.10433524703184"><ele>1790.0</ele><time>2026-04-16T22:26:39Z</time></trkpt><trkpt lat="36.842810237109624" lon="-108.10419946760354"><ele>1789.25</ele><time>2026-04-16T22:26:40Z</time></trkpt><trkpt lat="36.84286278240341" lon="-108.10404060460297"><ele>1788.5</ele><time>2026-04-16T22:26:41Z</time></trkpt><trkpt lat="36.842917466686096" lon="-108.10386610555295"><ele>1787.75</ele><time>2026-04-16T22:26:42Z</time></trkpt><trkpt lat="36.84296062213779" lon="-108.10369025673734"><ele>1787.0</ele><time>2026-04-16T22:26:43Z</time></trkpt><trkpt lat="36.84303454979793" lon="-108.10346615942686"><ele>1788.3333333333333</ele><time>2026-04-16T22:26:44Z</time></trkpt><trkpt lat="36.84310522576691" lon="-108.10324246629172"><ele>1789.6666666666665</ele><time>2026-04-16T22:26:45Z</time></trkpt><trkpt lat="36.843172745125706" lon="-108.10300734847942"><ele>1791.0</ele><time>2026-04-16T22:26:46Z</time></trkpt><trkpt lat="36.8432478750787" lon="-108.10274150141274"><ele>1791.0</ele><time>2026-04-16T22:26:47Z</time></trkpt><trkpt lat="36.84331344753037" lon="-108.10251000829454"><ele>1791.0</ele><time>2026-04-16T22:26:48Z</time></trkpt><trkpt lat="36.843362868292274" lon="-108.10236642004043"><ele>1791.0</ele><time>2026-04-16T22:26:49Z</time></trkpt><trkpt lat="36.84340367018965" lon="-108.10225351191322"><ele>1791.0</ele><time>2026-04-16T22:26:50Z</time></trkpt><trkpt lat="36.843440106077665" lon="-108.10212015572382"><ele>1792.0</ele><time>2026-04-16T22:26:51Z</time></trkpt><trkpt lat="36.84347882192461" lon="-108.10199440743159"><ele>1793.0</ele><time>2026-04-16T22:26:52Z</time></trkpt><trkpt lat="36.84349214944146" lon="-108.10189268147094"><ele>1794.0</ele><time>2026-04-16T22:26:53Z</time></trkpt><trkpt lat="36.84347179014841" lon="-108.10179940932498"><ele>1795.0</ele><time>2026-04-16T22:26:54Z</time></trkpt><trkpt lat="36.84346259218036" lon="-108.10165857568957"><ele>1796.0</ele><time>2026-04-16T22:26:55Z</time></trkpt><trkpt lat="36.84347169466002" lon="-108.10154556274239"><ele>1797.4</ele><time>2026-04-16T22:26:56Z</time></trkpt><trkpt lat="36.84351794777208" lon="-108.10145114822903"><ele>1798.8</ele><time>2026-04-16T22:26:57Z</time></trkpt><trkpt lat="36.84352351063751" lon="-108.10132087522149"><ele>1800.2000000000003</ele><time>2026-04-16T22:26:58Z</time></trkpt><trkpt lat="36.84349405864364" lon="-108.10120369493919"><ele>1801.6000000000001</ele><time>2026-04-16T22:26:59Z</time></trkpt><trkpt lat="36.843469404832106" lon="-108.10111439358852"><ele>1803.0</ele><time>2026-04-16T22:27:00Z</time></trkpt><trkpt lat="36.843484325292025" lon="-108.10100264190484"><ele>1803.0</ele><time>2026-04-16T22:27:01Z</time></trkpt><trkpt lat="36.84350818009021" lon="-108.10090062494669"><ele>1803.0</ele><time>2026-04-16T22:27:02Z</time></trkpt><trkpt lat="36.84356222898764" lon="-108.10083101560272"><ele>1803.0</ele><time>2026-04-16T22:27:03Z</time></trkpt><trkpt lat="36.843590722627305" lon="-108.10074329381544"><ele>1803.0</ele><time>2026-04-16T22:27:04Z</time></trkpt><trkpt lat="36.84358861731151" lon="-108.10064085068426"><ele>1803.0</ele><time>2026-04-16T22:27:05Z</time></trkpt><trkpt lat="36.84360587681401" lon="-108.10054034848726"><ele>1803.0</ele><time>2026-04-16T22:27:06Z</time></trkpt><trkpt lat="36.84368191949146" lon="-108.10049266563468"><ele>1803.8000000000002</ele><time>2026-04-16T22:27:07Z</time></trkpt><trkpt lat="36.8437792338057" lon="-108.10043073341481"><ele>1804.6000000000001</ele><time>2026-04-16T22:27:08Z</time></trkpt><trkpt lat="36.84386524665911" lon="-108.10035337080065"><ele>1805.3999999999999</ele><time>2026-04-16T22:27:09Z</time></trkpt><trkpt lat="36.8439577867826" lon="-108.1002948816719"><ele>1806.1999999999998</ele><time>2026-04-16T22:27:10Z</time></trkpt><trkpt lat="36.844002558389455" lon="-108.10020199444052"><ele>1807.0</ele><time>2026-04-16T22:27:11Z</time></trkpt><trkpt lat="36.8440434882564" lon="-108.10012700145893"><ele>1807.0000000000002</ele><time>2026-04-16T22:27:12Z</time></trkpt><trkpt lat="36.844142620518745" lon="-108.10007325776607"><ele>1807.0</ele><time>2026-04-16T22:27:13Z</time></trkpt><trkpt lat="36.8442233914548" lon="-108.10006825607995"><ele>1807.0</ele><time>2026-04-16T22:27:14Z</time></trkpt><trkpt lat="36.84429048215052" lon="-108.10003309324655"><ele>1807.0</ele><time>2026-04-16T22:27:15Z</time></trkpt><trkpt lat="36.84434406686179" lon="-108.0999725052603"><ele>1807.0000000000002</ele><time>2026-04-16T22:27:16Z</time></trkpt><trkpt lat="36.8444151123417" lon="-108.09991449396671"><ele>1807.0</ele><time>2026-04-16T22:27:17Z</time></trkpt><trkpt lat="36.84450199636174" lon="-108.09989997110668"><ele>1807.0</ele><time>2026-04-16T22:27:18Z</time></trkpt><trkpt lat="36.84457565687854" lon="-108.09990848671578"><ele>1806.9999999999998</ele><time>2026-04-16T22:27:19Z</time></trkpt><trkpt lat="36.84462707818106" lon="-108.09999213918171"><ele>1806.9999999999998</ele><time>2026-04-16T22:27:20Z</time></trkpt><trkpt lat="36.84468405423976" lon="-108.1001266426421"><ele>1807.0</ele><time>2026-04-16T22:27:21Z</time></trkpt><trkpt lat="36.844791742889925" lon="-108.10022604513772"><ele>1807.0</ele><time>2026-04-16T22:27:22Z</time></trkpt><trkpt lat="36.84488871350288" lon="-108.10027791722084"><ele>1806.8</ele><time>2026-04-16T22:27:23Z</time></trkpt><trkpt lat="36.84495810593494" lon="-108.1003221988745"><ele>1806.6</ele><time>2026-04-16T22:27:24Z</time></trkpt><trkpt lat="36.84502455793038" lon="-108.10025989446072"><ele>1806.3999999999999</ele><time>2026-04-16T22:27:25Z</time></trkpt><trkpt lat="36.84512921129235" lon="-108.10019546492838"><ele>1806.1999999999998</ele><time>2026-04-16T22:27:26Z</time></trkpt><trkpt lat="36.845237212793734" lon="-108.10016343271683"><ele>1806.0</ele><time>2026-04-16T22:27:27Z</time></trkpt><trkpt lat="36.8453404886219" lon="-108.10018529358183"><ele>1805.8</ele><time>2026-04-16T22:27:28Z</time></trkpt><trkpt lat="36.84541148531718" lon="-108.10014007119572"><ele>1805.6</ele><time>2026-04-16T22:27:29Z</time></trkpt><trkpt lat="36.84549235996422" lon="-108.10005122860225"><ele>1805.4</ele><time>2026-04-16T22:27:30Z</time></trkpt><trkpt lat="36.84558731371861" lon="-108.09998300343605"><ele>1805.2</ele><time>2026-04-16T22:27:31Z</time></trkpt><trkpt lat="36.845698784215095" lon="-108.09988517251222"><ele>1805.0</ele><time>2026-04-16T22:27:32Z</time></trkpt><trkpt lat="36.84578578722622" lon="-108.09981840468183"><ele>1804.25</ele><time>2026-04-16T22:27:33Z</time></trkpt><trkpt lat="36.84588653897772" lon="-108.0999516717713"><ele>1803.5</ele><time>2026-04-16T22:27:35Z</time></trkpt><trkpt lat="36.84595607935029" lon="-108.1000570489049"><ele>1802.75</ele><time>2026-04-16T22:27:36Z</time></trkpt><trkpt lat="36.84608438771208" lon="-108.10008226792382"><ele>1802.0</ele><time>2026-04-16T22:27:37Z</time></trkpt><trkpt lat="36.84623735861932" lon="-108.1000966583874"><ele>1802.0</ele><time>2026-04-16T22:27:38Z</time></trkpt><trkpt lat="36.846366425686824" lon="-108.10012094729345"><ele>1802.0</ele><time>2026-04-16T22:27:39Z</time></trkpt><trkpt lat="36.84649378975721" lon="-108.10014688817527"><ele>1802.0</ele><time>2026-04-16T22:27:40Z</time></trkpt><trkpt lat="36.846634297267045" lon="-108.10016028519755"><ele>1802.0</ele><time>2026-04-16T22:27:41Z</time></trkpt><trkpt lat="36.84675704738562" lon="-108.10014972303917"><ele>1802.25</ele><time>2026-04-16T22:27:42Z</time></trkpt><trkpt lat="36.846832326183325" lon="-108.10005813051447"><ele>1802.5</ele><time>2026-04-16T22:27:43Z</time></trkpt><trkpt lat="36.84688468576925" lon="-108.09991996229414"><ele>1802.75</ele><time>2026-04-16T22:27:44Z</time></trkpt><trkpt lat="36.84690777225212" lon="-108.09978874290283"><ele>1803.0</ele><time>2026-04-16T22:27:45Z</time></trkpt><trkpt lat="36.84695029993059" lon="-108.0996458671733"><ele>1803.0</ele><time>2026-04-16T22:27:46Z</time></trkpt><trkpt lat="36.84707795370658" lon="-108.0995326413238"><ele>1803.0</ele><time>2026-04-16T22:27:47Z</time></trkpt><trkpt lat="36.84721972722221" lon="-108.09943275455653"><ele>1803.0</ele><time>2026-04-16T22:27:48Z</time></trkpt><trkpt lat="36.84734543972347" lon="-108.09932311935312"><ele>1803.0</ele><time>2026-04-16T22:27:49Z</time></trkpt><trkpt lat="36.84744708207879" lon="-108.09919397233602"><ele>1803.0</ele><time>2026-04-16T22:27:50Z</time></trkpt><trkpt lat="36.84751523014728" lon="-108.09901853539296"><ele>1803.0</ele><time>2026-04-16T22:27:51Z</time></trkpt><trkpt lat="36.847580995936845" lon="-108.09882433888217"><ele>1804.3333333333335</ele><time>2026-04-16T22:27:52Z</time></trkpt><trkpt lat="36.84770091228759" lon="-108.09865272759316"><ele>1805.6666666666667</ele><time>2026-04-16T22:27:53Z</time></trkpt><trkpt lat="36.847840629808076" lon="-108.09851083108244"><ele>1807.0</ele><time>2026-04-16T22:27:54Z</time></trkpt><trkpt lat="36.84796261299893" lon="-108.09838419372753"><ele>1807.0</ele><time>2026-04-16T22:27:55Z</time></trkpt><trkpt lat="36.84804893973813" lon="-108.0983439831817"><ele>1806.9999999999998</ele><time>2026-04-16T22:27:56Z</time></trkpt><trkpt lat="36.84814100895301" lon="-108.09831101188973"><ele>1806.9999999999998</ele><time>2026-04-16T22:27:57Z</time></trkpt><trkpt lat="36.84823961569536" lon="-108.09824269907955"><ele>1807.0</ele><time>2026-04-16T22:27:58Z</time></trkpt><trkpt lat="36.84831982499498" lon="-108.09817124306176"><ele>1807.0</ele><time>2026-04-16T22:27:59Z</time></trkpt><trkpt lat="36.84840865468408" lon="-108.09816442513184"><ele>1808.1999999999998</ele><time>2026-04-16T22:28:00Z</time></trkpt><trkpt lat="36.848510371700236" lon="-108.0981117558753"><ele>1809.3999999999999</ele><time>2026-04-16T22:28:01Z</time></trkpt><trkpt lat="36.8486167218247" lon="-108.09807157473732"><ele>1810.6000000000001</ele><time>2026-04-16T22:28:02Z</time></trkpt><trkpt lat="36.84869191360974" lon="-108.0980804255134"><ele>1811.8000000000002</ele><time>2026-04-16T22:28:03Z</time></trkpt><trkpt lat="36.8488027617165" lon="-108.09808378239359"><ele>1813.0</ele><time>2026-04-16T22:28:04Z</time></trkpt><trkpt lat="36.8489312398267" lon="-108.09803471571347"><ele>1813.0</ele><time>2026-04-16T22:28:05Z</time></trkpt><trkpt lat="36.849023170761754" lon="-108.09800489728676"><ele>1813.0000000000002</ele><time>2026-04-16T22:28:06Z</time></trkpt><trkpt lat="36.84903414884373" lon="-108.09790549060206"><ele>1813.0000000000002</ele><time>2026-04-16T22:28:08Z</time></trkpt><trkpt lat="36.84904081901492" lon="-108.09776244107078"><ele>1813.0</ele><time>2026-04-16T22:28:09Z</time></trkpt><trkpt lat="36.84907445642686" lon="-108.09763591614993"><ele>1813.0</ele><time>2026-04-16T22:28:10Z</time></trkpt><trkpt lat="36.84920657952946" lon="-108.09764030560814"><ele>1813.0</ele><time>2026-04-16T22:28:12Z</time></trkpt><trkpt lat="36.849306804123444" lon="-108.09766221478287"><ele>1813.0</ele><time>2026-04-16T22:28:13Z</time></trkpt><trkpt lat="36.849414822581025" lon="-108.09760050297632"><ele>1813.0</ele><time>2026-04-16T22:28:14Z</time></trkpt><trkpt lat="36.84953131170223" lon="-108.09756878072355"><ele>1813.0</ele><time>2026-04-16T22:28:15Z</time></trkpt><trkpt lat="36.849677075744616" lon="-108.09749785439486"><ele>1813.0</ele><time>2026-04-16T22:28:16Z</time></trkpt><trkpt lat="36.849815219740634" lon="-108.0974332300996"><ele>1813.0</ele><time>2026-04-16T22:28:17Z</time></trkpt><trkpt lat="36.849923990981274" lon="-108.09738508292321"><ele>1813.0</ele><time>2026-04-16T22:28:18Z</time></trkpt><trkpt lat="36.850028871082856" lon="-108.09730409335398"><ele>1813.0</ele><time>2026-04-16T22:28:19Z</time></trkpt><trkpt lat="36.85008955151585" lon="-108.09715095449964"><ele>1814.75</ele><time>2026-04-16T22:28:20Z</time></trkpt><trkpt lat="36.850067654975504" lon="-108.09698057826246"><ele>1816.5</ele><time>2026-04-16T22:28:21Z</time></trkpt><trkpt lat="36.850076619146435" lon="-108.09683766063479"><ele>1818.25</ele><time>2026-04-16T22:28:22Z</time></trkpt><trkpt lat="36.85015024078647" lon="-108.09670499738725"><ele>1820.0</ele><time>2026-04-16T22:28:23Z</time></trkpt><trkpt lat="36.85019740125801" lon="-108.09655846239446"><ele>1820.8</ele><time>2026-04-16T22:28:24Z</time></trkpt><trkpt lat="36.85023122633158" lon="-108.09641166060173"><ele>1821.6</ele><time>2026-04-16T22:28:25Z</time></trkpt><trkpt lat="36.85028736550993" lon="-108.09631974707216"><ele>1822.4</ele><time>2026-04-16T22:28:26Z</time></trkpt><trkpt lat="36.85036583264744" lon="-108.09625781287673"><ele>1823.2</ele><time>2026-04-16T22:28:27Z</time></trkpt><trkpt lat="36.85044855393461" lon="-108.0961847280253"><ele>1824.0</ele><time>2026-04-16T22:28:28Z</time></trkpt><trkpt lat="36.850493195897066" lon="-108.09610993054206"><ele>1824.0</ele><time>2026-04-16T22:28:29Z</time></trkpt><trkpt lat="36.85050730471373" lon="-108.09598188456272"><ele>1824.0</ele><time>2026-04-16T22:28:30Z</time></trkpt><trkpt lat="36.85052484725363" lon="-108.09585619032569"><ele>1824.0</ele><time>2026-04-16T22:28:31Z</time></trkpt><trkpt lat="36.850648012248996" lon="-108.09583456825032"><ele>1824.0</ele><time>2026-04-16T22:28:33Z</time></trkpt><trkpt lat="36.850729672241314" lon="-108.09577222969355"><ele>1824.0</ele><time>2026-04-16T22:28:34Z</time></trkpt><trkpt lat="36.850764790116536" lon="-108.09566237964688"><ele>1825.6</ele><time>2026-04-16T22:28:35Z</time></trkpt><trkpt lat="36.85079972513036" lon="-108.09553152294248"><ele>1827.2</ele><time>2026-04-16T22:28:36Z</time></trkpt><trkpt lat="36.85082568117884" lon="-108.09539879155795"><ele>1828.7999999999997</ele><time>2026-04-16T22:28:37Z</time></trkpt><trkpt lat="36.85085029435512" lon="-108.09529959495681"><ele>1830.3999999999999</ele><time>2026-04-16T22:28:38Z</time></trkpt><trkpt lat="36.85089090842983" lon="-108.09519266672156"><ele>1832.0</ele><time>2026-04-16T22:28:39Z</time></trkpt><trkpt lat="36.85093089750719" lon="-108.09507591112984"><ele>1832.0</ele><time>2026-04-16T22:28:40Z</time></trkpt><trkpt lat="36.85095614144814" lon="-108.09494514402306"><ele>1831.9999999999998</ele><time>2026-04-16T22:28:41Z</time></trkpt><trkpt lat="36.85100310119652" lon="-108.09484613055204"><ele>1831.9999999999998</ele><time>2026-04-16T22:28:42Z</time></trkpt><trkpt lat="36.85106508818429" lon="-108.0947953881092"><ele>1832.0</ele><time>2026-04-16T22:28:43Z</time></trkpt><trkpt lat="36.85115563534302" lon="-108.09480513043395"><ele>1832.0</ele><time>2026-04-16T22:28:44Z</time></trkpt><trkpt lat="36.85129210727635" lon="-108.09481127945298"><ele>1833.0</ele><time>2026-04-16T22:28:45Z</time></trkpt><trkpt lat="36.85141290983615" lon="-108.0947763482959"><ele>1833.9999999999998</ele><time>2026-04-16T22:28:46Z</time></trkpt><trkpt lat="36.85150833669651" lon="-108.0947341370194"><ele>1834.9999999999998</ele><time>2026-04-16T22:28:47Z</time></trkpt><trkpt lat="36.851608558053606" lon="-108.09471413776575"><ele>1836.0</ele><time>2026-04-16T22:28:48Z</time></trkpt><trkpt lat="36.85169225257249" lon="-108.09468483687517"><ele>1837.0</ele><time>2026-04-16T22:28:49Z</time></trkpt><trkpt lat="36.8517797911626" lon="-108.09457331457355"><ele>1837.75</ele><time>2026-04-16T22:28:50Z</time></trkpt><trkpt lat="36.85190902432053" lon="-108.09447988288245"><ele>1838.5</ele><time>2026-04-16T22:28:51Z</time></trkpt><trkpt lat="36.852044655650545" lon="-108.09444427969059"><ele>1839.25</ele><time>2026-04-16T22:28:52Z</time></trkpt><trkpt lat="36.85215348574961" lon="-108.09441581009536"><ele>1840.0</ele><time>2026-04-16T22:28:53Z</time></trkpt><trkpt lat="36.85221581932032" lon="-108.09446075010524"><ele>1840.0</ele><time>2026-04-16T22:28:55Z</time></trkpt><trkpt lat="36.85220239593883" lon="-108.0946069145918"><ele>1840.0</ele><time>2026-04-16T22:28:56Z</time></trkpt><trkpt lat="36.85220151633847" lon="-108.0947517407054"><ele>1840.0</ele><time>2026-04-16T22:28:57Z</time></trkpt><trkpt lat="36.85223915185702" lon="-108.09484452577912"><ele>1840.0</ele><time>2026-04-16T22:28:58Z</time></trkpt><trkpt lat="36.85229590171482" lon="-108.09491066538375"><ele>1840.0</ele><time>2026-04-16T22:28:59Z</time></trkpt><trkpt lat="36.85237228395633" lon="-108.09495541450632"><ele>1839.6</ele><time>2026-04-16T22:29:00Z</time></trkpt><trkpt lat="36.852467892416925" lon="-108.0949776328457"><ele>1839.2</ele><time>2026-04-16T22:29:01Z</time></trkpt><trkpt lat="36.85254885521155" lon="-108.0950374299432"><ele>1838.8000000000002</ele><time>2026-04-16T22:29:02Z</time></trkpt><trkpt lat="36.85260630908438" lon="-108.0951409669784"><ele>1838.4</ele><time>2026-04-16T22:29:03Z</time></trkpt><trkpt lat="36.85267314563982" lon="-108.0952200442071"><ele>1838.0</ele><time>2026-04-16T22:29:04Z</time></trkpt><trkpt lat="36.85277642245795" lon="-108.09525200930229"><ele>1839.3333333333333</ele><time>2026-04-16T22:29:05Z</time></trkpt><trkpt lat="36.85283314156584" lon="-108.09530590843922"><ele>1840.6666666666665</ele><time>2026-04-16T22:29:06Z</time></trkpt><trkpt lat="36.85288794230164" lon="-108.09538210560466"><ele>1842.0</ele><time>2026-04-16T22:29:07Z</time></trkpt><trkpt lat="36.85293994819459" lon="-108.09548180031511"><ele>1843.3333333333335</ele><time>2026-04-16T22:29:08Z</time></trkpt><trkpt lat="36.852981274490396" lon="-108.09559343895367"><ele>1844.6666666666667</ele><time>2026-04-16T22:29:09Z</time></trkpt><trkpt lat="36.853054586958365" lon="-108.0956591296536"><ele>1846.0</ele><time>2026-04-16T22:29:10Z</time></trkpt><trkpt lat="36.85315191020963" lon="-108.09562340223043"><ele>1846.0</ele><time>2026-04-16T22:29:11Z</time></trkpt><trkpt lat="36.853238025492466" lon="-108.0955370585132"><ele>1846.0</ele><time>2026-04-16T22:29:12Z</time></trkpt><trkpt lat="36.853290938207095" lon="-108.09543131338422"><ele>1846.0</ele><time>2026-04-16T22:29:13Z</time></trkpt><trkpt lat="36.853339841309804" lon="-108.09536832490782"><ele>1846.0</ele><time>2026-04-16T22:29:14Z</time></trkpt><trkpt lat="36.853441715030485" lon="-108.09533516220891"><ele>1846.0</ele><time>2026-04-16T22:29:15Z</time></trkpt><trkpt lat="36.853518986185435" lon="-108.09528744180757"><ele>1847.4</ele><time>2026-04-16T22:29:16Z</time></trkpt><trkpt lat="36.853567318089304" lon="-108.09519135133087"><ele>1848.8</ele><time>2026-04-16T22:29:17Z</time></trkpt><trkpt lat="36.8536425740624" lon="-108.09511495336223"><ele>1850.2000000000003</ele><time>2026-04-16T22:29:18Z</time></trkpt><trkpt lat="36.8537594122151" lon="-108.09506042343715"><ele>1851.6000000000001</ele><time>2026-04-16T22:29:19Z</time></trkpt><trkpt lat="36.85385993899232" lon="-108.09501503928641"><ele>1853.0</ele><time>2026-04-16T22:29:20Z</time></trkpt><trkpt lat="36.853952656061935" lon="-108.0950047344236"><ele>1853.0</ele><time>2026-04-16T22:29:21Z</time></trkpt><trkpt lat="36.85405298784383" lon="-108.09495181654655"><ele>1853.0000000000002</ele><time>2026-04-16T22:29:22Z</time></trkpt><trkpt lat="36.85414474379623" lon="-108.09486922497109"><ele>1853.0000000000002</ele><time>2026-04-16T22:29:23Z</time></trkpt><trkpt lat="36.85422371649038" lon="-108.0948120777013"><ele>1853.0</ele><time>2026-04-16T22:29:24Z</time></trkpt><trkpt lat="36.85431748265191" lon="-108.09479691260259"><ele>1853.0</ele><time>2026-04-16T22:29:25Z</time></trkpt><trkpt lat="36.854431209072864" lon="-108.09480397798862"><ele>1854.0</ele><time>2026-04-16T22:29:26Z</time></trkpt><trkpt lat="36.85452910533566" lon="-108.09482008731455"><ele>1855.0000000000002</ele><time>2026-04-16T22:29:27Z</time></trkpt><trkpt lat="36.854596989346746" lon="-108.0948619059642"><ele>1856.0000000000002</ele><time>2026-04-16T22:29:28Z</time></trkpt><trkpt lat="36.85459395137249" lon="-108.09495093828887"><ele>1857.0</ele><time>2026-04-16T22:29:29Z</time></trkpt><trkpt lat="36.85471940761496" lon="-108.09495633348904"><ele>1858.0</ele><time>2026-04-16T22:29:32Z</time></trkpt><trkpt lat="36.85483294204567" lon="-108.0949324976828"><ele>1858.0000000000002</ele><time>2026-04-16T22:29:33Z</time></trkpt><trkpt lat="36.854901748417554" lon="-108.0949497593848"><ele>1858.0</ele><time>2026-04-16T22:29:34Z</time></trkpt><trkpt lat="36.85496646406738" lon="-108.09494944743128"><ele>1858.0</ele><time>2026-04-16T22:29:35Z</time></trkpt><trkpt lat="36.85508077034989" lon="-108.09490659255938"><ele>1858.0</ele><time>2026-04-16T22:29:37Z</time></trkpt><trkpt lat="36.85516354755043" lon="-108.09484573655354"><ele>1858.0000000000002</ele><time>2026-04-16T22:29:38Z</time></trkpt><trkpt lat="36.8552280006784" lon="-108.09484017975073"><ele>1858.0</ele><time>2026-04-16T22:29:39Z</time></trkpt><trkpt lat="36.85529274505204" lon="-108.09490025479148"><ele>1859.8000000000002</ele><time>2026-04-16T22:29:40Z</time></trkpt><trkpt lat="36.85532828024547" lon="-108.09499051225853"><ele>1861.6000000000001</ele><time>2026-04-16T22:29:41Z</time></trkpt><trkpt lat="36.855371121014144" lon="-108.09505454734844"><ele>1863.3999999999999</ele><time>2026-04-16T22:29:42Z</time></trkpt><trkpt lat="36.855545317510504" lon="-108.0950819676721"><ele>1865.1999999999998</ele><time>2026-04-16T22:29:44Z</time></trkpt><trkpt lat="36.85563920676074" lon="-108.09515121655365"><ele>1867.0</ele><time>2026-04-16T22:29:45Z</time></trkpt><trkpt lat="36.855702957319515" lon="-108.0952218297945"><ele>1867.0000000000002</ele><time>2026-04-16T22:29:46Z</time></trkpt><trkpt lat="36.85577952180394" lon="-108.09525527007527"><ele>1867.0</ele><time>2026-04-16T22:29:47Z</time></trkpt><trkpt lat="36.85584112914891" lon="-108.09532157034258"><ele>1867.0</ele><time>2026-04-16T22:29:48Z</time></trkpt><trkpt lat="36.855886228533514" lon="-108.095410282598"><ele>1867.0</ele><time>2026-04-16T22:29:49Z</time></trkpt><trkpt lat="36.85595573590318" lon="-108.09546266896628"><ele>1867.0000000000002</ele><time>2026-04-16T22:29:50Z</time></trkpt><trkpt lat="36.856010759093685" lon="-108.0955477496776"><ele>1867.0</ele><time>2026-04-16T22:29:51Z</time></trkpt><trkpt lat="36.856064746086055" lon="-108.09559212266237"><ele>1868.3999999999999</ele><time>2026-04-16T22:29:52Z</time></trkpt><trkpt lat="36.85614173576333" lon="-108.09564164079357"><ele>1869.7999999999997</ele><time>2026-04-16T22:29:53Z</time></trkpt><trkpt lat="36.85620753898052" lon="-108.09572528502336"><ele>1871.2</ele><time>2026-04-16T22:29:54Z</time></trkpt><trkpt lat="36.856215006190894" lon="-108.09584008798254"><ele>1872.6</ele><time>2026-04-16T22:29:55Z</time></trkpt><trkpt lat="36.85623339027885" lon="-108.09596149686466"><ele>1874.0</ele><time>2026-04-16T22:29:56Z</time></trkpt><trkpt lat="36.8562562805493" lon="-108.09605993231766"><ele>1874.4</ele><time>2026-04-16T22:29:57Z</time></trkpt><trkpt lat="36.856247920273766" lon="-108.09615077952839"><ele>1874.8000000000002</ele><time>2026-04-16T22:29:58Z</time></trkpt><trkpt lat="36.856322349735336" lon="-108.096221087319"><ele>1875.1999999999998</ele><time>2026-04-16T22:30:00Z</time></trkpt><trkpt lat="36.856401219320425" lon="-108.09619925954544"><ele>1875.6</ele><time>2026-04-16T22:30:01Z</time></trkpt><trkpt lat="36.856495370211306" lon="-108.09614925637446"><ele>1876.0</ele><time>2026-04-16T22:30:02Z</time></trkpt><trkpt lat="36.85660829118831" lon="-108.09610674861604"><ele>1876.0000000000002</ele><time>2026-04-16T22:30:03Z</time></trkpt><trkpt lat="36.85670975406456" lon="-108.09609359524195"><ele>1876.0</ele><time>2026-04-16T22:30:04Z</time></trkpt><trkpt lat="36.8567956351657" lon="-108.09605659636411"><ele>1876.0</ele><time>2026-04-16T22:30:05Z</time></trkpt><trkpt lat="36.85687570541701" lon="-108.09604343709378"><ele>1876.0</ele><time>2026-04-16T22:30:06Z</time></trkpt><trkpt lat="36.856958774766646" lon="-108.09603396540481"><ele>1876.0000000000002</ele><time>2026-04-16T22:30:07Z</time></trkpt><trkpt lat="36.857041308990006" lon="-108.09606578272414"><ele>1876.0</ele><time>2026-04-16T22:30:08Z</time></trkpt><trkpt lat="36.857121526009536" lon="-108.09602079055267"><ele>1876.5000000000002</ele><time>2026-04-16T22:30:09Z</time></trkpt><trkpt lat="36.85720803302735" lon="-108.09596524171431"><ele>1877.0</ele><time>2026-04-16T22:30:10Z</time></trkpt><trkpt lat="36.8573078682079" lon="-108.0959582861614"><ele>1877.5</ele><time>2026-04-16T22:30:11Z</time></trkpt><trkpt lat="36.85739106552999" lon="-108.09597288387313"><ele>1878.0</ele><time>2026-04-16T22:30:12Z</time></trkpt><trkpt lat="36.857475460594365" lon="-108.0960013719648"><ele>1878.5000000000002</ele><time>2026-04-16T22:30:13Z</time></trkpt><trkpt lat="36.85753709619631" lon="-108.09598130983346"><ele>1879.0</ele><time>2026-04-16T22:30:14Z</time></trkpt><trkpt lat="36.85763378867406" lon="-108.09596098231378"><ele>1879.0000000000002</ele><time>2026-04-16T22:30:15Z</time></trkpt><trkpt lat="36.85772414563478" lon="-108.09595390798052"><ele>1879.0</ele><time>2026-04-16T22:30:16Z</time></trkpt><trkpt lat="36.85779662575221" lon="-108.09591727026556"><ele>1879.0</ele><time>2026-04-16T22:30:17Z</time></trkpt><trkpt lat="36.85785657255074" lon="-108.09587223646554"><ele>1879.0</ele><time>2026-04-16T22:30:18Z</time></trkpt><trkpt lat="36.85791106712165" lon="-108.09578929134139"><ele>1879.0000000000002</ele><time>2026-04-16T22:30:19Z</time></trkpt><trkpt lat="36.85795848018976" lon="-108.0957277712982"><ele>1879.0</ele><time>2026-04-16T22:30:20Z</time></trkpt><trkpt lat="36.85805262021932" lon="-108.09569010870278"><ele>1877.8000000000002</ele><time>2026-04-16T22:30:21Z</time></trkpt><trkpt lat="36.858159248158216" lon="-108.09566451742415"><ele>1876.6000000000001</ele><time>2026-04-16T22:30:22Z</time></trkpt><trkpt lat="36.8582505657344" lon="-108.09563872329981"><ele>1875.4</ele><time>2026-04-16T22:30:23Z</time></trkpt><trkpt lat="36.858326438617055" lon="-108.09560961246142"><ele>1874.2</ele><time>2026-04-16T22:30:24Z</time></trkpt><trkpt lat="36.858364932318935" lon="-108.09554043663852"><ele>1873.0</ele><time>2026-04-16T22:30:25Z</time></trkpt><trkpt lat="36.85845708310346" lon="-108.09541562827458"><ele>1872.6666666666667</ele><time>2026-04-16T22:30:27Z</time></trkpt><trkpt lat="36.85854245786025" lon="-108.09533981973101"><ele>1872.3333333333335</ele><time>2026-04-16T22:30:28Z</time></trkpt><trkpt lat="36.85860971525697" lon="-108.09527889940553"><ele>1872.0</ele><time>2026-04-16T22:30:29Z</time></trkpt><trkpt lat="36.85867464096157" lon="-108.09525183175035"><ele>1871.6666666666665</ele><time>2026-04-16T22:30:30Z</time></trkpt><trkpt lat="36.85874790098226" lon="-108.09519568181508"><ele>1871.3333333333333</ele><time>2026-04-16T22:30:31Z</time></trkpt><trkpt lat="36.858818948797676" lon="-108.09512120195802"><ele>1871.0</ele><time>2026-04-16T22:30:32Z</time></trkpt><trkpt lat="36.85887962709025" lon="-108.09506848545968"><ele>1871.0</ele><time>2026-04-16T22:30:33Z</time></trkpt><trkpt lat="36.85895281938959" lon="-108.09500837106174"><ele>1871.0</ele><time>2026-04-16T22:30:34Z</time></trkpt><trkpt lat="36.85903421694255" lon="-108.09495546690513"><ele>1871.0</ele><time>2026-04-16T22:30:35Z</time></trkpt><trkpt lat="36.859130010416514" lon="-108.09490770384008"><ele>1871.0</ele><time>2026-04-16T22:30:36Z</time></trkpt><trkpt lat="36.85921778434878" lon="-108.09488457943368"><ele>1871.0</ele><time>2026-04-16T22:30:37Z</time></trkpt><trkpt lat="36.859318898782135" lon="-108.09484938185997"><ele>1869.8</ele><time>2026-04-16T22:30:38Z</time></trkpt><trkpt lat="36.85941270311947" lon="-108.09482814068733"><ele>1868.6</ele><time>2026-04-16T22:30:39Z</time></trkpt><trkpt lat="36.85949730674755" lon="-108.09481862373016"><ele>1867.4</ele><time>2026-04-16T22:30:40Z</time></trkpt><trkpt lat="36.85958772074954" lon="-108.0948106110493"><ele>1866.2</ele><time>2026-04-16T22:30:41Z</time></trkpt><trkpt lat="36.8596870908572" lon="-108.09478816784966"><ele>1865.0</ele><time>2026-04-16T22:30:42Z</time></trkpt><trkpt lat="36.85977831724147" lon="-108.09479850505808"><ele>1864.9999999999998</ele><time>2026-04-16T22:30:43Z</time></trkpt><trkpt lat="36.85987410628145" lon="-108.09478382830663"><ele>1865.0</ele><time>2026-04-16T22:30:44Z</time></trkpt><trkpt lat="36.85993836424637" lon="-108.09473404505354"><ele>1865.0</ele><time>2026-04-16T22:30:45Z</time></trkpt><trkpt lat="36.860006030537114" lon="-108.09468063193242"><ele>1865.0</ele><time>2026-04-16T22:30:47Z</time></trkpt><trkpt lat="36.85994052148523" lon="-108.09468248357655"><ele>1864.9999999999998</ele><time>2026-04-16T22:30:49.001Z</time></trkpt><trkpt lat="36.860007730169784" lon="-108.09467164526696"><ele>1865.0</ele><time>2026-04-16T22:30:57.001Z</time></trkpt><trkpt lat="36.86007888448934" lon="-108.09467552026886"><ele>1866.0</ele><time>2026-04-16T22:30:58.001Z</time></trkpt><trkpt lat="36.86014687428738" lon="-108.09467058752772"><ele>1867.0</ele><time>2026-04-16T22:30:59.001Z</time></trkpt><trkpt lat="36.86022698384927" lon="-108.09467453657139"><ele>1868.0</ele><time>2026-04-16T22:31:00.001Z</time></trkpt><trkpt lat="36.86034877322529" lon="-108.09465316810055"><ele>1869.0</ele><time>2026-04-16T22:31:02Z</time></trkpt><trkpt lat="36.860437968754894" lon="-108.0946961046667"><ele>1870.0</ele><time>2026-04-16T22:31:04Z</time></trkpt><trkpt lat="36.86049088362035" lon="-108.09480455750608"><ele>1870.0</ele><time>2026-04-16T22:31:05Z</time></trkpt><trkpt lat="36.86054982246628" lon="-108.09488695867354"><ele>1870.0</ele><time>2026-04-16T22:31:06Z</time></trkpt><trkpt lat="36.860629257236894" lon="-108.09489952028585"><ele>1870.0</ele><time>2026-04-16T22:31:07Z</time></trkpt><trkpt lat="36.8607262496225" lon="-108.09490363020912"><ele>1870.0</ele><time>2026-04-16T22:31:08Z</time></trkpt><trkpt lat="36.860833330794335" lon="-108.09493181028203"><ele>1870.0</ele><time>2026-04-16T22:31:09Z</time></trkpt><trkpt lat="36.860913791090354" lon="-108.09499578442187"><ele>1871.6</ele><time>2026-04-16T22:31:10Z</time></trkpt><trkpt lat="36.8610112210742" lon="-108.09504157832467"><ele>1873.2</ele><time>2026-04-16T22:31:11Z</time></trkpt><trkpt lat="36.86111427622626" lon="-108.09504736277862"><ele>1874.8000000000002</ele><time>2026-04-16T22:31:12Z</time></trkpt><trkpt lat="36.86123545292474" lon="-108.09505815842954"><ele>1876.4</ele><time>2026-04-16T22:31:13Z</time></trkpt><trkpt lat="36.86132764505598" lon="-108.09505352022923"><ele>1878.0</ele><time>2026-04-16T22:31:14Z</time></trkpt><trkpt lat="36.86139938187485" lon="-108.09508914223179"><ele>1878.0</ele><time>2026-04-16T22:31:15Z</time></trkpt><trkpt lat="36.86146418290046" lon="-108.09511224500974"><ele>1878.0</ele><time>2026-04-16T22:31:16Z</time></trkpt><trkpt lat="36.861543755491795" lon="-108.09512965547528"><ele>1878.0</ele><time>2026-04-16T22:31:17Z</time></trkpt><trkpt lat="36.86161959468852" lon="-108.09514456548996"><ele>1878.0</ele><time>2026-04-16T22:31:18Z</time></trkpt><trkpt lat="36.861692176968496" lon="-108.09518673623893"><ele>1878.0</ele><time>2026-04-16T22:31:19Z</time></trkpt><trkpt lat="36.86180316007312" lon="-108.09518638444004"><ele>1878.0</ele><time>2026-04-16T22:31:20Z</time></trkpt><trkpt lat="36.86186149744524" lon="-108.0952502035948"><ele>1878.0</ele><time>2026-04-16T22:31:21Z</time></trkpt><trkpt lat="36.86192414451912" lon="-108.09528879396699"><ele>1878.0000000000002</ele><time>2026-04-16T22:31:22Z</time></trkpt><trkpt lat="36.862037397961416" lon="-108.09533062306672"><ele>1878.0000000000002</ele><time>2026-04-16T22:31:23Z</time></trkpt><trkpt lat="36.86214324710003" lon="-108.09537025457978"><ele>1878.0</ele><time>2026-04-16T22:31:24Z</time></trkpt><trkpt lat="36.86221786657707" lon="-108.09540675494347"><ele>1878.0</ele><time>2026-04-16T22:31:25Z</time></trkpt><trkpt lat="36.86230735763091" lon="-108.09539032233187"><ele>1878.0</ele><time>2026-04-16T22:31:26Z</time></trkpt><trkpt lat="36.86241682398601" lon="-108.09531471953517"><ele>1878.0000000000002</ele><time>2026-04-16T22:31:27Z</time></trkpt><trkpt lat="36.862495273975576" lon="-108.09525578405682"><ele>1878.0000000000002</ele><time>2026-04-16T22:31:28Z</time></trkpt><trkpt lat="36.86256246985664" lon="-108.09517354697824"><ele>1878.0</ele><time>2026-04-16T22:31:29Z</time></trkpt><trkpt lat="36.862605616652" lon="-108.09509209289985"><ele>1878.0</ele><time>2026-04-16T22:31:30Z</time></trkpt><trkpt lat="36.86265945762062" lon="-108.09502710647331"><ele>1878.2</ele><time>2026-04-16T22:31:31Z</time></trkpt><trkpt lat="36.862724171393324" lon="-108.09497618475969"><ele>1878.4</ele><time>2026-04-16T22:31:32Z</time></trkpt><trkpt lat="36.86277834092241" lon="-108.09491565507344"><ele>1878.6000000000001</ele><time>2026-04-16T22:31:33Z</time></trkpt><trkpt lat="36.862891154991054" lon="-108.09480773283666"><ele>1878.8000000000002</ele><time>2026-04-16T22:31:35Z</time></trkpt><trkpt lat="36.862982784222424" lon="-108.09479493363077"><ele>1879.0</ele><time>2026-04-16T22:31:36Z</time></trkpt><trkpt lat="36.86308908901611" lon="-108.09484396435002"><ele>1878.5</ele><time>2026-04-16T22:31:39Z</time></trkpt><trkpt lat="36.86320614519982" lon="-108.09478142693568"><ele>1878.0</ele><time>2026-04-16T22:31:41Z</time></trkpt><trkpt lat="36.8632967967312" lon="-108.09474274807464"><ele>1877.5</ele><time>2026-04-16T22:31:42Z</time></trkpt><trkpt lat="36.86343319566801" lon="-108.09478954353251"><ele>1877.0</ele><time>2026-04-16T22:31:44Z</time></trkpt><trkpt lat="36.86352286736487" lon="-108.09483968897611"><ele>1877.0</ele><time>2026-04-16T22:31:45Z</time></trkpt><trkpt lat="36.863610284427565" lon="-108.09486274287967"><ele>1876.9999999999998</ele><time>2026-04-16T22:31:46Z</time></trkpt><trkpt lat="36.8636923524185" lon="-108.09484415422979"><ele>1876.9999999999998</ele><time>2026-04-16T22:31:47Z</time></trkpt><trkpt lat="36.86375359689507" lon="-108.09480197405544"><ele>1877.0</ele><time>2026-04-16T22:31:47.999Z</time></trkpt><trkpt lat="36.86383132498442" lon="-108.09476014799007"><ele>1877.0</ele><time>2026-04-16T22:31:48.999Z</time></trkpt><trkpt lat="36.86394397944399" lon="-108.09464059335475"><ele>1876.9999999999998</ele><time>2026-04-16T22:31:50.999Z</time></trkpt><trkpt lat="36.863970892971146" lon="-108.09454618419664"><ele>1877.0</ele><time>2026-04-16T22:31:51.999Z</time></trkpt><trkpt lat="36.86400847210566" lon="-108.09447680551395"><ele>1877.0</ele><time>2026-04-16T22:31:52.999Z</time></trkpt><trkpt lat="36.864077127870736" lon="-108.09443601882336"><ele>1877.0</ele><time>2026-04-16T22:31:53.999Z</time></trkpt><trkpt lat="36.86415204383434" lon="-108.09436525019007"><ele>1876.9999999999998</ele><time>2026-04-16T22:31:54.999Z</time></trkpt><trkpt lat="36.864229643988736" lon="-108.09434706112906"><ele>1877.0</ele><time>2026-04-16T22:31:55.999Z</time></trkpt><trkpt lat="36.86433254007504" lon="-108.09434314126318"><ele>1877.3999999999999</ele><time>2026-04-16T22:31:56.999Z</time></trkpt><trkpt lat="36.86441810187765" lon="-108.09436393937862"><ele>1877.7999999999997</ele><time>2026-04-16T22:31:57.999Z</time></trkpt><trkpt lat="36.864496540183964" lon="-108.09439353488304"><ele>1878.2</ele><time>2026-04-16T22:31:58.999Z</time></trkpt><trkpt lat="36.86455395751934" lon="-108.09447790666337"><ele>1878.6</ele><time>2026-04-16T22:31:59.999Z</time></trkpt><trkpt lat="36.86461977326761" lon="-108.09460067584966"><ele>1879.0</ele><time>2026-04-16T22:32:00.999Z</time></trkpt><trkpt lat="36.86469277776648" lon="-108.09469438706351"><ele>1879.0</ele><time>2026-04-16T22:32:01.999Z</time></trkpt><trkpt lat="36.86475640694156" lon="-108.09475941772789"><ele>1879.0</ele><time>2026-04-16T22:32:02.999Z</time></trkpt><trkpt lat="36.86482442353019" lon="-108.09481299306898"><ele>1879.0</ele><time>2026-04-16T22:32:03.999Z</time></trkpt><trkpt lat="36.864913281381" lon="-108.09479086679463"><ele>1879.0</ele><time>2026-04-16T22:32:04.999Z</time></trkpt><trkpt lat="36.864995001957084" lon="-108.09473144166384"><ele>1879.0</ele><time>2026-04-16T22:32:05.999Z</time></trkpt><trkpt lat="36.86509814238157" lon="-108.09468871951086"><ele>1880.2</ele><time>2026-04-16T22:32:06.999Z</time></trkpt><trkpt lat="36.86518858830356" lon="-108.09468267476154"><ele>1881.4</ele><time>2026-04-16T22:32:07.999Z</time></trkpt><trkpt lat="36.86526574562624" lon="-108.09460808340881"><ele>1882.6</ele><time>2026-04-16T22:32:09.999Z</time></trkpt><trkpt lat="36.86538734920677" lon="-108.09454038293589"><ele>1883.8</ele><time>2026-04-16T22:32:11.999Z</time></trkpt><trkpt lat="36.86545326405343" lon="-108.09451564140087"><ele>1885.0</ele><time>2026-04-16T22:32:12.999Z</time></trkpt><trkpt lat="36.86556037152786" lon="-108.09455040205923"><ele>1885.0</ele><time>2026-04-16T22:32:14.999Z</time></trkpt><trkpt lat="36.865650114026494" lon="-108.09452680729775"><ele>1885.0</ele><time>2026-04-16T22:32:15.999Z</time></trkpt><trkpt lat="36.865765475553815" lon="-108.09451960172643"><ele>1885.0</ele><time>2026-04-16T22:32:16.999Z</time></trkpt><trkpt lat="36.86587380552809" lon="-108.09450175565108"><ele>1885.0</ele><time>2026-04-16T22:32:17.999Z</time></trkpt><trkpt lat="36.86597215519644" lon="-108.0944831062799"><ele>1885.0</ele><time>2026-04-16T22:32:18.999Z</time></trkpt><trkpt lat="36.86608416603549" lon="-108.0944998865921"><ele>1885.8</ele><time>2026-04-16T22:32:19.999Z</time></trkpt><trkpt lat="36.86618626317242" lon="-108.0945717991261"><ele>1886.6</ele><time>2026-04-16T22:32:20.999Z</time></trkpt><trkpt lat="36.86629352684163" lon="-108.09463785366519"><ele>1887.4</ele><time>2026-04-16T22:32:21.999Z</time></trkpt><trkpt lat="36.866397107536706" lon="-108.09464354322911"><ele>1888.2</ele><time>2026-04-16T22:32:22.999Z</time></trkpt><trkpt lat="36.86648819049291" lon="-108.09462348865925"><ele>1889.0</ele><time>2026-04-16T22:32:23.999Z</time></trkpt><trkpt lat="36.86660055269074" lon="-108.09460627813597"><ele>1889.0</ele><time>2026-04-16T22:32:24.999Z</time></trkpt><trkpt lat="36.866709187853225" lon="-108.09460952702153"><ele>1889.0</ele><time>2026-04-16T22:32:25.999Z</time></trkpt><trkpt lat="36.86678650438117" lon="-108.09460520035302"><ele>1889.0</ele><time>2026-04-16T22:32:26.999Z</time></trkpt><trkpt lat="36.86681704356716" lon="-108.09476996212187"><ele>1889.0</ele><time>2026-04-16T22:32:28.999Z</time></trkpt><trkpt lat="36.866839886192714" lon="-108.09489259785654"><ele>1889.0</ele><time>2026-04-16T22:32:29.999Z</time></trkpt><trkpt lat="36.86691297700098" lon="-108.09501946632379"><ele>1890.25</ele><time>2026-04-16T22:32:30.999Z</time></trkpt><trkpt lat="36.866972723644864" lon="-108.09515469970785"><ele>1891.5</ele><time>2026-04-16T22:32:31.999Z</time></trkpt><trkpt lat="36.86704759858006" lon="-108.09522475629667"><ele>1892.75</ele><time>2026-04-16T22:32:32.999Z</time></trkpt><trkpt lat="36.86715210482394" lon="-108.09526320459553"><ele>1894.0</ele><time>2026-04-16T22:32:33.999Z</time></trkpt><trkpt lat="36.86728292972618" lon="-108.09527358099308"><ele>1894.0</ele><time>2026-04-16T22:32:34.999Z</time></trkpt><trkpt lat="36.867405576621536" lon="-108.09529186831409"><ele>1894.0</ele><time>2026-04-16T22:32:35.999Z</time></trkpt><trkpt lat="36.8674704273222" lon="-108.09536063822311"><ele>1894.0</ele><time>2026-04-16T22:32:36.999Z</time></trkpt><trkpt lat="36.86754395389517" lon="-108.09546652382613"><ele>1894.0</ele><time>2026-04-16T22:32:37.999Z</time></trkpt><trkpt lat="36.86761213888893" lon="-108.0956007001218"><ele>1894.0</ele><time>2026-04-16T22:32:38.999Z</time></trkpt><trkpt lat="36.86770531771956" lon="-108.09572389804546"><ele>1895.75</ele><time>2026-04-16T22:32:39.999Z</time></trkpt><trkpt lat="36.86779664038393" lon="-108.0958312402619"><ele>1897.5</ele><time>2026-04-16T22:32:40.999Z</time></trkpt><trkpt lat="36.86787254472962" lon="-108.09596666774655"><ele>1899.25</ele><time>2026-04-16T22:32:41.999Z</time></trkpt><trkpt lat="36.86793993196368" lon="-108.0960674383255"><ele>1901.0</ele><time>2026-04-16T22:32:42.999Z</time></trkpt><trkpt lat="36.86801988290997" lon="-108.09616754230096"><ele>1901.0</ele><time>2026-04-16T22:32:43.999Z</time></trkpt><trkpt lat="36.8680939657217" lon="-108.09629314506977"><ele>1901.0</ele><time>2026-04-16T22:32:44.999Z</time></trkpt><trkpt lat="36.86818709511382" lon="-108.09635145394492"><ele>1901.0</ele><time>2026-04-16T22:32:45.999Z</time></trkpt><trkpt lat="36.86827782747968" lon="-108.09642714152959"><ele>1901.0</ele><time>2026-04-16T22:32:46.999Z</time></trkpt><trkpt lat="36.86837025246554" lon="-108.09652201690295"><ele>1903.0</ele><time>2026-04-16T22:32:47.999Z</time></trkpt><trkpt lat="36.86846632882049" lon="-108.09662076789374"><ele>1905.0</ele><time>2026-04-16T22:32:48.999Z</time></trkpt><trkpt lat="36.86855848746687" lon="-108.09673438982904"><ele>1907.0</ele><time>2026-04-16T22:32:49.999Z</time></trkpt><trkpt lat="36.8686304300992" lon="-108.0968631486308"><ele>1909.0</ele><time>2026-04-16T22:32:50.999Z</time></trkpt><trkpt lat="36.868712676702" lon="-108.09691435489721"><ele>1909.0000000000002</ele><time>2026-04-16T22:32:51.999Z</time></trkpt><trkpt lat="36.86878352952301" lon="-108.09692319877155"><ele>1909.0</ele><time>2026-04-16T22:32:52.999Z</time></trkpt><trkpt lat="36.86885306845706" lon="-108.09689485744578"><ele>1909.0</ele><time>2026-04-16T22:32:54Z</time></trkpt><trkpt lat="36.86890849656424" lon="-108.09683035754387"><ele>1909.0</ele><time>2026-04-16T22:32:56Z</time></trkpt><trkpt lat="36.86894607415236" lon="-108.09676404632859"><ele>1909.0000000000002</ele><time>2026-04-16T22:33:08Z</time></trkpt><trkpt lat="36.86901420938906" lon="-108.09670742730952"><ele>1909.0</ele><time>2026-04-16T22:33:09Z</time></trkpt><trkpt lat="36.86910377675692" lon="-108.09666988878229"><ele>1909.0</ele><time>2026-04-16T22:33:10Z</time></trkpt><trkpt lat="36.86921122401243" lon="-108.09668446672627"><ele>1909.0</ele><time>2026-04-16T22:33:11Z</time></trkpt><trkpt lat="36.869331530761265" lon="-108.0967307190185"><ele>1909.0</ele><time>2026-04-16T22:33:12Z</time></trkpt><trkpt lat="36.869457960082435" lon="-108.09681536048232"><ele>1909.0</ele><time>2026-04-16T22:33:13Z</time></trkpt><trkpt lat="36.869594832075805" lon="-108.09692916377111"><ele>1908.4</ele><time>2026-04-16T22:33:14Z</time></trkpt><trkpt lat="36.869708483555655" lon="-108.09702618772965"><ele>1907.8000000000002</ele><time>2026-04-16T22:33:15Z</time></trkpt><trkpt lat="36.8697963991039" lon="-108.09707799975843"><ele>1907.1999999999998</ele><time>2026-04-16T22:33:16Z</time></trkpt><trkpt lat="36.86986975728081" lon="-108.09708653058826"><ele>1906.6</ele><time>2026-04-16T22:33:17Z</time></trkpt><trkpt lat="36.86998266809336" lon="-108.09704185893749"><ele>1906.0</ele><time>2026-04-16T22:33:19Z</time></trkpt><trkpt lat="36.87005595856139" lon="-108.09707496490397"><ele>1905.6</ele><time>2026-04-16T22:33:20Z</time></trkpt><trkpt lat="36.87012523602561" lon="-108.09714797562052"><ele>1905.1999999999998</ele><time>2026-04-16T22:33:21Z</time></trkpt><trkpt lat="36.8701981441269" lon="-108.09716837491959"><ele>1904.8000000000002</ele><time>2026-04-16T22:33:22Z</time></trkpt><trkpt lat="36.870265111862" lon="-108.09719942671171"><ele>1904.4</ele><time>2026-04-16T22:33:23Z</time></trkpt><trkpt lat="36.87031904725558" lon="-108.09731383556787"><ele>1904.0</ele><time>2026-04-16T22:33:24Z</time></trkpt><trkpt lat="36.870378045866886" lon="-108.09742573694335"><ele>1903.6666666666665</ele><time>2026-04-16T22:33:25Z</time></trkpt><trkpt lat="36.87048298680583" lon="-108.09752626618584"><ele>1903.3333333333335</ele><time>2026-04-16T22:33:26Z</time></trkpt><trkpt lat="36.870623081038076" lon="-108.09762240034807"><ele>1903.0</ele><time>2026-04-16T22:33:27Z</time></trkpt><trkpt lat="36.87077161078557" lon="-108.09774153662273"><ele>1903.0</ele><time>2026-04-16T22:33:28Z</time></trkpt><trkpt lat="36.870926612510544" lon="-108.09789112124398"><ele>1903.0</ele><time>2026-04-16T22:33:29Z</time></trkpt><trkpt lat="36.87104171751177" lon="-108.09804640169013"><ele>1903.0</ele><time>2026-04-16T22:33:30Z</time></trkpt><trkpt lat="36.871135089861845" lon="-108.09819257304189"><ele>1901.75</ele><time>2026-04-16T22:33:31Z</time></trkpt><trkpt lat="36.871244306163675" lon="-108.09832220119164"><ele>1900.5</ele><time>2026-04-16T22:33:32Z</time></trkpt><trkpt lat="36.871344632074816" lon="-108.09844946637213"><ele>1899.25</ele><time>2026-04-16T22:33:33Z</time></trkpt><trkpt lat="36.87143054751655" lon="-108.09854900465724"><ele>1898.0</ele><time>2026-04-16T22:33:34Z</time></trkpt><trkpt lat="36.87142779238721" lon="-108.09869724762501"><ele>1898.0</ele><time>2026-04-16T22:33:36Z</time></trkpt><trkpt lat="36.87136213433446" lon="-108.09879822540266"><ele>1898.0000000000002</ele><time>2026-04-16T22:33:37Z</time></trkpt><trkpt lat="36.87133233617323" lon="-108.09889528396143"><ele>1898.0000000000002</ele><time>2026-04-16T22:33:38Z</time></trkpt><trkpt lat="36.87137682437328" lon="-108.09896335330302"><ele>1898.0</ele><time>2026-04-16T22:33:39Z</time></trkpt><trkpt lat="36.87148199429645" lon="-108.09909495219752"><ele>1898.0</ele><time>2026-04-16T22:33:40Z</time></trkpt><trkpt lat="36.87158087115718" lon="-108.09920819199586"><ele>1897.75</ele><time>2026-04-16T22:33:41Z</time></trkpt><trkpt lat="36.871695038440315" lon="-108.099299923413"><ele>1897.5</ele><time>2026-04-16T22:33:42Z</time></trkpt><trkpt lat="36.871793912042584" lon="-108.09937092372004"><ele>1897.25</ele><time>2026-04-16T22:33:43Z</time></trkpt><trkpt lat="36.87187622622236" lon="-108.09947864764138"><ele>1897.0</ele><time>2026-04-16T22:33:44Z</time></trkpt><trkpt lat="36.87189097001024" lon="-108.09966425479755"><ele>1896.0</ele><time>2026-04-16T22:33:45Z</time></trkpt><trkpt lat="36.871896356451664" lon="-108.09978714519774"><ele>1894.9999999999998</ele><time>2026-04-16T22:33:46Z</time></trkpt><trkpt lat="36.87197173831159" lon="-108.09981901831259"><ele>1893.9999999999998</ele><time>2026-04-16T22:33:47Z</time></trkpt><trkpt lat="36.87207333536922" lon="-108.09992994748235"><ele>1893.0</ele><time>2026-04-16T22:33:47.999Z</time></trkpt><trkpt lat="36.87214718259127" lon="-108.10004792360893"><ele>1892.0</ele><time>2026-04-16T22:33:48.999Z</time></trkpt><trkpt lat="36.87223071261967" lon="-108.10008500091661"><ele>1891.9999999999998</ele><time>2026-04-16T22:33:49.999Z</time></trkpt><trkpt lat="36.87229999832282" lon="-108.10008413451492"><ele>1892.0</ele><time>2026-04-16T22:33:50.999Z</time></trkpt><trkpt lat="36.872376213475874" lon="-108.10008920048436"><ele>1892.0</ele><time>2026-04-16T22:33:51.999Z</time></trkpt><trkpt lat="36.87243555957919" lon="-108.10015948793892"><ele>1892.0</ele><time>2026-04-16T22:33:52.999Z</time></trkpt><trkpt lat="36.87246503043616" lon="-108.10027700228612"><ele>1891.9999999999998</ele><time>2026-04-16T22:33:53.999Z</time></trkpt><trkpt lat="36.872492262147" lon="-108.10042127866615"><ele>1892.0</ele><time>2026-04-16T22:33:54.999Z</time></trkpt><trkpt lat="36.8725186884411" lon="-108.100556741859"><ele>1892.0</ele><time>2026-04-16T22:33:55.999Z</time></trkpt><trkpt lat="36.87256930239028" lon="-108.10069788427724"><ele>1892.0</ele><time>2026-04-16T22:33:56.999Z</time></trkpt><trkpt lat="36.87264534587556" lon="-108.10082311936682"><ele>1892.0</ele><time>2026-04-16T22:33:57.999Z</time></trkpt><trkpt lat="36.872727212704746" lon="-108.10093436395086"><ele>1892.0</ele><time>2026-04-16T22:33:58.999Z</time></trkpt><trkpt lat="36.872772352249584" lon="-108.1010321834116"><ele>1891.0</ele><time>2026-04-16T22:33:59.999Z</time></trkpt><trkpt lat="36.87275510036282" lon="-108.10116320413198"><ele>1890.0</ele><time>2026-04-16T22:34:00.999Z</time></trkpt><trkpt lat="36.872785679702226" lon="-108.10130124391065"><ele>1889.0</ele><time>2026-04-16T22:34:01.999Z</time></trkpt><trkpt lat="36.8728459548876" lon="-108.10144461707019"><ele>1888.0</ele><time>2026-04-16T22:34:02.999Z</time></trkpt><trkpt lat="36.87288290153119" lon="-108.10158645867007"><ele>1888.0</ele><time>2026-04-16T22:34:03.999Z</time></trkpt><trkpt lat="36.87289494484847" lon="-108.10170075687822"><ele>1888.0000000000002</ele><time>2026-04-16T22:34:04.999Z</time></trkpt><trkpt lat="36.8728879797076" lon="-108.10183313229382"><ele>1888.0000000000002</ele><time>2026-04-16T22:34:05.999Z</time></trkpt><trkpt lat="36.87291486724809" lon="-108.10193299136314"><ele>1888.0</ele><time>2026-04-16T22:34:06.999Z</time></trkpt><trkpt lat="36.873009455890994" lon="-108.10198647000652"><ele>1888.0</ele><time>2026-04-16T22:34:07.999Z</time></trkpt><trkpt lat="36.87311207406685" lon="-108.10203668903725"><ele>1888.0</ele><time>2026-04-16T22:34:08.999Z</time></trkpt><trkpt lat="36.87319830873972" lon="-108.10208147742631"><ele>1888.0000000000002</ele><time>2026-04-16T22:34:09.999Z</time></trkpt><trkpt lat="36.873287768578656" lon="-108.1021639847283"><ele>1888.0000000000002</ele><time>2026-04-16T22:34:10.999Z</time></trkpt><trkpt lat="36.873393740035745" lon="-108.10222646199348"><ele>1888.0</ele><time>2026-04-16T22:34:11.999Z</time></trkpt><trkpt lat="36.87347055335236" lon="-108.10229585220513"><ele>1888.0</ele><time>2026-04-16T22:34:12.999Z</time></trkpt><trkpt lat="36.873563933476596" lon="-108.10242037917222"><ele>1886.6000000000001</ele><time>2026-04-16T22:34:14Z</time></trkpt><trkpt lat="36.873634917588085" lon="-108.10252314744477"><ele>1885.2000000000003</ele><time>2026-04-16T22:34:14.999Z</time></trkpt><trkpt lat="36.87369929890277" lon="-108.10258687986318"><ele>1883.8</ele><time>2026-04-16T22:34:16.999Z</time></trkpt><trkpt lat="36.87369556335668" lon="-108.10269967739923"><ele>1882.4</ele><time>2026-04-16T22:34:17.999Z</time></trkpt><trkpt lat="36.873749063907454" lon="-108.10278169848952"><ele>1881.0</ele><time>2026-04-16T22:34:18.999Z</time></trkpt><trkpt lat="36.87381392886047" lon="-108.10288062398313"><ele>1881.0</ele><time>2026-04-16T22:34:19.999Z</time></trkpt><trkpt lat="36.87380133285151" lon="-108.10299861023876"><ele>1881.0</ele><time>2026-04-16T22:34:20.999Z</time></trkpt><trkpt lat="36.873760606792175" lon="-108.10311942003898"><ele>1881.0</ele><time>2026-04-16T22:34:21.999Z</time></trkpt><trkpt lat="36.87371617980049" lon="-108.10323469434832"><ele>1881.0</ele><time>2026-04-16T22:34:22.999Z</time></trkpt><trkpt lat="36.87366792075369" lon="-108.10335910401734"><ele>1881.0</ele><time>2026-04-16T22:34:23.999Z</time></trkpt><trkpt lat="36.873575868732594" lon="-108.10346859035415"><ele>1880.75</ele><time>2026-04-16T22:34:24.999Z</time></trkpt><trkpt lat="36.87347248924952" lon="-108.10354057326563"><ele>1880.5</ele><time>2026-04-16T22:34:25.999Z</time></trkpt><trkpt lat="36.87351510852622" lon="-108.10372183722328"><ele>1880.25</ele><time>2026-04-16T22:34:27.999Z</time></trkpt><trkpt lat="36.87349770120016" lon="-108.10384233851225"><ele>1880.0</ele><time>2026-04-16T22:34:28.999Z</time></trkpt><trkpt lat="36.87347827220272" lon="-108.1039420651232"><ele>1880.0</ele><time>2026-04-16T22:34:29.999Z</time></trkpt><trkpt lat="36.873508978177014" lon="-108.10410594014166"><ele>1880.0</ele><time>2026-04-16T22:34:31.999Z</time></trkpt><trkpt lat="36.873594320444305" lon="-108.10406227366025"><ele>1880.0</ele><time>2026-04-16T22:34:34.999Z</time></trkpt><trkpt lat="36.873701336331436" lon="-108.10398881536639"><ele>1880.0</ele><time>2026-04-16T22:34:35.999Z</time></trkpt><trkpt lat="36.873780070053705" lon="-108.10391803800562"><ele>1880.0</ele><time>2026-04-16T22:34:36.999Z</time></trkpt><trkpt lat="36.873849729981956" lon="-108.10379983238671"><ele>1880.0</ele><time>2026-04-16T22:34:37.999Z</time></trkpt><trkpt lat="36.873941181102545" lon="-108.10370658976622"><ele>1880.0</ele><time>2026-04-16T22:34:38.999Z</time></trkpt><trkpt lat="36.87404367086082" lon="-108.10364585094146"><ele>1880.0</ele><time>2026-04-16T22:34:39.999Z</time></trkpt><trkpt lat="36.87412897968441" lon="-108.10358108804465"><ele>1880.0</ele><time>2026-04-16T22:34:40.999Z</time></trkpt><trkpt lat="36.87418854178867" lon="-108.10352361062034"><ele>1880.0</ele><time>2026-04-16T22:34:41.999Z</time></trkpt><trkpt lat="36.874270575646044" lon="-108.10344801371546"><ele>1878.5</ele><time>2026-04-16T22:34:42.999Z</time></trkpt><trkpt lat="36.87437875347329" lon="-108.10338422649541"><ele>1877.0</ele><time>2026-04-16T22:34:43.999Z</time></trkpt><trkpt lat="36.874462525912755" lon="-108.1033360906256"><ele>1875.5</ele><time>2026-04-16T22:34:44.999Z</time></trkpt><trkpt lat="36.87452198707579" lon="-108.10322930171085"><ele>1874.0</ele><time>2026-04-16T22:34:46.999Z</time></trkpt><trkpt lat="36.87463576614232" lon="-108.10310920251153"><ele>1874.0</ele><time>2026-04-16T22:34:47.999Z</time></trkpt><trkpt lat="36.8746929206623" lon="-108.10304544010897"><ele>1874.0</ele><time>2026-04-16T22:34:49.999Z</time></trkpt><trkpt lat="36.87470337054293" lon="-108.1029134756025"><ele>1874.0</ele><time>2026-04-16T22:34:50.999Z</time></trkpt><trkpt lat="36.874752792814256" lon="-108.1028183989588"><ele>1874.0</ele><time>2026-04-16T22:34:51.999Z</time></trkpt><trkpt lat="36.87481612343923" lon="-108.1027739695353"><ele>1874.0</ele><time>2026-04-16T22:34:52.999Z</time></trkpt><trkpt lat="36.87491476075606" lon="-108.102727898148"><ele>1874.0</ele><time>2026-04-16T22:34:53.999Z</time></trkpt><trkpt lat="36.87497180971011" lon="-108.1026716225701"><ele>1874.0</ele><time>2026-04-16T22:34:54.999Z</time></trkpt><trkpt lat="36.87504258878299" lon="-108.10265619451317"><ele>1874.0</ele><time>2026-04-16T22:34:55.999Z</time></trkpt><trkpt lat="36.875176371303745" lon="-108.10275396993575"><ele>1874.0</ele><time>2026-04-16T22:34:56.999Z</time></trkpt><trkpt lat="36.87533106752903" lon="-108.10272787908333"><ele>1873.1666666666665</ele><time>2026-04-16T22:34:57.999Z</time></trkpt><trkpt lat="36.87541829714795" lon="-108.10268393504158"><ele>1872.3333333333333</ele><time>2026-04-16T22:34:58.999Z</time></trkpt><trkpt lat="36.87551391315793" lon="-108.10267688061752"><ele>1871.5</ele><time>2026-04-16T22:35:00Z</time></trkpt><trkpt lat="36.875588114028915" lon="-108.10263690911562"><ele>1870.6666666666665</ele><time>2026-04-16T22:35:01Z</time></trkpt><trkpt lat="36.87565491762509" lon="-108.10262617309968"><ele>1869.8333333333333</ele><time>2026-04-16T22:35:02Z</time></trkpt><trkpt lat="36.87576410067767" lon="-108.10260048999548"><ele>1869.0</ele><time>2026-04-16T22:35:04Z</time></trkpt><trkpt lat="36.875861109487964" lon="-108.10261080301085"><ele>1869.0</ele><time>2026-04-16T22:35:05Z</time></trkpt><trkpt lat="36.87593017979735" lon="-108.10267727153202"><ele>1869.0</ele><time>2026-04-16T22:35:06Z</time></trkpt><trkpt lat="36.87599182478172" lon="-108.10279248750665"><ele>1869.0</ele><time>2026-04-16T22:35:07Z</time></trkpt><trkpt lat="36.87605365095453" lon="-108.10291525271182"><ele>1869.0</ele><time>2026-04-16T22:35:08Z</time></trkpt><trkpt lat="36.87610532365254" lon="-108.10304826599429"><ele>1869.0</ele><time>2026-04-16T22:35:09Z</time></trkpt><trkpt lat="36.87616540806717" lon="-108.10314279993108"><ele>1868.5</ele><time>2026-04-16T22:35:10Z</time></trkpt><trkpt lat="36.876210567392" lon="-108.10323361507592"><ele>1868.0</ele><time>2026-04-16T22:35:11Z</time></trkpt><trkpt lat="36.87626630496614" lon="-108.10337830517345"><ele>1867.5</ele><time>2026-04-16T22:35:12Z</time></trkpt><trkpt lat="36.876297732615654" lon="-108.10351734487207"><ele>1867.0</ele><time>2026-04-16T22:35:13Z</time></trkpt><trkpt lat="36.87634546459574" lon="-108.10367588738531"><ele>1867.0</ele><time>2026-04-16T22:35:14Z</time></trkpt><trkpt lat="36.8764257313435" lon="-108.10380918198838"><ele>1867.0</ele><time>2026-04-16T22:35:15Z</time></trkpt><trkpt lat="36.8765073189407" lon="-108.10392155577975"><ele>1867.0</ele><time>2026-04-16T22:35:16Z</time></trkpt><trkpt lat="36.876577421922164" lon="-108.10399357051013"><ele>1867.0</ele><time>2026-04-16T22:35:17Z</time></trkpt><trkpt lat="36.876677429522225" lon="-108.10404855604354"><ele>1866.3999999999999</ele><time>2026-04-16T22:35:18Z</time></trkpt><trkpt lat="36.87676539891207" lon="-108.10409390594734"><ele>1865.7999999999997</ele><time>2026-04-16T22:35:19Z</time></trkpt><trkpt lat="36.87683119695815" lon="-108.10409322167347"><ele>1865.2</ele><time>2026-04-16T22:35:20Z</time></trkpt><trkpt lat="36.87692756095905" lon="-108.1039438735876"><ele>1864.6</ele><time>2026-04-16T22:35:22Z</time></trkpt><trkpt lat="36.876971625840525" lon="-108.10385825017806"><ele>1864.0</ele><time>2026-04-16T22:35:23Z</time></trkpt><trkpt lat="36.87698051537909" lon="-108.10375439856485"><ele>1865.4</ele><time>2026-04-16T22:35:25Z</time></trkpt><trkpt lat="36.87704417540754" lon="-108.1037206885845"><ele>1866.8000000000002</ele><time>2026-04-16T22:35:27Z</time></trkpt><trkpt lat="36.87712186890372" lon="-108.10364388155294"><ele>1868.1999999999998</ele><time>2026-04-16T22:35:29Z</time></trkpt><trkpt lat="36.877188146363935" lon="-108.10359224495342"><ele>1869.6</ele><time>2026-04-16T22:35:30Z</time></trkpt><trkpt lat="36.87727648281465" lon="-108.10351438927796"><ele>1871.0</ele><time>2026-04-16T22:35:31Z</time></trkpt><trkpt lat="36.877356124106136" lon="-108.10343814759582"><ele>1871.0</ele><time>2026-04-16T22:35:32Z</time></trkpt><trkpt lat="36.877433807325616" lon="-108.10335706859674"><ele>1871.0</ele><time>2026-04-16T22:35:33Z</time></trkpt><trkpt lat="36.877535055786836" lon="-108.10327833255789"><ele>1871.0</ele><time>2026-04-16T22:35:34Z</time></trkpt><trkpt lat="36.87764022435538" lon="-108.10320478881103"><ele>1871.0</ele><time>2026-04-16T22:35:35Z</time></trkpt><trkpt lat="36.877728917519214" lon="-108.10311933954804"><ele>1873.25</ele><time>2026-04-16T22:35:36Z</time></trkpt><trkpt lat="36.87784696417923" lon="-108.10302559660352"><ele>1875.5</ele><time>2026-04-16T22:35:37Z</time></trkpt><trkpt lat="36.87796870436111" lon="-108.10294085617265"><ele>1877.75</ele><time>2026-04-16T22:35:38Z</time></trkpt><trkpt lat="36.878059520021296" lon="-108.10284460648376"><ele>1880.0</ele><time>2026-04-16T22:35:39Z</time></trkpt><trkpt lat="36.87811546203949" lon="-108.10280430688636"><ele>1880.0</ele><time>2026-04-16T22:35:40Z</time></trkpt><trkpt lat="36.87802410455351" lon="-108.10271594933236"><ele>1880.0</ele><time>2026-04-16T22:35:42Z</time></trkpt><trkpt lat="36.87792479202796" lon="-108.10267512437562"><ele>1880.0</ele><time>2026-04-16T22:35:43Z</time></trkpt><trkpt lat="36.87783219354392" lon="-108.10262454911121"><ele>1880.0</ele><time>2026-04-16T22:35:44Z</time></trkpt><trkpt lat="36.87775482064282" lon="-108.10255826969286"><ele>1880.0</ele><time>2026-04-16T22:35:45Z</time></trkpt><trkpt lat="36.87768601215704" lon="-108.10245116788002"><ele>1880.4</ele><time>2026-04-16T22:35:46Z</time></trkpt><trkpt lat="36.87761890242462" lon="-108.1023264084334"><ele>1880.8</ele><time>2026-04-16T22:35:46.999Z</time></trkpt><trkpt lat="36.877531047099396" lon="-108.10221535163754"><ele>1881.1999999999998</ele><time>2026-04-16T22:35:47.999Z</time></trkpt><trkpt lat="36.87746760654945" lon="-108.10214132395863"><ele>1881.6</ele><time>2026-04-16T22:35:48.999Z</time></trkpt><trkpt lat="36.87739439127762" lon="-108.10209488240332"><ele>1882.0</ele><time>2026-04-16T22:35:49.999Z</time></trkpt><trkpt lat="36.877356700478586" lon="-108.10202832339247"><ele>1882.0000000000002</ele><time>2026-04-16T22:35:50.999Z</time></trkpt><trkpt lat="36.8773546874337" lon="-108.10192571331417"><ele>1882.0</ele><time>2026-04-16T22:35:52.999Z</time></trkpt><trkpt lat="36.87740180626533" lon="-108.10186380679232"><ele>1882.0</ele><time>2026-04-16T22:35:57.999Z</time></trkpt><trkpt lat="36.87736289443988" lon="-108.10178537512424"><ele>1882.0</ele><time>2026-04-16T22:36:41.999Z</time></trkpt><trkpt lat="36.87732802183195" lon="-108.10171033837588"><ele>1882.0000000000002</ele><time>2026-04-16T22:36:43.999Z</time></trkpt><trkpt lat="36.87726478062277" lon="-108.10174015817367"><ele>1882.0</ele><time>2026-04-16T22:36:48.999Z</time></trkpt><trkpt lat="36.87736533148882" lon="-108.10180125093544"><ele>1882.0</ele><time>2026-04-16T22:36:51.999Z</time></trkpt><trkpt lat="36.87741906791803" lon="-108.10188367633164"><ele>1881.9999999999998</ele><time>2026-04-16T22:36:53.999Z</time></trkpt><trkpt lat="36.877439619585985" lon="-108.10200953523983"><ele>1881.9999999999998</ele><time>2026-04-16T22:36:55.999Z</time></trkpt><trkpt lat="36.877411365951524" lon="-108.10210620678234"><ele>1882.0</ele><time>2026-04-16T22:36:56.999Z</time></trkpt><trkpt lat="36.877500066050125" lon="-108.10222329099528"><ele>1882.0</ele><time>2026-04-16T22:36:58.999Z</time></trkpt><trkpt lat="36.87757245414869" lon="-108.10227521336537"><ele>1881.6666666666667</ele><time>2026-04-16T22:36:59.999Z</time></trkpt><trkpt lat="36.87763685388931" lon="-108.10234005152168"><ele>1881.3333333333335</ele><time>2026-04-16T22:37:00.999Z</time></trkpt><trkpt lat="36.87768118446323" lon="-108.10242100341783"><ele>1881.0</ele><time>2026-04-16T22:37:01.999Z</time></trkpt><trkpt lat="36.877719235267016" lon="-108.10249359797272"><ele>1880.6666666666665</ele><time>2026-04-16T22:37:02.999Z</time></trkpt><trkpt lat="36.87777931558465" lon="-108.10256599499833"><ele>1880.3333333333333</ele><time>2026-04-16T22:37:03.999Z</time></trkpt><trkpt lat="36.87786378488424" lon="-108.10265385322242"><ele>1880.0</ele><time>2026-04-16T22:37:04.999Z</time></trkpt><trkpt lat="36.87793309753563" lon="-108.10269207923847"><ele>1880.0</ele><time>2026-04-16T22:37:06Z</time></trkpt><trkpt lat="36.87799284319476" lon="-108.10272516534556"><ele>1880.0</ele><time>2026-04-16T22:37:07Z</time></trkpt><trkpt lat="36.87805755715215" lon="-108.10278003414481"><ele>1880.0</ele><time>2026-04-16T22:37:08Z</time></trkpt><trkpt lat="36.878074961280106" lon="-108.10291985221428"><ele>1880.0</ele><time>2026-04-16T22:37:10Z</time></trkpt><trkpt lat="36.87795328307813" lon="-108.10296158677575"><ele>1880.0</ele><time>2026-04-16T22:37:11Z</time></trkpt><trkpt lat="36.87785718855268" lon="-108.10303978237593"><ele>1880.0</ele><time>2026-04-16T22:37:12Z</time></trkpt><trkpt lat="36.87776731257815" lon="-108.10312576250979"><ele>1880.0</ele><time>2026-04-16T22:37:13Z</time></trkpt><trkpt lat="36.877668721803154" lon="-108.1031985648208"><ele>1880.0</ele><time>2026-04-16T22:37:14Z</time></trkpt><trkpt lat="36.87758691470967" lon="-108.10325348429399"><ele>1880.0</ele><time>2026-04-16T22:37:15Z</time></trkpt><trkpt lat="36.87751271663774" lon="-108.1033226341582"><ele>1880.0</ele><time>2026-04-16T22:37:16Z</time></trkpt><trkpt lat="36.87744728605315" lon="-108.10337510528647"><ele>1878.4999999999998</ele><time>2026-04-16T22:37:17Z</time></trkpt><trkpt lat="36.87738470307108" lon="-108.103418029125"><ele>1877.0</ele><time>2026-04-16T22:37:18Z</time></trkpt><trkpt lat="36.87732368484152" lon="-108.10347055673174"><ele>1875.5</ele><time>2026-04-16T22:37:19Z</time></trkpt><trkpt lat="36.877271558632756" lon="-108.1035339480372"><ele>1874.0</ele><time>2026-04-16T22:37:20Z</time></trkpt><trkpt lat="36.8772002375691" lon="-108.10360080580358"><ele>1872.4999999999998</ele><time>2026-04-16T22:37:21Z</time></trkpt><trkpt lat="36.877108864686136" lon="-108.10367877460975"><ele>1871.0</ele><time>2026-04-16T22:37:22Z</time></trkpt><trkpt lat="36.87701402372567" lon="-108.10374554662106"><ele>1870.9999999999998</ele><time>2026-04-16T22:37:23Z</time></trkpt><trkpt lat="36.876945876608694" lon="-108.10379828311667"><ele>1871.0</ele><time>2026-04-16T22:37:24Z</time></trkpt><trkpt lat="36.87688814468356" lon="-108.10383684410003"><ele>1871.0</ele><time>2026-04-16T22:37:25Z</time></trkpt><trkpt lat="36.87679393400237" lon="-108.10390367980115"><ele>1871.0</ele><time>2026-04-16T22:37:27Z</time></trkpt><trkpt lat="36.87677351693348" lon="-108.10398740595328"><ele>1870.9999999999998</ele><time>2026-04-16T22:37:28Z</time></trkpt><trkpt lat="36.87674668876263" lon="-108.10408024101723"><ele>1871.0</ele><time>2026-04-16T22:37:30Z</time></trkpt><trkpt lat="36.87663557672221" lon="-108.10400121828893"><ele>1870.3333333333333</ele><time>2026-04-16T22:37:32Z</time></trkpt><trkpt lat="36.876572810722465" lon="-108.10395580853114"><ele>1869.6666666666665</ele><time>2026-04-16T22:37:33Z</time></trkpt><trkpt lat="36.876513699811305" lon="-108.10390139251416"><ele>1869.0</ele><time>2026-04-16T22:37:34Z</time></trkpt><trkpt lat="36.87645573660174" lon="-108.10383116919552"><ele>1868.3333333333335</ele><time>2026-04-16T22:37:35Z</time></trkpt><trkpt lat="36.876407940218996" lon="-108.1037504057161"><ele>1867.6666666666667</ele><time>2026-04-16T22:37:36Z</time></trkpt><trkpt lat="36.876360935012094" lon="-108.1036502532646"><ele>1867.0</ele><time>2026-04-16T22:37:37Z</time></trkpt><trkpt lat="36.87630727141302" lon="-108.10353492855216"><ele>1867.0</ele><time>2026-04-16T22:37:38Z</time></trkpt><trkpt lat="36.87625844148101" lon="-108.10341883664285"><ele>1866.9999999999998</ele><time>2026-04-16T22:37:39Z</time></trkpt><trkpt lat="36.8762288190012" lon="-108.10328401971681"><ele>1866.9999999999998</ele><time>2026-04-16T22:37:40Z</time></trkpt><trkpt lat="36.87619390662274" lon="-108.10319009023857"><ele>1867.0</ele><time>2026-04-16T22:37:41Z</time></trkpt><trkpt lat="36.87613502308313" lon="-108.10311876584154"><ele>1867.0</ele><time>2026-04-16T22:37:42Z</time></trkpt><trkpt lat="36.87607680009493" lon="-108.10300557133439"><ele>1867.3333333333335</ele><time>2026-04-16T22:37:43Z</time></trkpt><trkpt lat="36.876025598854994" lon="-108.10291521619303"><ele>1867.6666666666667</ele><time>2026-04-16T22:37:44Z</time></trkpt><trkpt lat="36.875974393496215" lon="-108.10280725622782"><ele>1868.0</ele><time>2026-04-16T22:37:45Z</time></trkpt><trkpt lat="36.875921503388746" lon="-108.10272302948246"><ele>1868.3333333333335</ele><time>2026-04-16T22:37:46Z</time></trkpt><trkpt lat="36.87586115688067" lon="-108.10267738549929"><ele>1868.6666666666667</ele><time>2026-04-16T22:37:47Z</time></trkpt><trkpt lat="36.87579076909719" lon="-108.10263224576127"><ele>1869.0</ele><time>2026-04-16T22:37:48Z</time></trkpt><trkpt lat="36.87569206004036" lon="-108.10264097842783"><ele>1869.0</ele><time>2026-04-16T22:37:49Z</time></trkpt><trkpt lat="36.87561924264042" lon="-108.10269109958834"><ele>1869.0</ele><time>2026-04-16T22:37:50Z</time></trkpt><trkpt lat="36.875552866549015" lon="-108.10269731044963"><ele>1869.0</ele><time>2026-04-16T22:37:52Z</time></trkpt><trkpt lat="36.87543434406097" lon="-108.10276771963585"><ele>1869.0</ele><time>2026-04-16T22:37:54Z</time></trkpt><trkpt lat="36.875351726778646" lon="-108.10278618512456"><ele>1869.0</ele><time>2026-04-16T22:37:55Z</time></trkpt><trkpt lat="36.87526953091899" lon="-108.1027919197413"><ele>1869.0</ele><time>2026-04-16T22:37:56Z</time></trkpt><trkpt lat="36.87518552768351" lon="-108.10281014861314"><ele>1869.0</ele><time>2026-04-16T22:37:57Z</time></trkpt><trkpt lat="36.87512075973577" lon="-108.10282160916516"><ele>1869.0</ele><time>2026-04-16T22:37:58Z</time></trkpt><trkpt lat="36.87505874869496" lon="-108.10278551714242"><ele>1869.0</ele><time>2026-04-16T22:37:59Z</time></trkpt><trkpt lat="36.87498531640182" lon="-108.10274921561711"><ele>1869.0</ele><time>2026-04-16T22:38:00Z</time></trkpt><trkpt lat="36.874906639085076" lon="-108.10273274848424"><ele>1869.0</ele><time>2026-04-16T22:38:01Z</time></trkpt><trkpt lat="36.87484035283769" lon="-108.10279865659703"><ele>1869.0</ele><time>2026-04-16T22:38:02Z</time></trkpt><trkpt lat="36.87478387152877" lon="-108.10284853110157"><ele>1869.0</ele><time>2026-04-16T22:38:03Z</time></trkpt><trkpt lat="36.87472359068257" lon="-108.10289370920293"><ele>1869.8333333333333</ele><time>2026-04-16T22:38:04Z</time></trkpt><trkpt lat="36.874712285890844" lon="-108.10299199637969"><ele>1870.6666666666665</ele><time>2026-04-16T22:38:05Z</time></trkpt><trkpt lat="36.87469029657741" lon="-108.10312590207964"><ele>1871.5</ele><time>2026-04-16T22:38:06Z</time></trkpt><trkpt lat="36.87465059712914" lon="-108.10319923878708"><ele>1872.3333333333333</ele><time>2026-04-16T22:38:07Z</time></trkpt><trkpt lat="36.874585208273245" lon="-108.10320278069491"><ele>1873.1666666666665</ele><time>2026-04-16T22:38:08Z</time></trkpt><trkpt lat="36.87451952765355" lon="-108.1032344645783"><ele>1874.0</ele><time>2026-04-16T22:38:09Z</time></trkpt><trkpt lat="36.874491727931925" lon="-108.10332476464819"><ele>1873.9999999999998</ele><time>2026-04-16T22:38:10Z</time></trkpt><trkpt lat="36.87444479124786" lon="-108.10342518701556"><ele>1874.0</ele><time>2026-04-16T22:38:11Z</time></trkpt><trkpt lat="36.87438701939996" lon="-108.10347273570083"><ele>1874.0</ele><time>2026-04-16T22:38:12Z</time></trkpt><trkpt lat="36.874294693010214" lon="-108.10349998290931"><ele>1874.0</ele><time>2026-04-16T22:38:13Z</time></trkpt><trkpt lat="36.874221251264174" lon="-108.10354095174004"><ele>1873.9999999999998</ele><time>2026-04-16T22:38:14Z</time></trkpt><trkpt lat="36.874163502407285" lon="-108.10359665029968"><ele>1874.0</ele><time>2026-04-16T22:38:15Z</time></trkpt><trkpt lat="36.87411580472756" lon="-108.10365352650759"><ele>1874.9999999999998</ele><time>2026-04-16T22:38:16Z</time></trkpt><trkpt lat="36.87404610831989" lon="-108.10370617043698"><ele>1876.0</ele><time>2026-04-16T22:38:17Z</time></trkpt><trkpt lat="36.87397226341121" lon="-108.10375248870764"><ele>1877.0</ele><time>2026-04-16T22:38:18Z</time></trkpt><trkpt lat="36.87390410741773" lon="-108.10381184244056"><ele>1878.0</ele><time>2026-04-16T22:38:19Z</time></trkpt><trkpt lat="36.87383569524802" lon="-108.10386682550721"><ele>1878.9999999999998</ele><time>2026-04-16T22:38:20Z</time></trkpt><trkpt lat="36.8737777421915" lon="-108.1039308516127"><ele>1880.0</ele><time>2026-04-16T22:38:21Z</time></trkpt><trkpt lat="36.873734660203816" lon="-108.10399027928628"><ele>1879.9999999999998</ele><time>2026-04-16T22:38:22Z</time></trkpt><trkpt lat="36.87364768587911" lon="-108.10406904360916"><ele>1880.0</ele><time>2026-04-16T22:38:24Z</time></trkpt><trkpt lat="36.87358780996737" lon="-108.10409582156521"><ele>1880.0</ele><time>2026-04-16T22:38:25Z</time></trkpt><trkpt lat="36.87352484610557" lon="-108.10411778308436"><ele>1880.0</ele><time>2026-04-16T22:38:26Z</time></trkpt><trkpt lat="36.87345416733586" lon="-108.10407212274751"><ele>1879.9999999999998</ele><time>2026-04-16T22:38:28Z</time></trkpt><trkpt lat="36.87345774272385" lon="-108.1039067875183"><ele>1880.0</ele><time>2026-04-16T22:38:30Z</time></trkpt><trkpt lat="36.87347098621212" lon="-108.10382200315922"><ele>1879.9999999999998</ele><time>2026-04-16T22:38:31Z</time></trkpt><trkpt lat="36.8735015418143" lon="-108.10371361664407"><ele>1880.0</ele><time>2026-04-16T22:38:33Z</time></trkpt><trkpt lat="36.87353421630552" lon="-108.10364310534351"><ele>1880.0</ele><time>2026-04-16T22:38:34Z</time></trkpt><trkpt lat="36.87351750081792" lon="-108.10354693101948"><ele>1880.0</ele><time>2026-04-16T22:38:35Z</time></trkpt><trkpt lat="36.87352134196096" lon="-108.10346422417335"><ele>1879.9999999999998</ele><time>2026-04-16T22:38:36Z</time></trkpt><trkpt lat="36.873601878225536" lon="-108.10339615807491"><ele>1880.0</ele><time>2026-04-16T22:38:37Z</time></trkpt><trkpt lat="36.87368706125758" lon="-108.10330792958243"><ele>1880.1666666666665</ele><time>2026-04-16T22:38:38Z</time></trkpt><trkpt lat="36.873738518591345" lon="-108.10321054363392"><ele>1880.3333333333333</ele><time>2026-04-16T22:38:39Z</time></trkpt><trkpt lat="36.8737584107696" lon="-108.10310099560986"><ele>1880.5</ele><time>2026-04-16T22:38:40Z</time></trkpt><trkpt lat="36.87377099422098" lon="-108.10300885518303"><ele>1880.6666666666665</ele><time>2026-04-16T22:38:41Z</time></trkpt><trkpt lat="36.87379474838819" lon="-108.10290521562558"><ele>1880.8333333333333</ele><time>2026-04-16T22:38:42Z</time></trkpt><trkpt lat="36.87379359506518" lon="-108.10282650852731"><ele>1881.0</ele><time>2026-04-16T22:38:43Z</time></trkpt><trkpt lat="36.87374172435457" lon="-108.10273544972516"><ele>1881.0</ele><time>2026-04-16T22:38:44Z</time></trkpt><trkpt lat="36.873695556763494" lon="-108.10266718592278"><ele>1881.0</ele><time>2026-04-16T22:38:45Z</time></trkpt><trkpt lat="36.8736315984991" lon="-108.10258971784445"><ele>1881.0</ele><time>2026-04-16T22:38:46Z</time></trkpt><trkpt lat="36.87363837966225" lon="-108.10249366902889"><ele>1881.0</ele><time>2026-04-16T22:38:47Z</time></trkpt><trkpt lat="36.87353416438896" lon="-108.10243573078748"><ele>1881.0</ele><time>2026-04-16T22:38:49Z</time></trkpt><trkpt lat="36.873472185756384" lon="-108.10236091890067"><ele>1881.0</ele><time>2026-04-16T22:38:50Z</time></trkpt><trkpt lat="36.873413286201554" lon="-108.10228156819612"><ele>1882.4</ele><time>2026-04-16T22:38:51Z</time></trkpt><trkpt lat="36.87330165449103" lon="-108.10219577149238"><ele>1883.8</ele><time>2026-04-16T22:38:53Z</time></trkpt><trkpt lat="36.87321327485185" lon="-108.10213200967388"><ele>1885.2000000000003</ele><time>2026-04-16T22:38:54Z</time></trkpt><trkpt lat="36.87313012611682" lon="-108.10207872892941"><ele>1886.6000000000001</ele><time>2026-04-16T22:38:55Z</time></trkpt><trkpt lat="36.87305823919916" lon="-108.10201180844517"><ele>1888.0</ele><time>2026-04-16T22:38:56Z</time></trkpt><trkpt lat="36.87299777933263" lon="-108.10195077232378"><ele>1888.0000000000002</ele><time>2026-04-16T22:38:57Z</time></trkpt><trkpt lat="36.8729453980141" lon="-108.10190609519125"><ele>1888.0</ele><time>2026-04-16T22:38:58Z</time></trkpt><trkpt lat="36.87290330802274" lon="-108.101842090651"><ele>1888.0</ele><time>2026-04-16T22:38:59Z</time></trkpt><trkpt lat="36.872877409189385" lon="-108.10172979025648"><ele>1888.0</ele><time>2026-04-16T22:39:00Z</time></trkpt><trkpt lat="36.872887910074034" lon="-108.10163157828775"><ele>1888.0000000000002</ele><time>2026-04-16T22:39:01Z</time></trkpt><trkpt lat="36.872902434069964" lon="-108.10151991654214"><ele>1888.0</ele><time>2026-04-16T22:39:02Z</time></trkpt><trkpt lat="36.87286781177731" lon="-108.10142259504117"><ele>1887.8333333333335</ele><time>2026-04-16T22:39:03Z</time></trkpt><trkpt lat="36.87282528776015" lon="-108.10133606009569"><ele>1887.6666666666667</ele><time>2026-04-16T22:39:04Z</time></trkpt><trkpt lat="36.872790457397215" lon="-108.10124203953923"><ele>1887.5</ele><time>2026-04-16T22:39:05Z</time></trkpt><trkpt lat="36.872774002159595" lon="-108.10114581156347"><ele>1887.3333333333335</ele><time>2026-04-16T22:39:06Z</time></trkpt><trkpt lat="36.87274678974353" lon="-108.10104755992141"><ele>1887.1666666666667</ele><time>2026-04-16T22:39:07Z</time></trkpt><trkpt lat="36.87271902787699" lon="-108.10093923677152"><ele>1887.0</ele><time>2026-04-16T22:39:08Z</time></trkpt><trkpt lat="36.87271042219605" lon="-108.10084052049358"><ele>1887.0</ele><time>2026-04-16T22:39:08.999Z</time></trkpt><trkpt lat="36.87267173390595" lon="-108.10075811208154"><ele>1886.9999999999998</ele><time>2026-04-16T22:39:09.999Z</time></trkpt><trkpt lat="36.872623800083765" lon="-108.1006668137129"><ele>1886.9999999999998</ele><time>2026-04-16T22:39:11Z</time></trkpt><trkpt lat="36.87255377673098" lon="-108.10053583977378"><ele>1887.0</ele><time>2026-04-16T22:39:12Z</time></trkpt><trkpt lat="36.872516422679396" lon="-108.10039099769534"><ele>1887.0</ele><time>2026-04-16T22:39:13Z</time></trkpt><trkpt lat="36.87248123686503" lon="-108.10026299150532"><ele>1888.0</ele><time>2026-04-16T22:39:14Z</time></trkpt><trkpt lat="36.872435911946624" lon="-108.10014175199437"><ele>1888.9999999999998</ele><time>2026-04-16T22:39:15Z</time></trkpt><trkpt lat="36.8723670362199" lon="-108.10004088399023"><ele>1889.9999999999998</ele><time>2026-04-16T22:39:16Z</time></trkpt><trkpt lat="36.87228381502095" lon="-108.09998040196024"><ele>1891.0</ele><time>2026-04-16T22:39:17Z</time></trkpt><trkpt lat="36.87216372326717" lon="-108.09997245495913"><ele>1892.0</ele><time>2026-04-16T22:39:18Z</time></trkpt><trkpt lat="36.87206460732573" lon="-108.0999413952259"><ele>1892.0</ele><time>2026-04-16T22:39:19Z</time></trkpt><trkpt lat="36.87197969312063" lon="-108.09981181898883"><ele>1892.0</ele><time>2026-04-16T22:39:21Z</time></trkpt><trkpt lat="36.87187142581074" lon="-108.09967433834335"><ele>1892.0</ele><time>2026-04-16T22:39:23Z</time></trkpt><trkpt lat="36.871844447014055" lon="-108.0995809843314"><ele>1892.0</ele><time>2026-04-16T22:39:24Z</time></trkpt><trkpt lat="36.871811639438185" lon="-108.09944809074813"><ele>1893.0</ele><time>2026-04-16T22:39:25Z</time></trkpt><trkpt lat="36.87175324733326" lon="-108.09932819759665"><ele>1893.9999999999998</ele><time>2026-04-16T22:39:26Z</time></trkpt><trkpt lat="36.871673083174706" lon="-108.09924988382292"><ele>1894.9999999999998</ele><time>2026-04-16T22:39:27Z</time></trkpt><trkpt lat="36.87157871114891" lon="-108.09919684331722"><ele>1896.0</ele><time>2026-04-16T22:39:28Z</time></trkpt><trkpt lat="36.8714771999385" lon="-108.09912723999814"><ele>1897.0</ele><time>2026-04-16T22:39:29Z</time></trkpt><trkpt lat="36.871405198154086" lon="-108.09902834483941"><ele>1897.1999999999998</ele><time>2026-04-16T22:39:30Z</time></trkpt><trkpt lat="36.87135801843739" lon="-108.09891588896642"><ele>1897.3999999999999</ele><time>2026-04-16T22:39:31Z</time></trkpt><trkpt lat="36.87133887795157" lon="-108.09880013467469"><ele>1897.6000000000001</ele><time>2026-04-16T22:39:32Z</time></trkpt><trkpt lat="36.87133803628206" lon="-108.09869363170263"><ele>1897.8000000000002</ele><time>2026-04-16T22:39:33Z</time></trkpt><trkpt lat="36.871313563129334" lon="-108.09856653456984"><ele>1898.0</ele><time>2026-04-16T22:39:34Z</time></trkpt><trkpt lat="36.8712907935644" lon="-108.09844903766206"><ele>1898.0</ele><time>2026-04-16T22:39:35Z</time></trkpt><trkpt lat="36.87128352173006" lon="-108.09836104329499"><ele>1898.0000000000002</ele><time>2026-04-16T22:39:36Z</time></trkpt><trkpt lat="36.87119025194268" lon="-108.09821574999309"><ele>1898.0000000000002</ele><time>2026-04-16T22:39:38Z</time></trkpt><trkpt lat="36.87109054183258" lon="-108.0981358959493"><ele>1898.0</ele><time>2026-04-16T22:39:39Z</time></trkpt><trkpt lat="36.87102930512106" lon="-108.09806647585071"><ele>1898.0</ele><time>2026-04-16T22:39:40Z</time></trkpt><trkpt lat="36.8709688609492" lon="-108.09798993200748"><ele>1898.8333333333333</ele><time>2026-04-16T22:39:41Z</time></trkpt><trkpt lat="36.87092551918296" lon="-108.09792360875497"><ele>1899.6666666666665</ele><time>2026-04-16T22:39:42Z</time></trkpt><trkpt lat="36.870880076138604" lon="-108.09786783785383"><ele>1900.5</ele><time>2026-04-16T22:39:43Z</time></trkpt><trkpt lat="36.870819557431304" lon="-108.09780313114672"><ele>1901.3333333333335</ele><time>2026-04-16T22:39:44Z</time></trkpt><trkpt lat="36.870752795497154" lon="-108.09773521270644"><ele>1902.1666666666667</ele><time>2026-04-16T22:39:45Z</time></trkpt><trkpt lat="36.87067000349289" lon="-108.09766751240964"><ele>1903.0</ele><time>2026-04-16T22:39:46Z</time></trkpt><trkpt lat="36.87057190645922" lon="-108.09760587074467"><ele>1903.0</ele><time>2026-04-16T22:39:47Z</time></trkpt><trkpt lat="36.870477658485626" lon="-108.09754298319953"><ele>1903.0000000000002</ele><time>2026-04-16T22:39:48Z</time></trkpt><trkpt lat="36.870400966396446" lon="-108.09746108940173"><ele>1903.0000000000002</ele><time>2026-04-16T22:39:49Z</time></trkpt><trkpt lat="36.87032844935758" lon="-108.0973713141839"><ele>1903.0</ele><time>2026-04-16T22:39:50Z</time></trkpt><trkpt lat="36.87025822998196" lon="-108.097268255502"><ele>1903.0</ele><time>2026-04-16T22:39:51Z</time></trkpt><trkpt lat="36.87020663905356" lon="-108.09716567789974"><ele>1903.2</ele><time>2026-04-16T22:39:52Z</time></trkpt><trkpt lat="36.87013567735053" lon="-108.09708588158904"><ele>1903.4</ele><time>2026-04-16T22:39:54Z</time></trkpt><trkpt lat="36.870040050149235" lon="-108.09706878139063"><ele>1903.6000000000001</ele><time>2026-04-16T22:39:56Z</time></trkpt><trkpt lat="36.86998673623678" lon="-108.09702278566172"><ele>1903.8000000000002</ele><time>2026-04-16T22:39:57Z</time></trkpt><trkpt lat="36.86987953806306" lon="-108.09701071299662"><ele>1904.0</ele><time>2026-04-16T22:39:58Z</time></trkpt><trkpt lat="36.86975630313267" lon="-108.097002160298"><ele>1904.5</ele><time>2026-04-16T22:39:59Z</time></trkpt><trkpt lat="36.86965867483447" lon="-108.09695235628617"><ele>1905.0</ele><time>2026-04-16T22:40:00Z</time></trkpt><trkpt lat="36.8695788352386" lon="-108.09689757179034"><ele>1905.5</ele><time>2026-04-16T22:40:01Z</time></trkpt><trkpt lat="36.86946585826776" lon="-108.09680114200334"><ele>1906.0</ele><time>2026-04-16T22:40:02Z</time></trkpt><trkpt lat="36.86935354255794" lon="-108.09674298011386"><ele>1906.75</ele><time>2026-04-16T22:40:03Z</time></trkpt><trkpt lat="36.86923565994577" lon="-108.09671387460409"><ele>1907.5</ele><time>2026-04-16T22:40:04Z</time></trkpt><trkpt lat="36.869119191204426" lon="-108.09672344374597"><ele>1908.25</ele><time>2026-04-16T22:40:05Z</time></trkpt><trkpt lat="36.869003025591276" lon="-108.09677248134322"><ele>1909.0</ele><time>2026-04-16T22:40:06Z</time></trkpt><trkpt lat="36.868907243334796" lon="-108.09684672294385"><ele>1909.0000000000002</ele><time>2026-04-16T22:40:07Z</time></trkpt><trkpt lat="36.868844016921344" lon="-108.09691221892439"><ele>1909.0</ele><time>2026-04-16T22:40:08Z</time></trkpt><trkpt lat="36.86878002648359" lon="-108.0969126944461"><ele>1909.0</ele><time>2026-04-16T22:40:09Z</time></trkpt><trkpt lat="36.86869817191431" lon="-108.09687602368743"><ele>1909.0</ele><time>2026-04-16T22:40:10Z</time></trkpt><trkpt lat="36.868625064426325" lon="-108.09681787024661"><ele>1909.0000000000002</ele><time>2026-04-16T22:40:11Z</time></trkpt><trkpt lat="36.86854998914609" lon="-108.09673263063235"><ele>1909.0</ele><time>2026-04-16T22:40:12Z</time></trkpt><trkpt lat="36.86846834340653" lon="-108.09661012227232"><ele>1907.4</ele><time>2026-04-16T22:40:13Z</time></trkpt><trkpt lat="36.868388023651086" lon="-108.09650255102012"><ele>1905.8000000000002</ele><time>2026-04-16T22:40:14Z</time></trkpt><trkpt lat="36.86829355443523" lon="-108.09640922303564"><ele>1904.1999999999998</ele><time>2026-04-16T22:40:15Z</time></trkpt><trkpt lat="36.8682113962027" lon="-108.09634448524821"><ele>1902.6</ele><time>2026-04-16T22:40:16Z</time></trkpt><trkpt lat="36.868132362227655" lon="-108.09628951442895"><ele>1901.0</ele><time>2026-04-16T22:40:17Z</time></trkpt><trkpt lat="36.868048032571274" lon="-108.0962065344967"><ele>1901.0</ele><time>2026-04-16T22:40:18Z</time></trkpt><trkpt lat="36.867961048690944" lon="-108.09610968432844"><ele>1901.0</ele><time>2026-04-16T22:40:19Z</time></trkpt><trkpt lat="36.86791702243471" lon="-108.09599048440414"><ele>1901.0</ele><time>2026-04-16T22:40:20Z</time></trkpt><trkpt lat="36.86785658795533" lon="-108.09588962395837"><ele>1901.0</ele><time>2026-04-16T22:40:21Z</time></trkpt><trkpt lat="36.86779240274792" lon="-108.09582072410174"><ele>1901.0</ele><time>2026-04-16T22:40:22Z</time></trkpt><trkpt lat="36.867723813164346" lon="-108.09574025387782"><ele>1900.4999999999998</ele><time>2026-04-16T22:40:23Z</time></trkpt><trkpt lat="36.86766523435933" lon="-108.0956326943654"><ele>1900.0</ele><time>2026-04-16T22:40:24Z</time></trkpt><trkpt lat="36.86760538093668" lon="-108.09556844758232"><ele>1899.5</ele><time>2026-04-16T22:40:25Z</time></trkpt><trkpt lat="36.867541436863895" lon="-108.09548323996363"><ele>1899.0</ele><time>2026-04-16T22:40:26Z</time></trkpt><trkpt lat="36.86747833561748" lon="-108.09539728296222"><ele>1898.4999999999998</ele><time>2026-04-16T22:40:27Z</time></trkpt><trkpt lat="36.867427636092565" lon="-108.09534198983167"><ele>1898.0</ele><time>2026-04-16T22:40:28Z</time></trkpt><trkpt lat="36.86734492571061" lon="-108.09529710221523"><ele>1897.3333333333333</ele><time>2026-04-16T22:40:30Z</time></trkpt><trkpt lat="36.867249088590995" lon="-108.09526872601613"><ele>1896.6666666666665</ele><time>2026-04-16T22:40:47Z</time></trkpt><trkpt lat="36.86718655823415" lon="-108.09525663203631"><ele>1896.0</ele><time>2026-04-16T22:40:48Z</time></trkpt><trkpt lat="36.86706415803036" lon="-108.09521757953196"><ele>1895.3333333333335</ele><time>2026-04-16T22:40:50Z</time></trkpt><trkpt lat="36.86699430893791" lon="-108.09517401556806"><ele>1894.6666666666667</ele><time>2026-04-16T22:40:51Z</time></trkpt><trkpt lat="36.866934373120124" lon="-108.0951087571844"><ele>1894.0</ele><time>2026-04-16T22:40:52Z</time></trkpt><trkpt lat="36.86688276532792" lon="-108.09502005782144"><ele>1893.2</ele><time>2026-04-16T22:40:53Z</time></trkpt><trkpt lat="36.866839078307606" lon="-108.09490613884927"><ele>1892.4</ele><time>2026-04-16T22:40:54Z</time></trkpt><trkpt lat="36.86680173440258" lon="-108.09480049573386"><ele>1891.6</ele><time>2026-04-16T22:40:55Z</time></trkpt><trkpt lat="36.86677397835023" lon="-108.09468979589552"><ele>1890.8</ele><time>2026-04-16T22:40:56Z</time></trkpt><trkpt lat="36.866746038260125" lon="-108.09460771282343"><ele>1890.0</ele><time>2026-04-16T22:40:57Z</time></trkpt><trkpt lat="36.8665967638718" lon="-108.0946023997062"><ele>1889.8</ele><time>2026-04-16T22:40:59Z</time></trkpt><trkpt lat="36.86647565505485" lon="-108.0946544480328"><ele>1889.6</ele><time>2026-04-16T22:41:00Z</time></trkpt><trkpt lat="36.866396473677995" lon="-108.09464117623232"><ele>1889.4</ele><time>2026-04-16T22:41:01Z</time></trkpt><trkpt lat="36.866280178596945" lon="-108.09461349290068"><ele>1889.2</ele><time>2026-04-16T22:41:02Z</time></trkpt><trkpt lat="36.86619698065485" lon="-108.0946206673523"><ele>1889.0</ele><time>2026-04-16T22:41:03Z</time></trkpt><trkpt lat="36.86613420175965" lon="-108.09459661105885"><ele>1889.0</ele><time>2026-04-16T22:41:04Z</time></trkpt><trkpt lat="36.86604138740581" lon="-108.0945373653791"><ele>1889.0</ele><time>2026-04-16T22:41:05Z</time></trkpt><trkpt lat="36.865927044362444" lon="-108.09449720806481"><ele>1889.0</ele><time>2026-04-16T22:41:06Z</time></trkpt><trkpt lat="36.865841796941524" lon="-108.09449315086435"><ele>1889.0</ele><time>2026-04-16T22:41:07Z</time></trkpt><trkpt lat="36.86576926982067" lon="-108.09451222400293"><ele>1889.0</ele><time>2026-04-16T22:41:08Z</time></trkpt><trkpt lat="36.8656805132499" lon="-108.09453326353155"><ele>1888.2</ele><time>2026-04-16T22:41:09Z</time></trkpt><trkpt lat="36.865587397192904" lon="-108.09454947536943"><ele>1887.4</ele><time>2026-04-16T22:41:10Z</time></trkpt><trkpt lat="36.86548468295275" lon="-108.09454643966279"><ele>1886.6</ele><time>2026-04-16T22:41:11Z</time></trkpt><trkpt lat="36.865381946441474" lon="-108.09455025424263"><ele>1885.8</ele><time>2026-04-16T22:41:12Z</time></trkpt><trkpt lat="36.86529892865645" lon="-108.09456722008463"><ele>1885.0</ele><time>2026-04-16T22:41:13Z</time></trkpt><trkpt lat="36.86523102693079" lon="-108.09461645288022"><ele>1885.0</ele><time>2026-04-16T22:41:14Z</time></trkpt><trkpt lat="36.86515516736848" lon="-108.09469922715193"><ele>1885.0</ele><time>2026-04-16T22:41:16Z</time></trkpt><trkpt lat="36.8650604235033" lon="-108.09472553926594"><ele>1885.0</ele><time>2026-04-16T22:41:18Z</time></trkpt><trkpt lat="36.8649328187922" lon="-108.09473590857117"><ele>1885.0</ele><time>2026-04-16T22:41:20Z</time></trkpt><trkpt lat="36.86486140615277" lon="-108.09476392910499"><ele>1885.0</ele><time>2026-04-16T22:41:21Z</time></trkpt><trkpt lat="36.86479526266889" lon="-108.09479344203197"><ele>1883.8</ele><time>2026-04-16T22:41:22Z</time></trkpt><trkpt lat="36.864671181248234" lon="-108.0947291901964"><ele>1882.6</ele><time>2026-04-16T22:41:24Z</time></trkpt><trkpt lat="36.864614432310134" lon="-108.09462752780362"><ele>1881.4</ele><time>2026-04-16T22:41:25Z</time></trkpt><trkpt lat="36.86457306548481" lon="-108.0945446049055"><ele>1880.2</ele><time>2026-04-16T22:41:26Z</time></trkpt><trkpt lat="36.86450360417114" lon="-108.09445420183295"><ele>1879.0</ele><time>2026-04-16T22:41:27Z</time></trkpt><trkpt lat="36.86443208713114" lon="-108.09436876811762"><ele>1879.0000000000002</ele><time>2026-04-16T22:41:28Z</time></trkpt><trkpt lat="36.8643649819498" lon="-108.09431764202263"><ele>1879.0</ele><time>2026-04-16T22:41:29Z</time></trkpt><trkpt lat="36.864291956035075" lon="-108.094323611194"><ele>1879.0</ele><time>2026-04-16T22:41:30Z</time></trkpt><trkpt lat="36.86421796522752" lon="-108.09434937686284"><ele>1879.0</ele><time>2026-04-16T22:42:33Z</time></trkpt><trkpt lat="36.864152024750425" lon="-108.09436074390102"><ele>1879.0000000000002</ele><time>2026-04-16T22:42:49Z</time></trkpt><trkpt lat="36.86404627983207" lon="-108.09441470251042"><ele>1879.0</ele><time>2026-04-16T22:42:51Z</time></trkpt><trkpt lat="36.863984068411995" lon="-108.09449549151537"><ele>1878.6</ele><time>2026-04-16T22:42:53Z</time></trkpt><trkpt lat="36.863934026580324" lon="-108.09459648266007"><ele>1878.2</ele><time>2026-04-16T22:42:55Z</time></trkpt><trkpt lat="36.86388532017394" lon="-108.09470783416143"><ele>1877.7999999999997</ele><time>2026-04-16T22:42:57Z</time></trkpt><trkpt lat="36.86379204854286" lon="-108.09478594548555"><ele>1877.3999999999999</ele><time>2026-04-16T22:42:59Z</time></trkpt><trkpt lat="36.86370207066271" lon="-108.09482540467492"><ele>1877.0</ele><time>2026-04-16T22:43:01Z</time></trkpt><trkpt lat="36.86364769759092" lon="-108.09486640629864"><ele>1877.0</ele><time>2026-04-16T22:43:02Z</time></trkpt><trkpt lat="36.8635784808664" lon="-108.09485128025862"><ele>1876.9999999999998</ele><time>2026-04-16T22:43:03Z</time></trkpt><trkpt lat="36.86349081165146" lon="-108.09482197725292"><ele>1876.9999999999998</ele><time>2026-04-16T22:43:04Z</time></trkpt><trkpt lat="36.86339691324483" lon="-108.09478157471672"><ele>1877.0</ele><time>2026-04-16T22:43:05Z</time></trkpt><trkpt lat="36.86331674306318" lon="-108.09475216670444"><ele>1877.0</ele><time>2026-04-16T22:43:06Z</time></trkpt><trkpt lat="36.863196062811824" lon="-108.09479964470236"><ele>1876.8</ele><time>2026-04-16T22:43:08Z</time></trkpt><trkpt lat="36.86311282390351" lon="-108.09487635074882"><ele>1876.6</ele><time>2026-04-16T22:43:09Z</time></trkpt><trkpt lat="36.86299880100347" lon="-108.09486466281909"><ele>1876.3999999999999</ele><time>2026-04-16T22:43:11Z</time></trkpt><trkpt lat="36.86287283622385" lon="-108.09484226791685"><ele>1876.1999999999998</ele><time>2026-04-16T22:43:13Z</time></trkpt><trkpt lat="36.86281220645302" lon="-108.09488509522039"><ele>1876.0</ele><time>2026-04-16T22:43:14Z</time></trkpt><trkpt lat="36.86275406094311" lon="-108.09495403089021"><ele>1876.3333333333335</ele><time>2026-04-16T22:43:15Z</time></trkpt><trkpt lat="36.86270699073825" lon="-108.09504032664009"><ele>1876.6666666666667</ele><time>2026-04-16T22:43:16Z</time></trkpt><trkpt lat="36.86261796114344" lon="-108.09514340192966"><ele>1877.0</ele><time>2026-04-16T22:43:18Z</time></trkpt><trkpt lat="36.862559060742335" lon="-108.09519784724122"><ele>1877.3333333333335</ele><time>2026-04-16T22:43:19Z</time></trkpt><trkpt lat="36.862529837895174" lon="-108.09526872555575"><ele>1877.6666666666667</ele><time>2026-04-16T22:43:20Z</time></trkpt><trkpt lat="36.86246797724032" lon="-108.09532340268954"><ele>1878.0</ele><time>2026-04-16T22:43:21Z</time></trkpt><trkpt lat="36.862390336750416" lon="-108.0953669248382"><ele>1878.0</ele><time>2026-04-16T22:43:22Z</time></trkpt><trkpt lat="36.86232528145736" lon="-108.09540777050324"><ele>1878.0</ele><time>2026-04-16T22:43:23Z</time></trkpt><trkpt lat="36.86222962159566" lon="-108.09541510311182"><ele>1878.0</ele><time>2026-04-16T22:43:24Z</time></trkpt><trkpt lat="36.86213337996525" lon="-108.09541621608952"><ele>1878.0</ele><time>2026-04-16T22:43:25Z</time></trkpt><trkpt lat="36.862066681588814" lon="-108.09538692017378"><ele>1878.0</ele><time>2026-04-16T22:43:26Z</time></trkpt><trkpt lat="36.861996961455745" lon="-108.09534158751674"><ele>1878.0</ele><time>2026-04-16T22:43:27Z</time></trkpt><trkpt lat="36.86191763150047" lon="-108.09529203192987"><ele>1878.0</ele><time>2026-04-16T22:43:28Z</time></trkpt><trkpt lat="36.86181838579449" lon="-108.09525709604762"><ele>1878.0</ele><time>2026-04-16T22:43:29Z</time></trkpt><trkpt lat="36.86174505464793" lon="-108.09521845744815"><ele>1878.0</ele><time>2026-04-16T22:43:30Z</time></trkpt><trkpt lat="36.86168027207153" lon="-108.09516947432029"><ele>1878.0</ele><time>2026-04-16T22:43:31Z</time></trkpt><trkpt lat="36.861615953577115" lon="-108.09514492546836"><ele>1878.0</ele><time>2026-04-16T22:43:32Z</time></trkpt><trkpt lat="36.86153632886494" lon="-108.09515896233555"><ele>1878.0</ele><time>2026-04-16T22:43:35Z</time></trkpt><trkpt lat="36.86147713747235" lon="-108.09508997192874"><ele>1878.0</ele><time>2026-04-16T22:43:37Z</time></trkpt><trkpt lat="36.86140087033673" lon="-108.09508035514683"><ele>1878.0</ele><time>2026-04-16T22:43:39Z</time></trkpt><trkpt lat="36.86127556273119" lon="-108.09505313403167"><ele>1878.0</ele><time>2026-04-16T22:43:41Z</time></trkpt><trkpt lat="36.861212757969035" lon="-108.09503581883668"><ele>1878.0</ele><time>2026-04-16T22:43:42Z</time></trkpt><trkpt lat="36.86114787087555" lon="-108.09504921292657"><ele>1878.0</ele><time>2026-04-16T22:43:43Z</time></trkpt><trkpt lat="36.861034389437215" lon="-108.09504123230158"><ele>1878.0</ele><time>2026-04-16T22:43:45Z</time></trkpt><trkpt lat="36.86089980674452" lon="-108.09501016219387"><ele>1876.6000000000001</ele><time>2026-04-16T22:43:47Z</time></trkpt><trkpt lat="36.86081377744381" lon="-108.09498749257511"><ele>1875.2000000000003</ele><time>2026-04-16T22:43:48Z</time></trkpt><trkpt lat="36.86073018116799" lon="-108.09494085228842"><ele>1873.8</ele><time>2026-04-16T22:43:49Z</time></trkpt><trkpt lat="36.86064333484797" lon="-108.09488295793598"><ele>1872.4</ele><time>2026-04-16T22:43:50Z</time></trkpt><trkpt lat="36.86055871433764" lon="-108.09484171824899"><ele>1871.0</ele><time>2026-04-16T22:43:51Z</time></trkpt><trkpt lat="36.8604721110568" lon="-108.09480528019996"><ele>1870.8333333333333</ele><time>2026-04-16T22:43:52Z</time></trkpt><trkpt lat="36.86040161958693" lon="-108.09476383998238"><ele>1870.6666666666665</ele><time>2026-04-16T22:43:53Z</time></trkpt><trkpt lat="36.86035047937097" lon="-108.09468722932321"><ele>1870.5</ele><time>2026-04-16T22:43:54Z</time></trkpt><trkpt lat="36.86027439882937" lon="-108.09460548162862"><ele>1870.3333333333335</ele><time>2026-04-16T22:43:56Z</time></trkpt><trkpt lat="36.86018197106889" lon="-108.0945962089193"><ele>1870.1666666666667</ele><time>2026-04-16T22:43:58Z</time></trkpt><trkpt lat="36.860117491948444" lon="-108.09458982971066"><ele>1870.0</ele><time>2026-04-16T22:43:59Z</time></trkpt><trkpt lat="36.86000655625242" lon="-108.09464119068541"><ele>1869.1666666666667</ele><time>2026-04-16T22:44:00Z</time></trkpt><trkpt lat="36.85991919325362" lon="-108.09467223957469"><ele>1868.3333333333335</ele><time>2026-04-16T22:44:01Z</time></trkpt><trkpt lat="36.85986008204431" lon="-108.09472999441819"><ele>1867.5</ele><time>2026-04-16T22:44:02Z</time></trkpt><trkpt lat="36.85981058305505" lon="-108.09480949349815"><ele>1866.6666666666665</ele><time>2026-04-16T22:44:03Z</time></trkpt><trkpt lat="36.85974948708283" lon="-108.09483015073617"><ele>1865.8333333333333</ele><time>2026-04-16T22:44:05Z</time></trkpt><trkpt lat="36.859647699601204" lon="-108.09479707880574"><ele>1865.0</ele><time>2026-04-16T22:44:07Z</time></trkpt><trkpt lat="36.85955915393052" lon="-108.09482253728969"><ele>1865.0</ele><time>2026-04-16T22:44:08Z</time></trkpt><trkpt lat="36.859484651879725" lon="-108.09484343338423"><ele>1865.0000000000002</ele><time>2026-04-16T22:44:09Z</time></trkpt><trkpt lat="36.85941595133344" lon="-108.09486248798547"><ele>1865.0</ele><time>2026-04-16T22:44:10Z</time></trkpt><trkpt lat="36.8593536306995" lon="-108.09488164464182"><ele>1865.0</ele><time>2026-04-16T22:44:11Z</time></trkpt><trkpt lat="36.85927480884906" lon="-108.09488386857585"><ele>1865.0000000000002</ele><time>2026-04-16T22:44:12Z</time></trkpt><trkpt lat="36.85920557180235" lon="-108.09489913602376"><ele>1865.0</ele><time>2026-04-16T22:44:13Z</time></trkpt><trkpt lat="36.85914742805112" lon="-108.0949348945544"><ele>1865.0</ele><time>2026-04-16T22:44:14Z</time></trkpt><trkpt lat="36.85908501985565" lon="-108.09496472567888"><ele>1865.9999999999998</ele><time>2026-04-16T22:44:15Z</time></trkpt><trkpt lat="36.859003449723254" lon="-108.094996019684"><ele>1867.0</ele><time>2026-04-16T22:44:16Z</time></trkpt><trkpt lat="36.85889045684173" lon="-108.09508897435079"><ele>1868.0</ele><time>2026-04-16T22:44:18Z</time></trkpt><trkpt lat="36.85882825169185" lon="-108.0951476936441"><ele>1869.0</ele><time>2026-04-16T22:44:19Z</time></trkpt><trkpt lat="36.858768557175004" lon="-108.09520147117544"><ele>1869.9999999999998</ele><time>2026-04-16T22:44:20Z</time></trkpt><trkpt lat="36.8587059585193" lon="-108.09525216184835"><ele>1871.0</ele><time>2026-04-16T22:44:21Z</time></trkpt><trkpt lat="36.858645683343866" lon="-108.09529749492516"><ele>1870.9999999999998</ele><time>2026-04-16T22:44:22Z</time></trkpt><trkpt lat="36.858578645635184" lon="-108.09535116835048"><ele>1871.0</ele><time>2026-04-16T22:44:23Z</time></trkpt><trkpt lat="36.85850010310723" lon="-108.09540335903226"><ele>1871.0</ele><time>2026-04-16T22:44:24Z</time></trkpt><trkpt lat="36.85844282406234" lon="-108.09545538050511"><ele>1871.0</ele><time>2026-04-16T22:44:25Z</time></trkpt><trkpt lat="36.8583985924121" lon="-108.09552149954533"><ele>1870.9999999999998</ele><time>2026-04-16T22:44:26Z</time></trkpt><trkpt lat="36.8583384352326" lon="-108.0955903015882"><ele>1871.0</ele><time>2026-04-16T22:44:27Z</time></trkpt><trkpt lat="36.858275024003675" lon="-108.09564262890345"><ele>1871.3333333333333</ele><time>2026-04-16T22:44:28Z</time></trkpt><trkpt lat="36.85818136025324" lon="-108.09571352217817"><ele>1871.6666666666665</ele><time>2026-04-16T22:44:30Z</time></trkpt><trkpt lat="36.85810617513075" lon="-108.09574717606047"><ele>1872.0</ele><time>2026-04-16T22:44:31Z</time></trkpt><trkpt lat="36.858026583094066" lon="-108.09576722576662"><ele>1872.3333333333335</ele><time>2026-04-16T22:44:32Z</time></trkpt><trkpt lat="36.85795026666709" lon="-108.09578059633523"><ele>1872.6666666666667</ele><time>2026-04-16T22:44:33Z</time></trkpt><trkpt lat="36.857887811742934" lon="-108.09582027208549"><ele>1873.0</ele><time>2026-04-16T22:44:34Z</time></trkpt><trkpt lat="36.85780919403429" lon="-108.09592948358106"><ele>1874.2</ele><time>2026-04-16T22:44:36Z</time></trkpt><trkpt lat="36.857742378634335" lon="-108.09598689152918"><ele>1875.4</ele><time>2026-04-16T22:44:37Z</time></trkpt><trkpt lat="36.85764891573168" lon="-108.09599712052665"><ele>1876.6000000000001</ele><time>2026-04-16T22:44:38Z</time></trkpt><trkpt lat="36.85755345349972" lon="-108.09600885147488"><ele>1877.8000000000002</ele><time>2026-04-16T22:44:39Z</time></trkpt><trkpt lat="36.857479997945546" lon="-108.09599521279652"><ele>1879.0</ele><time>2026-04-16T22:44:40Z</time></trkpt><trkpt lat="36.8573393452489" lon="-108.09597450631756"><ele>1879.1666666666667</ele><time>2026-04-16T22:44:42Z</time></trkpt><trkpt lat="36.85725730828064" lon="-108.09599507716953"><ele>1879.3333333333335</ele><time>2026-04-16T22:44:43Z</time></trkpt><trkpt lat="36.8571812807078" lon="-108.09602010166145"><ele>1879.5</ele><time>2026-04-16T22:44:44Z</time></trkpt><trkpt lat="36.857079143442796" lon="-108.09603728097612"><ele>1879.6666666666665</ele><time>2026-04-16T22:44:46Z</time></trkpt><trkpt lat="36.85698897849931" lon="-108.09605792672558"><ele>1879.8333333333333</ele><time>2026-04-16T22:44:47Z</time></trkpt><trkpt lat="36.8569176983511" lon="-108.09608112147752"><ele>1880.0</ele><time>2026-04-16T22:44:48Z</time></trkpt><trkpt lat="36.856828499849065" lon="-108.09606147691362"><ele>1879.3333333333333</ele><time>2026-04-16T22:44:49Z</time></trkpt><trkpt lat="36.85675204808391" lon="-108.0960695612519"><ele>1878.6666666666665</ele><time>2026-04-16T22:44:50Z</time></trkpt><trkpt lat="36.85666544856912" lon="-108.09610892314889"><ele>1878.0</ele><time>2026-04-16T22:44:51Z</time></trkpt><trkpt lat="36.856600345375846" lon="-108.09613479517228"><ele>1877.3333333333335</ele><time>2026-04-16T22:44:52Z</time></trkpt><trkpt lat="36.85651322894391" lon="-108.09615370042165"><ele>1876.6666666666667</ele><time>2026-04-16T22:44:53Z</time></trkpt><trkpt lat="36.85644550047313" lon="-108.09616946903643"><ele>1876.0</ele><time>2026-04-16T22:44:54Z</time></trkpt><trkpt lat="36.85635066375477" lon="-108.09618687096074"><ele>1876.0000000000002</ele><time>2026-04-16T22:44:56Z</time></trkpt><trkpt lat="36.85627657111266" lon="-108.09615753469711"><ele>1876.0</ele><time>2026-04-16T22:46:40Z</time></trkpt><trkpt lat="36.85623596535405" lon="-108.09607723834982"><ele>1876.0</ele><time>2026-04-16T22:46:41Z</time></trkpt><trkpt lat="36.856234350124325" lon="-108.09597386597922"><ele>1876.0</ele><time>2026-04-16T22:46:42Z</time></trkpt><trkpt lat="36.85624221465305" lon="-108.0958639075492"><ele>1876.0000000000002</ele><time>2026-04-16T22:46:43Z</time></trkpt><trkpt lat="36.85622960356455" lon="-108.0957802122856"><ele>1876.0</ele><time>2026-04-16T22:46:44Z</time></trkpt><trkpt lat="36.85618144622292" lon="-108.09568421449774"><ele>1875.6</ele><time>2026-04-16T22:46:45Z</time></trkpt><trkpt lat="36.85612902536912" lon="-108.0956000009353"><ele>1875.1999999999998</ele><time>2026-04-16T22:46:46Z</time></trkpt><trkpt lat="36.85605182317688" lon="-108.09552443715808"><ele>1874.8000000000002</ele><time>2026-04-16T22:46:47Z</time></trkpt><trkpt lat="36.85594995481911" lon="-108.09546019031872"><ele>1874.4</ele><time>2026-04-16T22:46:48Z</time></trkpt><trkpt lat="36.85587961637415" lon="-108.09538527186022"><ele>1874.0</ele><time>2026-04-16T22:46:49Z</time></trkpt><trkpt lat="36.85582165617452" lon="-108.09530050608144"><ele>1872.8333333333333</ele><time>2026-04-16T22:46:50Z</time></trkpt><trkpt lat="36.85574614268914" lon="-108.09524129368046"><ele>1871.6666666666665</ele><time>2026-04-16T22:46:52Z</time></trkpt><trkpt lat="36.85566320622963" lon="-108.0951701223828"><ele>1870.5</ele><time>2026-04-16T22:46:54Z</time></trkpt><trkpt lat="36.855581897266305" lon="-108.09512876748362"><ele>1869.3333333333335</ele><time>2026-04-16T22:46:55Z</time></trkpt><trkpt lat="36.855501567883465" lon="-108.09508192113438"><ele>1868.1666666666667</ele><time>2026-04-16T22:46:56Z</time></trkpt><trkpt lat="36.855441857277555" lon="-108.09504699873783"><ele>1867.0</ele><time>2026-04-16T22:46:57Z</time></trkpt><trkpt lat="36.8553654245944" lon="-108.09501688029566"><ele>1867.0000000000002</ele><time>2026-04-16T22:46:58Z</time></trkpt><trkpt lat="36.8552916034424" lon="-108.09498455038052"><ele>1867.0</ele><time>2026-04-16T22:46:59Z</time></trkpt><trkpt lat="36.85523820175839" lon="-108.09491758433985"><ele>1867.0</ele><time>2026-04-16T22:47:00Z</time></trkpt><trkpt lat="36.855194642784554" lon="-108.09485488001764"><ele>1867.0</ele><time>2026-04-16T22:47:01Z</time></trkpt><trkpt lat="36.85508313744045" lon="-108.09488626050909"><ele>1867.0000000000002</ele><time>2026-04-16T22:47:03Z</time></trkpt><trkpt lat="36.85501912234571" lon="-108.09492028039007"><ele>1867.0</ele><time>2026-04-16T22:47:04Z</time></trkpt><trkpt lat="36.854922660651496" lon="-108.09497654131555"><ele>1865.8</ele><time>2026-04-16T22:47:06Z</time></trkpt><trkpt lat="36.85480152815584" lon="-108.09495463560964"><ele>1864.6</ele><time>2026-04-16T22:47:08Z</time></trkpt><trkpt lat="36.85471750800695" lon="-108.09496366819297"><ele>1863.3999999999999</ele><time>2026-04-16T22:47:09Z</time></trkpt><trkpt lat="36.85461967897322" lon="-108.09497777520869"><ele>1862.1999999999998</ele><time>2026-04-16T22:47:10Z</time></trkpt><trkpt lat="36.854540921209434" lon="-108.09497699511917"><ele>1861.0</ele><time>2026-04-16T22:47:11Z</time></trkpt><trkpt lat="36.85448596466184" lon="-108.09490768817078"><ele>1861.0000000000002</ele><time>2026-04-16T22:47:12Z</time></trkpt><trkpt lat="36.854440133708366" lon="-108.09480809898572"><ele>1861.0</ele><time>2026-04-16T22:47:13Z</time></trkpt><trkpt lat="36.854388012442605" lon="-108.09474842577164"><ele>1861.0</ele><time>2026-04-16T22:47:14Z</time></trkpt><trkpt lat="36.85431442557195" lon="-108.09477480361959"><ele>1861.0</ele><time>2026-04-16T22:47:15Z</time></trkpt><trkpt lat="36.854217154428106" lon="-108.09479642097256"><ele>1861.0000000000002</ele><time>2026-04-16T22:47:16Z</time></trkpt><trkpt lat="36.85415777532042" lon="-108.0948230927313"><ele>1861.0</ele><time>2026-04-16T22:47:17Z</time></trkpt><trkpt lat="36.85406430008128" lon="-108.09487123830881"><ele>1859.4</ele><time>2026-04-16T22:47:18Z</time></trkpt><trkpt lat="36.853969461352435" lon="-108.09494437956496"><ele>1857.8</ele><time>2026-04-16T22:47:19Z</time></trkpt><trkpt lat="36.853890646841194" lon="-108.09500858731873"><ele>1856.2000000000003</ele><time>2026-04-16T22:47:20Z</time></trkpt><trkpt lat="36.853795722445874" lon="-108.09504462430824"><ele>1854.6000000000001</ele><time>2026-04-16T22:47:21Z</time></trkpt><trkpt lat="36.85369098736294" lon="-108.09505118946936"><ele>1853.0</ele><time>2026-04-16T22:47:22Z</time></trkpt><trkpt lat="36.853621907754736" lon="-108.09508929237676"><ele>1852.9999999999998</ele><time>2026-04-16T22:47:23Z</time></trkpt><trkpt lat="36.853542080400096" lon="-108.09519009801313"><ele>1853.0</ele><time>2026-04-16T22:47:24Z</time></trkpt><trkpt lat="36.85345708984886" lon="-108.09525664154133"><ele>1853.0</ele><time>2026-04-16T22:47:25Z</time></trkpt><trkpt lat="36.853398857891804" lon="-108.09532786406358"><ele>1853.0</ele><time>2026-04-16T22:47:26Z</time></trkpt><trkpt lat="36.853353513887924" lon="-108.09538757362516"><ele>1852.9999999999998</ele><time>2026-04-16T22:47:27Z</time></trkpt><trkpt lat="36.85328309775033" lon="-108.09539781744033"><ele>1853.0</ele><time>2026-04-16T22:47:28Z</time></trkpt><trkpt lat="36.85320768128915" lon="-108.09541851522303"><ele>1851.8333333333333</ele><time>2026-04-16T22:47:29Z</time></trkpt><trkpt lat="36.853150438851685" lon="-108.09549105466326"><ele>1850.6666666666665</ele><time>2026-04-16T22:47:30Z</time></trkpt><trkpt lat="36.85309470741674" lon="-108.09557875744748"><ele>1849.5</ele><time>2026-04-16T22:47:31Z</time></trkpt><trkpt lat="36.85301292876142" lon="-108.09561288671969"><ele>1848.3333333333335</ele><time>2026-04-16T22:47:32Z</time></trkpt><trkpt lat="36.85292567916243" lon="-108.09557626309218"><ele>1847.1666666666667</ele><time>2026-04-16T22:47:33Z</time></trkpt><trkpt lat="36.85291148285097" lon="-108.09549823566509"><ele>1846.0</ele><time>2026-04-16T22:47:34Z</time></trkpt><trkpt lat="36.852895622928344" lon="-108.09539908163305"><ele>1846.0000000000002</ele><time>2026-04-16T22:47:35Z</time></trkpt><trkpt lat="36.85285182086919" lon="-108.09530480265089"><ele>1846.0</ele><time>2026-04-16T22:47:36Z</time></trkpt><trkpt lat="36.85278716194089" lon="-108.09525102293965"><ele>1846.0</ele><time>2026-04-16T22:47:37Z</time></trkpt><trkpt lat="36.85271082041194" lon="-108.09522582791918"><ele>1846.0</ele><time>2026-04-16T22:47:38Z</time></trkpt><trkpt lat="36.85264327819613" lon="-108.09517253259399"><ele>1846.0000000000002</ele><time>2026-04-16T22:47:39Z</time></trkpt><trkpt lat="36.85255878217572" lon="-108.09511142559653"><ele>1846.0</ele><time>2026-04-16T22:47:40Z</time></trkpt><trkpt lat="36.85246256942259" lon="-108.09500356317568"><ele>1845.0000000000002</ele><time>2026-04-16T22:47:41Z</time></trkpt><trkpt lat="36.85240996327367" lon="-108.09491238469573"><ele>1844.0</ele><time>2026-04-16T22:47:42Z</time></trkpt><trkpt lat="36.85231404128486" lon="-108.09487231549475"><ele>1843.0</ele><time>2026-04-16T22:47:43Z</time></trkpt><trkpt lat="36.85224383209791" lon="-108.09486618217068"><ele>1842.0</ele><time>2026-04-16T22:47:44Z</time></trkpt><trkpt lat="36.852218433324474" lon="-108.09476726898713"><ele>1841.0000000000002</ele><time>2026-04-16T22:47:45Z</time></trkpt><trkpt lat="36.85222069208597" lon="-108.09466358455147"><ele>1840.0</ele><time>2026-04-16T22:47:46Z</time></trkpt><trkpt lat="36.85221382778534" lon="-108.09458437387748"><ele>1840.0</ele><time>2026-04-16T22:47:47Z</time></trkpt><trkpt lat="36.85220076419664" lon="-108.09446562684246"><ele>1840.0</ele><time>2026-04-16T22:47:48Z</time></trkpt><trkpt lat="36.852103203901216" lon="-108.09441829921857"><ele>1840.0</ele><time>2026-04-16T22:47:50Z</time></trkpt><trkpt lat="36.85199741466547" lon="-108.09449043404533"><ele>1840.0</ele><time>2026-04-16T22:47:51Z</time></trkpt><trkpt lat="36.8519248225572" lon="-108.09453585567806"><ele>1840.0</ele><time>2026-04-16T22:47:52Z</time></trkpt><trkpt lat="36.85182423701699" lon="-108.09456962884008"><ele>1839.4</ele><time>2026-04-16T22:47:53Z</time></trkpt><trkpt lat="36.85171514668975" lon="-108.09464154072559"><ele>1838.8</ele><time>2026-04-16T22:47:54Z</time></trkpt><trkpt lat="36.851625946363455" lon="-108.0947303145506"><ele>1838.1999999999998</ele><time>2026-04-16T22:47:55Z</time></trkpt><trkpt lat="36.851546052111296" lon="-108.09478531276022"><ele>1837.6</ele><time>2026-04-16T22:47:56Z</time></trkpt><trkpt lat="36.85147227189565" lon="-108.09479222701977"><ele>1837.0</ele><time>2026-04-16T22:47:57Z</time></trkpt><trkpt lat="36.85136803189996" lon="-108.0947981062998"><ele>1837.0</ele><time>2026-04-16T22:47:58Z</time></trkpt><trkpt lat="36.851252968611846" lon="-108.09482607429872"><ele>1836.9999999999998</ele><time>2026-04-16T22:47:59Z</time></trkpt><trkpt lat="36.851148219873835" lon="-108.09486016791112"><ele>1836.9999999999998</ele><time>2026-04-16T22:48:00Z</time></trkpt><trkpt lat="36.85104970436212" lon="-108.09485925270366"><ele>1837.0</ele><time>2026-04-16T22:48:01Z</time></trkpt><trkpt lat="36.85097423143284" lon="-108.09487309163893"><ele>1837.0</ele><time>2026-04-16T22:48:02Z</time></trkpt><trkpt lat="36.850928121606174" lon="-108.09492883440613"><ele>1836.0</ele><time>2026-04-16T22:48:03Z</time></trkpt><trkpt lat="36.85091446800928" lon="-108.09506147304809"><ele>1834.9999999999998</ele><time>2026-04-16T22:48:04Z</time></trkpt><trkpt lat="36.850888998373314" lon="-108.09517778982841"><ele>1833.9999999999998</ele><time>2026-04-16T22:48:05Z</time></trkpt><trkpt lat="36.8508637871522" lon="-108.09528749858846"><ele>1833.0</ele><time>2026-04-16T22:48:06Z</time></trkpt><trkpt lat="36.85083481521473" lon="-108.09539290882704"><ele>1832.0</ele><time>2026-04-16T22:48:07Z</time></trkpt><trkpt lat="36.850805204889504" lon="-108.09551748354559"><ele>1832.0</ele><time>2026-04-16T22:48:08Z</time></trkpt><trkpt lat="36.85075283089401" lon="-108.09564822111463"><ele>1831.9999999999998</ele><time>2026-04-16T22:48:09Z</time></trkpt><trkpt lat="36.8507288660456" lon="-108.09574588527835"><ele>1831.9999999999998</ele><time>2026-04-16T22:48:10Z</time></trkpt><trkpt lat="36.85068167864456" lon="-108.09581624166886"><ele>1832.0</ele><time>2026-04-16T22:48:11Z</time></trkpt><trkpt lat="36.85057548658791" lon="-108.09590753395453"><ele>1832.0</ele><time>2026-04-16T22:48:13Z</time></trkpt><trkpt lat="36.8504877135135" lon="-108.09593631582086"><ele>1830.6666666666665</ele><time>2026-04-16T22:48:14Z</time></trkpt><trkpt lat="36.85043394560248" lon="-108.09600382244638"><ele>1829.3333333333333</ele><time>2026-04-16T22:48:15Z</time></trkpt><trkpt lat="36.85041664083242" lon="-108.096112250123"><ele>1828.0</ele><time>2026-04-16T22:48:16Z</time></trkpt><trkpt lat="36.85039948896424" lon="-108.09621037835493"><ele>1826.6666666666665</ele><time>2026-04-16T22:48:17Z</time></trkpt><trkpt lat="36.85036691820029" lon="-108.09628077800026"><ele>1825.3333333333333</ele><time>2026-04-16T22:48:18Z</time></trkpt><trkpt lat="36.85029716357991" lon="-108.09633159268186"><ele>1824.0</ele><time>2026-04-16T22:48:19Z</time></trkpt><trkpt lat="36.85025340408615" lon="-108.09639941338682"><ele>1824.0</ele><time>2026-04-16T22:48:20Z</time></trkpt><trkpt lat="36.850219738973635" lon="-108.09647783208231"><ele>1824.0</ele><time>2026-04-16T22:48:21Z</time></trkpt><trkpt lat="36.850190574762244" lon="-108.09657510647445"><ele>1824.0</ele><time>2026-04-16T22:48:22Z</time></trkpt><trkpt lat="36.85016532584529" lon="-108.09666020184451"><ele>1824.0</ele><time>2026-04-16T22:48:23Z</time></trkpt><trkpt lat="36.85013658674726" lon="-108.09676852639647"><ele>1824.0</ele><time>2026-04-16T22:48:24Z</time></trkpt><trkpt lat="36.85011447144693" lon="-108.0968839924425"><ele>1824.0</ele><time>2026-04-16T22:48:25Z</time></trkpt><trkpt lat="36.85007982345403" lon="-108.0969941734737"><ele>1823.2</ele><time>2026-04-16T22:48:26Z</time></trkpt><trkpt lat="36.85004227429473" lon="-108.09711325575009"><ele>1822.4</ele><time>2026-04-16T22:48:27Z</time></trkpt><trkpt lat="36.85002183882814" lon="-108.09722730354748"><ele>1821.6</ele><time>2026-04-16T22:48:28Z</time></trkpt><trkpt lat="36.8500121607121" lon="-108.0973368953837"><ele>1820.8</ele><time>2026-04-16T22:48:29Z</time></trkpt><trkpt lat="36.849941040711556" lon="-108.0974152244821"><ele>1820.0</ele><time>2026-04-16T22:48:30Z</time></trkpt><trkpt lat="36.849808680376626" lon="-108.09745542543531"><ele>1818.25</ele><time>2026-04-16T22:48:31Z</time></trkpt><trkpt lat="36.84967277187101" lon="-108.0974831379733"><ele>1816.5</ele><time>2026-04-16T22:48:32Z</time></trkpt><trkpt lat="36.84955051948308" lon="-108.09750623408982"><ele>1814.75</ele><time>2026-04-16T22:48:33Z</time></trkpt><trkpt lat="36.84945540842369" lon="-108.0975422635152"><ele>1813.0</ele><time>2026-04-16T22:48:34Z</time></trkpt><trkpt lat="36.849365667651945" lon="-108.09758576616773"><ele>1813.0</ele><time>2026-04-16T22:48:35Z</time></trkpt><trkpt lat="36.84925965604743" lon="-108.09763617605209"><ele>1813.0000000000002</ele><time>2026-04-16T22:48:36Z</time></trkpt><trkpt lat="36.849147637102575" lon="-108.0976306780098"><ele>1813.0000000000002</ele><time>2026-04-16T22:48:37Z</time></trkpt><trkpt lat="36.849070216189986" lon="-108.097628696693"><ele>1813.0</ele><time>2026-04-16T22:48:38Z</time></trkpt><trkpt lat="36.84904285429436" lon="-108.09775227134641"><ele>1813.0</ele><time>2026-04-16T22:48:40Z</time></trkpt><trkpt lat="36.849032829667514" lon="-108.09788313841815"><ele>1813.0</ele><time>2026-04-16T22:48:41Z</time></trkpt><trkpt lat="36.849017513561655" lon="-108.09798511667054"><ele>1813.0000000000002</ele><time>2026-04-16T22:48:42Z</time></trkpt><trkpt lat="36.84893865390225" lon="-108.09805428450223"><ele>1813.0000000000002</ele><time>2026-04-16T22:48:44Z</time></trkpt><trkpt lat="36.84884212024287" lon="-108.09805396820747"><ele>1813.0</ele><time>2026-04-16T22:48:45Z</time></trkpt><trkpt lat="36.848730176161844" lon="-108.09807793545265"><ele>1813.0</ele><time>2026-04-16T22:48:46Z</time></trkpt><trkpt lat="36.84862721592968" lon="-108.0981068249765"><ele>1813.0</ele><time>2026-04-16T22:48:47Z</time></trkpt><trkpt lat="36.84854332442282" lon="-108.09809807082229"><ele>1813.0000000000002</ele><time>2026-04-16T22:48:48Z</time></trkpt><trkpt lat="36.848480478289474" lon="-108.09811638579492"><ele>1813.0000000000002</ele><time>2026-04-16T22:48:49Z</time></trkpt><trkpt lat="36.848391062369764" lon="-108.09818886767673"><ele>1813.0</ele><time>2026-04-16T22:48:50Z</time></trkpt><trkpt lat="36.84826540781827" lon="-108.09823200824229"><ele>1813.0</ele><time>2026-04-16T22:48:51Z</time></trkpt><trkpt lat="36.84818050589698" lon="-108.09827784361728"><ele>1811.8000000000002</ele><time>2026-04-16T22:48:52Z</time></trkpt><trkpt lat="36.848100614491614" lon="-108.09833724022145"><ele>1810.6000000000001</ele><time>2026-04-16T22:48:53Z</time></trkpt><trkpt lat="36.84801399236126" lon="-108.09841226636475"><ele>1809.3999999999999</ele><time>2026-04-16T22:48:54Z</time></trkpt><trkpt lat="36.84792844143286" lon="-108.09845718157904"><ele>1808.1999999999998</ele><time>2026-04-16T22:48:55Z</time></trkpt><trkpt lat="36.84785078923326" lon="-108.09852065341904"><ele>1807.0</ele><time>2026-04-16T22:48:56Z</time></trkpt><trkpt lat="36.84777271873269" lon="-108.09863622635446"><ele>1807.0</ele><time>2026-04-16T22:48:57Z</time></trkpt><trkpt lat="36.847699422809164" lon="-108.09874840547408"><ele>1807.0</ele><time>2026-04-16T22:48:58Z</time></trkpt><trkpt lat="36.8476101123946" lon="-108.09886596395573"><ele>1807.0</ele><time>2026-04-16T22:48:59Z</time></trkpt><trkpt lat="36.847538848220935" lon="-108.09899360995021"><ele>1807.0</ele><time>2026-04-16T22:49:00Z</time></trkpt><trkpt lat="36.84748206090132" lon="-108.09914675329732"><ele>1806.0</ele><time>2026-04-16T22:49:01Z</time></trkpt><trkpt lat="36.84741646962357" lon="-108.0992999263369"><ele>1805.0</ele><time>2026-04-16T22:49:02Z</time></trkpt><trkpt lat="36.84732219506731" lon="-108.09943781609175"><ele>1804.0</ele><time>2026-04-16T22:49:03Z</time></trkpt><trkpt lat="36.84719221438042" lon="-108.0995497312923"><ele>1803.0</ele><time>2026-04-16T22:49:04Z</time></trkpt><trkpt lat="36.847060854747596" lon="-108.0996472405572"><ele>1803.0</ele><time>2026-04-16T22:49:05Z</time></trkpt><trkpt lat="36.846950664485405" lon="-108.09974172872937"><ele>1803.0</ele><time>2026-04-16T22:49:06Z</time></trkpt><trkpt lat="36.84687460170405" lon="-108.09985987891139"><ele>1803.0</ele><time>2026-04-16T22:49:07Z</time></trkpt><trkpt lat="36.84682839252935" lon="-108.0999991581653"><ele>1803.0</ele><time>2026-04-16T22:49:08Z</time></trkpt><trkpt lat="36.846782326981625" lon="-108.10012831428044"><ele>1802.8000000000002</ele><time>2026-04-16T22:49:09Z</time></trkpt><trkpt lat="36.84671804471395" lon="-108.10021644726552"><ele>1802.6000000000001</ele><time>2026-04-16T22:49:10Z</time></trkpt><trkpt lat="36.84663856277754" lon="-108.100243076696"><ele>1802.3999999999999</ele><time>2026-04-16T22:49:11Z</time></trkpt><trkpt lat="36.84654752130976" lon="-108.1002158634825"><ele>1802.1999999999998</ele><time>2026-04-16T22:49:12Z</time></trkpt><trkpt lat="36.84646197206123" lon="-108.1001827086534"><ele>1802.0</ele><time>2026-04-16T22:49:13Z</time></trkpt><trkpt lat="36.84635230940413" lon="-108.1001377720048"><ele>1802.0</ele><time>2026-04-16T22:49:14Z</time></trkpt><trkpt lat="36.84625802628848" lon="-108.10010790125928"><ele>1801.9999999999998</ele><time>2026-04-16T22:49:15Z</time></trkpt><trkpt lat="36.84616093214124" lon="-108.10008326576349"><ele>1801.9999999999998</ele><time>2026-04-16T22:49:16Z</time></trkpt><trkpt lat="36.84606048403067" lon="-108.10004252321663"><ele>1802.0</ele><time>2026-04-16T22:49:17Z</time></trkpt><trkpt lat="36.845954546533555" lon="-108.10002567018816"><ele>1802.0</ele><time>2026-04-16T22:49:18Z</time></trkpt><trkpt lat="36.84586813267398" lon="-108.09996277529017"><ele>1801.8</ele><time>2026-04-16T22:49:19Z</time></trkpt><trkpt lat="36.8458251886027" lon="-108.09986957412634"><ele>1801.6</ele><time>2026-04-16T22:49:20Z</time></trkpt><trkpt lat="36.84570092252006" lon="-108.09990968165236"><ele>1801.3999999999999</ele><time>2026-04-16T22:49:22Z</time></trkpt><trkpt lat="36.845622054533905" lon="-108.10002188978643"><ele>1801.1999999999998</ele><time>2026-04-16T22:49:23Z</time></trkpt><trkpt lat="36.84552855915479" lon="-108.10008724074827"><ele>1801.0</ele><time>2026-04-16T22:49:24Z</time></trkpt><trkpt lat="36.84545200260917" lon="-108.10015759663288"><ele>1801.0000000000002</ele><time>2026-04-16T22:49:25Z</time></trkpt><trkpt lat="36.845382019719736" lon="-108.10019032909226"><ele>1801.0</ele><time>2026-04-16T22:49:26Z</time></trkpt><trkpt lat="36.845292219163674" lon="-108.10021927418613"><ele>1801.0</ele><time>2026-04-16T22:49:27Z</time></trkpt><trkpt lat="36.845215274662905" lon="-108.1002457954088"><ele>1801.0</ele><time>2026-04-16T22:49:28Z</time></trkpt><trkpt lat="36.84513353365282" lon="-108.1002276411583"><ele>1801.0000000000002</ele><time>2026-04-16T22:49:29Z</time></trkpt><trkpt lat="36.845047503254854" lon="-108.10022395526308"><ele>1801.0</ele><time>2026-04-16T22:49:30Z</time></trkpt><trkpt lat="36.844967126998434" lon="-108.10025452851733"><ele>1802.0</ele><time>2026-04-16T22:49:31Z</time></trkpt><trkpt lat="36.8449020566627" lon="-108.10030071191642"><ele>1803.0</ele><time>2026-04-16T22:49:32Z</time></trkpt><trkpt lat="36.84477593714851" lon="-108.10022068368622"><ele>1804.0</ele><time>2026-04-16T22:49:34Z</time></trkpt><trkpt lat="36.844704186491875" lon="-108.10014446448162"><ele>1805.0</ele><time>2026-04-16T22:49:35Z</time></trkpt><trkpt lat="36.84464389252689" lon="-108.10007375674637"><ele>1806.0</ele><time>2026-04-16T22:49:36Z</time></trkpt><trkpt lat="36.844570256266884" lon="-108.09999093659938"><ele>1806.0</ele><time>2026-04-16T22:49:37Z</time></trkpt><trkpt lat="36.84451763317362" lon="-108.0999175719518"><ele>1806.0</ele><time>2026-04-16T22:49:38Z</time></trkpt><trkpt lat="36.84440330528664" lon="-108.09992483094796"><ele>1806.0</ele><time>2026-04-16T22:49:40Z</time></trkpt><trkpt lat="36.844351193104295" lon="-108.09998200525176"><ele>1806.0</ele><time>2026-04-16T22:49:41Z</time></trkpt><trkpt lat="36.8442944612384" lon="-108.10002632483322"><ele>1806.0</ele><time>2026-04-16T22:49:42Z</time></trkpt><trkpt lat="36.84422891375817" lon="-108.10008227077844"><ele>1806.0</ele><time>2026-04-16T22:49:43Z</time></trkpt><trkpt lat="36.84415587716464" lon="-108.10012109344743"><ele>1806.1666666666667</ele><time>2026-04-16T22:49:44Z</time></trkpt><trkpt lat="36.84409101967847" lon="-108.10014653091537"><ele>1806.3333333333335</ele><time>2026-04-16T22:49:45Z</time></trkpt><trkpt lat="36.84402853806677" lon="-108.10018743651177"><ele>1806.5</ele><time>2026-04-16T22:49:46Z</time></trkpt><trkpt lat="36.84396959732581" lon="-108.10024290712587"><ele>1806.6666666666667</ele><time>2026-04-16T22:49:47Z</time></trkpt><trkpt lat="36.843925563745735" lon="-108.1003289995874"><ele>1806.8333333333335</ele><time>2026-04-16T22:49:48Z</time></trkpt><trkpt lat="36.84388958527264" lon="-108.1003942317666"><ele>1807.0</ele><time>2026-04-16T22:49:49Z</time></trkpt><trkpt lat="36.84380733906249" lon="-108.10045831475827"><ele>1807.0000000000002</ele><time>2026-04-16T22:49:50Z</time></trkpt><trkpt lat="36.843707342599465" lon="-108.10050981286194"><ele>1807.0</ele><time>2026-04-16T22:49:51Z</time></trkpt><trkpt lat="36.84362950809055" lon="-108.10059573875614"><ele>1807.0</ele><time>2026-04-16T22:49:52Z</time></trkpt><trkpt lat="36.84359186210438" lon="-108.10066093997729"><ele>1807.0</ele><time>2026-04-16T22:49:53Z</time></trkpt><trkpt lat="36.84355568691523" lon="-108.1007597562829"><ele>1807.0000000000002</ele><time>2026-04-16T22:49:54Z</time></trkpt><trkpt lat="36.84355936020159" lon="-108.10085242922275"><ele>1807.0</ele><time>2026-04-16T22:49:55Z</time></trkpt><trkpt lat="36.84355384753677" lon="-108.10093092621753"><ele>1806.3999999999999</ele><time>2026-04-16T22:49:56Z</time></trkpt><trkpt lat="36.84349854561832" lon="-108.10103617836334"><ele>1805.7999999999997</ele><time>2026-04-16T22:49:57Z</time></trkpt><trkpt lat="36.843459034542896" lon="-108.10113523902191"><ele>1805.2</ele><time>2026-04-16T22:49:58Z</time></trkpt><trkpt lat="36.843461973281386" lon="-108.10123625261093"><ele>1804.6</ele><time>2026-04-16T22:49:59Z</time></trkpt><trkpt lat="36.84348250708455" lon="-108.10137565029855"><ele>1804.0</ele><time>2026-04-16T22:50:00Z</time></trkpt><trkpt lat="36.843499761431076" lon="-108.10151715775879"><ele>1802.8333333333335</ele><time>2026-04-16T22:50:01Z</time></trkpt><trkpt lat="36.84350102087204" lon="-108.1016215239722"><ele>1801.6666666666667</ele><time>2026-04-16T22:50:02Z</time></trkpt><trkpt lat="36.843465458253185" lon="-108.10172359301653"><ele>1800.5</ele><time>2026-04-16T22:50:03Z</time></trkpt><trkpt lat="36.84342144104064" lon="-108.10181137836264"><ele>1799.3333333333335</ele><time>2026-04-16T22:50:04Z</time></trkpt><trkpt lat="36.84343458493281" lon="-108.10190630773576"><ele>1798.1666666666667</ele><time>2026-04-16T22:50:05Z</time></trkpt><trkpt lat="36.84346521590438" lon="-108.10203591422875"><ele>1797.0</ele><time>2026-04-16T22:50:06Z</time></trkpt><trkpt lat="36.843454368305494" lon="-108.10211513955925"><ele>1796.8</ele><time>2026-04-16T22:50:07Z</time></trkpt><trkpt lat="36.84341018007538" lon="-108.10226016716416"><ele>1796.6</ele><time>2026-04-16T22:50:09Z</time></trkpt><trkpt lat="36.84336435867304" lon="-108.10238815133853"><ele>1796.3999999999999</ele><time>2026-04-16T22:50:10Z</time></trkpt><trkpt lat="36.843322387348756" lon="-108.10248308279644"><ele>1796.1999999999998</ele><time>2026-04-16T22:50:11Z</time></trkpt><trkpt lat="36.84329445749594" lon="-108.10257293770309"><ele>1796.0</ele><time>2026-04-16T22:50:12Z</time></trkpt><trkpt lat="36.843271708073075" lon="-108.10267387365842"><ele>1795.0</ele><time>2026-04-16T22:50:13Z</time></trkpt><trkpt lat="36.843241394187565" lon="-108.10280509413612"><ele>1794.0</ele><time>2026-04-16T22:50:14Z</time></trkpt><trkpt lat="36.84321844001328" lon="-108.10293501501586"><ele>1793.0</ele><time>2026-04-16T22:50:15Z</time></trkpt><trkpt lat="36.84319181447582" lon="-108.10306551569789"><ele>1792.0</ele><time>2026-04-16T22:50:16Z</time></trkpt><trkpt lat="36.84314195762878" lon="-108.10320186196414"><ele>1791.0</ele><time>2026-04-16T22:50:17Z</time></trkpt><trkpt lat="36.84309427112363" lon="-108.10336582804126"><ele>1790.0</ele><time>2026-04-16T22:50:18Z</time></trkpt><trkpt lat="36.84304932024475" lon="-108.10350664822126"><ele>1789.0</ele><time>2026-04-16T22:50:19Z</time></trkpt><trkpt lat="36.84300170259303" lon="-108.10365352004987"><ele>1788.0</ele><time>2026-04-16T22:50:20Z</time></trkpt><trkpt lat="36.84295358837679" lon="-108.10379832966844"><ele>1787.0</ele><time>2026-04-16T22:50:21Z</time></trkpt><trkpt lat="36.842916534576275" lon="-108.1039356902588"><ele>1787.0</ele><time>2026-04-16T22:50:22Z</time></trkpt><trkpt lat="36.84287977595273" lon="-108.10405513924576"><ele>1786.9999999999998</ele><time>2026-04-16T22:50:23Z</time></trkpt><trkpt lat="36.84283862844748" lon="-108.10418664739595"><ele>1786.9999999999998</ele><time>2026-04-16T22:50:24Z</time></trkpt><trkpt lat="36.84279603337516" lon="-108.10432629030063"><ele>1787.0</ele><time>2026-04-16T22:50:25Z</time></trkpt><trkpt lat="36.84276456501324" lon="-108.10445995497078"><ele>1787.0</ele><time>2026-04-16T22:50:26Z</time></trkpt><trkpt lat="36.84273906894291" lon="-108.10455543592126"><ele>1786.6</ele><time>2026-04-16T22:50:27Z</time></trkpt><trkpt lat="36.842746515615545" lon="-108.10463830175895"><ele>1786.1999999999998</ele><time>2026-04-16T22:50:28Z</time></trkpt><trkpt lat="36.84273279317227" lon="-108.10476466980253"><ele>1785.8</ele><time>2026-04-16T22:50:30Z</time></trkpt><trkpt lat="36.84264221460638" lon="-108.10479163394379"><ele>1785.4</ele><time>2026-04-16T22:50:32Z</time></trkpt><trkpt lat="36.842555406989746" lon="-108.10481748575505"><ele>1785.0</ele><time>2026-04-16T22:50:34Z</time></trkpt><trkpt lat="36.84246181613797" lon="-108.10486849105108"><ele>1785.0</ele><time>2026-04-16T22:50:36Z</time></trkpt><trkpt lat="36.842366318014356" lon="-108.10497082202725"><ele>1785.0</ele><time>2026-04-16T22:50:38Z</time></trkpt><trkpt lat="36.84229563770522" lon="-108.10500512953296"><ele>1785.0</ele><time>2026-04-16T22:50:39Z</time></trkpt><trkpt lat="36.842210898750174" lon="-108.10502026646627"><ele>1785.0</ele><time>2026-04-16T22:50:40Z</time></trkpt><trkpt lat="36.842134070222365" lon="-108.10503730675482"><ele>1785.0</ele><time>2026-04-16T22:50:41Z</time></trkpt><trkpt lat="36.842064378040725" lon="-108.10509042708412"><ele>1785.0</ele><time>2026-04-16T22:50:42Z</time></trkpt><trkpt lat="36.841993249329335" lon="-108.10513791689675"><ele>1785.0</ele><time>2026-04-16T22:50:43Z</time></trkpt><trkpt lat="36.84193881290887" lon="-108.10519078073546"><ele>1785.0</ele><time>2026-04-16T22:50:44Z</time></trkpt><trkpt lat="36.84192858702901" lon="-108.1053339681786"><ele>1785.0</ele><time>2026-04-16T22:50:46Z</time></trkpt><trkpt lat="36.84203951021259" lon="-108.10543354840433"><ele>1785.0</ele><time>2026-04-16T22:50:48Z</time></trkpt><trkpt lat="36.84210893622463" lon="-108.10549873461127"><ele>1785.0</ele><time>2026-04-16T22:50:49Z</time></trkpt><trkpt lat="36.84216151372787" lon="-108.10556785700796"><ele>1785.0</ele><time>2026-04-16T22:50:50Z</time></trkpt><trkpt lat="36.84220652586972" lon="-108.10562661690057"><ele>1785.0</ele><time>2026-04-16T22:50:51Z</time></trkpt><trkpt lat="36.84226700529242" lon="-108.1057133286296"><ele>1785.0</ele><time>2026-04-16T22:50:52Z</time></trkpt><trkpt lat="36.842327403556375" lon="-108.1058042390635"><ele>1785.0</ele><time>2026-04-16T22:50:53Z</time></trkpt><trkpt lat="36.84239161642997" lon="-108.1058935375633"><ele>1785.0</ele><time>2026-04-16T22:50:54Z</time></trkpt><trkpt lat="36.84242791132345" lon="-108.10597052916921"><ele>1785.0</ele><time>2026-04-16T22:50:55Z</time></trkpt><trkpt lat="36.84239854069721" lon="-108.1061391553659"><ele>1785.25</ele><time>2026-04-16T22:50:57Z</time></trkpt><trkpt lat="36.842338261139936" lon="-108.10627641119213"><ele>1785.5</ele><time>2026-04-16T22:50:58Z</time></trkpt><trkpt lat="36.84228912226567" lon="-108.10642048716386"><ele>1785.75</ele><time>2026-04-16T22:50:59Z</time></trkpt><trkpt lat="36.84221749592498" lon="-108.10656788093434"><ele>1786.0</ele><time>2026-04-16T22:51:00Z</time></trkpt><trkpt lat="36.8421045526802" lon="-108.10669750907176"><ele>1786.5</ele><time>2026-04-16T22:51:01Z</time></trkpt><trkpt lat="36.8419751529692" lon="-108.10681225502682"><ele>1787.0</ele><time>2026-04-16T22:51:02Z</time></trkpt><trkpt lat="36.84185506690179" lon="-108.10694378927029"><ele>1787.5</ele><time>2026-04-16T22:51:03Z</time></trkpt><trkpt lat="36.841795202321705" lon="-108.1070784043697"><ele>1788.0</ele><time>2026-04-16T22:51:04Z</time></trkpt><trkpt lat="36.84174881486557" lon="-108.10720488604142"><ele>1788.0</ele><time>2026-04-16T22:51:05Z</time></trkpt><trkpt lat="36.841742799754066" lon="-108.10729218685721"><ele>1788.0</ele><time>2026-04-16T22:51:07Z</time></trkpt><trkpt lat="36.841800696905885" lon="-108.10737361640511"><ele>1788.0</ele><time>2026-04-16T22:51:08Z</time></trkpt><trkpt lat="36.8418200811074" lon="-108.10749436057091"><ele>1788.0</ele><time>2026-04-16T22:51:09Z</time></trkpt><trkpt lat="36.84181833967775" lon="-108.10761122390254"><ele>1788.0</ele><time>2026-04-16T22:51:10Z</time></trkpt><trkpt lat="36.84185155663639" lon="-108.10771596734956"><ele>1788.0</ele><time>2026-04-16T22:51:11Z</time></trkpt><trkpt lat="36.84187824864805" lon="-108.10783191686306"><ele>1788.5</ele><time>2026-04-16T22:51:12Z</time></trkpt><trkpt lat="36.84189592183771" lon="-108.10791223732394"><ele>1789.0</ele><time>2026-04-16T22:51:13Z</time></trkpt><trkpt lat="36.841987202726415" lon="-108.10792988693876"><ele>1789.5</ele><time>2026-04-16T22:51:14Z</time></trkpt><trkpt lat="36.842075841197065" lon="-108.10797821372051"><ele>1790.0</ele><time>2026-04-16T22:51:15Z</time></trkpt><trkpt lat="36.84214912674275" lon="-108.10804875432115"><ele>1790.5</ele><time>2026-04-16T22:51:16Z</time></trkpt><trkpt lat="36.84220831316477" lon="-108.10812565280673"><ele>1791.0</ele><time>2026-04-16T22:51:17Z</time></trkpt><trkpt lat="36.8422982416497" lon="-108.10817585445587"><ele>1791.0</ele><time>2026-04-16T22:51:18Z</time></trkpt><trkpt lat="36.84239349659632" lon="-108.10823199200567"><ele>1791.0</ele><time>2026-04-16T22:51:19Z</time></trkpt><trkpt lat="36.84247463809166" lon="-108.10829325829344"><ele>1791.0</ele><time>2026-04-16T22:51:20Z</time></trkpt><trkpt lat="36.842516611157656" lon="-108.10836626174516"><ele>1791.0</ele><time>2026-04-16T22:51:21Z</time></trkpt><trkpt lat="36.84251285565484" lon="-108.10845095554937"><ele>1791.0</ele><time>2026-04-16T22:51:22Z</time></trkpt><trkpt lat="36.842506291412704" lon="-108.10854070833236"><ele>1791.0</ele><time>2026-04-16T22:51:23Z</time></trkpt><trkpt lat="36.84248461273146" lon="-108.10861739909558"><ele>1792.142857142857</ele><time>2026-04-16T22:51:24Z</time></trkpt><trkpt lat="36.84245863555009" lon="-108.10869210741227"><ele>1793.2857142857142</ele><time>2026-04-16T22:51:25Z</time></trkpt><trkpt lat="36.84242988104016" lon="-108.10877545935027"><ele>1794.4285714285716</ele><time>2026-04-16T22:51:26Z</time></trkpt><trkpt lat="36.842399447015104" lon="-108.10886251612773"><ele>1795.5714285714284</ele><time>2026-04-16T22:51:27Z</time></trkpt><trkpt lat="36.84235196892771" lon="-108.10894193683535"><ele>1796.7142857142858</ele><time>2026-04-16T22:51:28Z</time></trkpt><trkpt lat="36.842326478877766" lon="-108.10902997788982"><ele>1797.857142857143</ele><time>2026-04-16T22:51:29Z</time></trkpt><trkpt lat="36.84231301977426" lon="-108.10911352927992"><ele>1799.0</ele><time>2026-04-16T22:51:30Z</time></trkpt><trkpt lat="36.84230366235907" lon="-108.10921744659517"><ele>1800.6</ele><time>2026-04-16T22:51:31Z</time></trkpt><trkpt lat="36.842273165182974" lon="-108.10933476286243"><ele>1802.2</ele><time>2026-04-16T22:51:32Z</time></trkpt><trkpt lat="36.84223062187755" lon="-108.1094358080763"><ele>1803.7999999999997</ele><time>2026-04-16T22:51:33Z</time></trkpt><trkpt lat="36.84215967103967" lon="-108.1095196388499"><ele>1805.3999999999999</ele><time>2026-04-16T22:51:35Z</time></trkpt><trkpt lat="36.84205560769921" lon="-108.1095299229201"><ele>1807.0</ele><time>2026-04-16T22:51:37Z</time></trkpt><trkpt lat="36.84198712260967" lon="-108.10949458913058"><ele>1807.0</ele><time>2026-04-16T22:51:38Z</time></trkpt><trkpt lat="36.84191744263525" lon="-108.10943115475729"><ele>1806.9999999999998</ele><time>2026-04-16T22:51:39Z</time></trkpt><trkpt lat="36.84184298083327" lon="-108.10936786097496"><ele>1806.9999999999998</ele><time>2026-04-16T22:51:40Z</time></trkpt><trkpt lat="36.841749533731075" lon="-108.10935185833311"><ele>1807.0</ele><time>2026-04-16T22:51:41Z</time></trkpt><trkpt lat="36.84167342055753" lon="-108.10929316823766"><ele>1807.0</ele><time>2026-04-16T22:51:42Z</time></trkpt><trkpt lat="36.84161394177608" lon="-108.10919396310709"><ele>1806.1999999999998</ele><time>2026-04-16T22:51:43Z</time></trkpt><trkpt lat="36.84154175709394" lon="-108.10913587787361"><ele>1805.3999999999999</ele><time>2026-04-16T22:51:44Z</time></trkpt><trkpt lat="36.84145621514158" lon="-108.10910294839378"><ele>1804.6000000000001</ele><time>2026-04-16T22:51:45Z</time></trkpt><trkpt lat="36.84136602667233" lon="-108.10903762473872"><ele>1803.8000000000002</ele><time>2026-04-16T22:51:46Z</time></trkpt><trkpt lat="36.841276708051346" lon="-108.10897754053556"><ele>1803.0</ele><time>2026-04-16T22:51:47Z</time></trkpt><trkpt lat="36.84120420752256" lon="-108.10892671358258"><ele>1802.0</ele><time>2026-04-16T22:51:48Z</time></trkpt><trkpt lat="36.84113006938358" lon="-108.10884949114664"><ele>1801.0</ele><time>2026-04-16T22:51:49Z</time></trkpt><trkpt lat="36.841058240212114" lon="-108.10879034499482"><ele>1800.0</ele><time>2026-04-16T22:51:50Z</time></trkpt><trkpt lat="36.8409929628031" lon="-108.10875205956765"><ele>1799.0</ele><time>2026-04-16T22:51:51Z</time></trkpt><trkpt lat="36.840912373243604" lon="-108.1087148601638"><ele>1798.0</ele><time>2026-04-16T22:51:52Z</time></trkpt><trkpt lat="36.84084458796911" lon="-108.10869232256626"><ele>1797.0</ele><time>2026-04-16T22:51:53Z</time></trkpt><trkpt lat="36.840727923406135" lon="-108.108777787371"><ele>1796.8</ele><time>2026-04-16T22:51:55Z</time></trkpt><trkpt lat="36.840644539559094" lon="-108.10880443317701"><ele>1796.6</ele><time>2026-04-16T22:51:56Z</time></trkpt><trkpt lat="36.84054550594835" lon="-108.10879378770325"><ele>1796.3999999999999</ele><time>2026-04-16T22:51:57Z</time></trkpt><trkpt lat="36.84042726354998" lon="-108.10880066475345"><ele>1796.1999999999998</ele><time>2026-04-16T22:51:58Z</time></trkpt><trkpt lat="36.840336602106944" lon="-108.10884396250253"><ele>1796.0</ele><time>2026-04-16T22:51:59Z</time></trkpt><trkpt lat="36.84027894950476" lon="-108.10891920255861"><ele>1796.0</ele><time>2026-04-16T22:52:00Z</time></trkpt><trkpt lat="36.84022661335386" lon="-108.10901792599563"><ele>1796.0</ele><time>2026-04-16T22:52:01Z</time></trkpt><trkpt lat="36.84015628001075" lon="-108.10913339642013"><ele>1796.0</ele><time>2026-04-16T22:52:02Z</time></trkpt><trkpt lat="36.84008813122045" lon="-108.10923382310189"><ele>1796.0</ele><time>2026-04-16T22:52:03Z</time></trkpt><trkpt lat="36.83999738122983" lon="-108.10933829040911"><ele>1796.0</ele><time>2026-04-16T22:52:04Z</time></trkpt><trkpt lat="36.839900917317806" lon="-108.10944316500587"><ele>1794.25</ele><time>2026-04-16T22:52:05Z</time></trkpt><trkpt lat="36.83979557894301" lon="-108.10955932173201"><ele>1792.5</ele><time>2026-04-16T22:52:06Z</time></trkpt><trkpt lat="36.83969442914064" lon="-108.10967951367411"><ele>1790.75</ele><time>2026-04-16T22:52:07Z</time></trkpt><trkpt lat="36.83958173337577" lon="-108.1098013279385"><ele>1789.0</ele><time>2026-04-16T22:52:08Z</time></trkpt><trkpt lat="36.83947813237236" lon="-108.10991449769794"><ele>1788.0</ele><time>2026-04-16T22:52:09Z</time></trkpt><trkpt lat="36.8393528056127" lon="-108.10998326716968"><ele>1787.0</ele><time>2026-04-16T22:52:10Z</time></trkpt><trkpt lat="36.839233742632" lon="-108.11006597189264"><ele>1786.0</ele><time>2026-04-16T22:52:11Z</time></trkpt><trkpt lat="36.83916166273321" lon="-108.11017611650112"><ele>1785.0</ele><time>2026-04-16T22:52:12Z</time></trkpt><trkpt lat="36.83911713742695" lon="-108.11031861163922"><ele>1784.4</ele><time>2026-04-16T22:52:13Z</time></trkpt><trkpt lat="36.83906094426039" lon="-108.11045757649816"><ele>1783.8</ele><time>2026-04-16T22:52:14Z</time></trkpt><trkpt lat="36.838993260478695" lon="-108.11056275942241"><ele>1783.1999999999998</ele><time>2026-04-16T22:52:15Z</time></trkpt><trkpt lat="36.838925835678204" lon="-108.11066400309883"><ele>1782.6</ele><time>2026-04-16T22:52:16Z</time></trkpt><trkpt lat="36.838845799953255" lon="-108.11074159916481"><ele>1782.0</ele><time>2026-04-16T22:52:17Z</time></trkpt><trkpt lat="36.83875789634302" lon="-108.11079744880503"><ele>1782.0</ele><time>2026-04-16T22:52:18Z</time></trkpt><trkpt lat="36.83866779423012" lon="-108.1108562964905"><ele>1782.0</ele><time>2026-04-16T22:52:19Z</time></trkpt><trkpt lat="36.83857493002302" lon="-108.11094686867219"><ele>1782.0</ele><time>2026-04-16T22:52:20Z</time></trkpt><trkpt lat="36.83848036651688" lon="-108.11104166937284"><ele>1782.0</ele><time>2026-04-16T22:52:21Z</time></trkpt><trkpt lat="36.838399284934845" lon="-108.11113856291823"><ele>1782.0</ele><time>2026-04-16T22:52:22Z</time></trkpt><trkpt lat="36.83832646766222" lon="-108.1112226394769"><ele>1782.0</ele><time>2026-04-16T22:52:23Z</time></trkpt><trkpt lat="36.83826157375326" lon="-108.11133439536603"><ele>1782.0</ele><time>2026-04-16T22:52:24Z</time></trkpt><trkpt lat="36.83818527515607" lon="-108.11146911875593"><ele>1782.0</ele><time>2026-04-16T22:52:25Z</time></trkpt><trkpt lat="36.83811313331059" lon="-108.11159956415824"><ele>1782.0</ele><time>2026-04-16T22:52:26Z</time></trkpt><trkpt lat="36.83804881037958" lon="-108.11175307533072"><ele>1782.0</ele><time>2026-04-16T22:52:27Z</time></trkpt><trkpt lat="36.8379915563952" lon="-108.11189154168576"><ele>1782.0</ele><time>2026-04-16T22:52:28Z</time></trkpt><trkpt lat="36.83796944168138" lon="-108.11198615940522"><ele>1782.0</ele><time>2026-04-16T22:52:29Z</time></trkpt><trkpt lat="36.83800603025989" lon="-108.11214330068597"><ele>1782.0</ele><time>2026-04-16T22:52:31Z</time></trkpt><trkpt lat="36.83804519375233" lon="-108.11223381328439"><ele>1782.0</ele><time>2026-04-16T22:52:32Z</time></trkpt><trkpt lat="36.83808285611296" lon="-108.11232651204087"><ele>1782.0</ele><time>2026-04-16T22:52:33Z</time></trkpt><trkpt lat="36.83811296462949" lon="-108.1124361314802"><ele>1782.0</ele><time>2026-04-16T22:52:34Z</time></trkpt><trkpt lat="36.83810229463864" lon="-108.11256601352076"><ele>1782.0</ele><time>2026-04-16T22:52:35Z</time></trkpt><trkpt lat="36.83808903071382" lon="-108.11267083926842"><ele>1782.0</ele><time>2026-04-16T22:52:36Z</time></trkpt><trkpt lat="36.83812165440813" lon="-108.11280746068027"><ele>1782.1999999999998</ele><time>2026-04-16T22:52:37Z</time></trkpt><trkpt lat="36.83817964653846" lon="-108.11292627662316"><ele>1782.3999999999999</ele><time>2026-04-16T22:52:38Z</time></trkpt><trkpt lat="36.83820695731976" lon="-108.11303554431511"><ele>1782.6000000000001</ele><time>2026-04-16T22:52:39Z</time></trkpt><trkpt lat="36.838187068324906" lon="-108.1131591069658"><ele>1782.8000000000002</ele><time>2026-04-16T22:52:40Z</time></trkpt><trkpt lat="36.83814283022218" lon="-108.11328626366105"><ele>1783.0</ele><time>2026-04-16T22:52:41Z</time></trkpt><trkpt lat="36.83809367717277" lon="-108.11341541308462"><ele>1783.5</ele><time>2026-04-16T22:52:42Z</time></trkpt><trkpt lat="36.83802034334174" lon="-108.11352686885093"><ele>1784.0</ele><time>2026-04-16T22:52:43Z</time></trkpt><trkpt lat="36.837946485448235" lon="-108.11364149247069"><ele>1784.5</ele><time>2026-04-16T22:52:44Z</time></trkpt><trkpt lat="36.83787226091233" lon="-108.1137480495149"><ele>1785.0</ele><time>2026-04-16T22:52:45Z</time></trkpt><trkpt lat="36.8377602713641" lon="-108.11383993741065"><ele>1785.0</ele><time>2026-04-16T22:52:46Z</time></trkpt><trkpt lat="36.83766651072051" lon="-108.11393188247082"><ele>1785.0</ele><time>2026-04-16T22:52:47Z</time></trkpt><trkpt lat="36.837588430576396" lon="-108.11403091556825"><ele>1785.0</ele><time>2026-04-16T22:52:48Z</time></trkpt><trkpt lat="36.837522551910645" lon="-108.1141048438729"><ele>1785.0</ele><time>2026-04-16T22:52:49Z</time></trkpt><trkpt lat="36.837512553871214" lon="-108.11421158873874"><ele>1785.0</ele><time>2026-04-16T22:52:50Z</time></trkpt><trkpt lat="36.83756252019585" lon="-108.11430790082784"><ele>1785.8</ele><time>2026-04-16T22:52:51Z</time></trkpt><trkpt lat="36.83756448392148" lon="-108.11444575858555"><ele>1786.6</ele><time>2026-04-16T22:52:52Z</time></trkpt><trkpt lat="36.83753024371234" lon="-108.11452433906898"><ele>1787.4</ele><time>2026-04-16T22:52:53Z</time></trkpt><trkpt lat="36.83745701765137" lon="-108.11458220885262"><ele>1788.2</ele><time>2026-04-16T22:52:54Z</time></trkpt><trkpt lat="36.83736010720878" lon="-108.11463015042368"><ele>1789.0</ele><time>2026-04-16T22:52:55Z</time></trkpt><trkpt lat="36.837250799453116" lon="-108.11466978747947"><ele>1789.0</ele><time>2026-04-16T22:52:56Z</time></trkpt><trkpt lat="36.83714808896495" lon="-108.11471678167375"><ele>1789.0</ele><time>2026-04-16T22:52:57Z</time></trkpt><trkpt lat="36.83703455531932" lon="-108.11476747030159"><ele>1789.0</ele><time>2026-04-16T22:52:58Z</time></trkpt><trkpt lat="36.836910547941976" lon="-108.11478832310404"><ele>1789.0</ele><time>2026-04-16T22:52:59Z</time></trkpt><trkpt lat="36.83677220639012" lon="-108.11477277972665"><ele>1789.0</ele><time>2026-04-16T22:53:00Z</time></trkpt><trkpt lat="36.83666576463962" lon="-108.11472476076824"><ele>1789.0</ele><time>2026-04-16T22:53:01Z</time></trkpt><trkpt lat="36.83656761169616" lon="-108.11466511840925"><ele>1789.0</ele><time>2026-04-16T22:53:02Z</time></trkpt><trkpt lat="36.8364630384373" lon="-108.11456611353549"><ele>1789.0</ele><time>2026-04-16T22:53:03Z</time></trkpt><trkpt lat="36.836352950630584" lon="-108.11446702418709"><ele>1789.0</ele><time>2026-04-16T22:53:04Z</time></trkpt><trkpt lat="36.83622232209509" lon="-108.11436721116304"><ele>1789.0</ele><time>2026-04-16T22:53:05Z</time></trkpt><trkpt lat="36.83611962121624" lon="-108.11429595270155"><ele>1789.0</ele><time>2026-04-16T22:53:06Z</time></trkpt><trkpt lat="36.836029405851775" lon="-108.11426546739311"><ele>1789.0</ele><time>2026-04-16T22:53:07Z</time></trkpt><trkpt lat="36.835924411282924" lon="-108.11422611398235"><ele>1789.0</ele><time>2026-04-16T22:53:08Z</time></trkpt><trkpt lat="36.83587639235696" lon="-108.11412552603598"><ele>1789.0</ele><time>2026-04-16T22:53:09Z</time></trkpt><trkpt lat="36.83583736786095" lon="-108.11399114242852"><ele>1789.0</ele><time>2026-04-16T22:53:10Z</time></trkpt><trkpt lat="36.835816208331465" lon="-108.1138520576612"><ele>1789.0</ele><time>2026-04-16T22:53:11Z</time></trkpt><trkpt lat="36.835825603510706" lon="-108.11373084268689"><ele>1789.0</ele><time>2026-04-16T22:53:12Z</time></trkpt><trkpt lat="36.83578633958702" lon="-108.11364369269653"><ele>1789.0</ele><time>2026-04-16T22:53:13Z</time></trkpt><trkpt lat="36.835682291294205" lon="-108.11354339541765"><ele>1789.0</ele><time>2026-04-16T22:53:14Z</time></trkpt><trkpt lat="36.83558111769727" lon="-108.11344366473523"><ele>1789.0</ele><time>2026-04-16T22:53:15Z</time></trkpt><trkpt lat="36.83548317705319" lon="-108.11333994131077"><ele>1789.0</ele><time>2026-04-16T22:53:16Z</time></trkpt><trkpt lat="36.835347020633264" lon="-108.11327650018477"><ele>1788.0</ele><time>2026-04-16T22:53:17Z</time></trkpt><trkpt lat="36.83524429319041" lon="-108.11322880219888"><ele>1787.0</ele><time>2026-04-16T22:53:18Z</time></trkpt><trkpt lat="36.83512844497416" lon="-108.1131779941153"><ele>1786.0</ele><time>2026-04-16T22:53:19Z</time></trkpt><trkpt lat="36.835032792394344" lon="-108.11318544840108"><ele>1785.0</ele><time>2026-04-16T22:53:20Z</time></trkpt><trkpt lat="36.83490251260497" lon="-108.11314661247691"><ele>1785.0</ele><time>2026-04-16T22:53:21Z</time></trkpt><trkpt lat="36.83480637877094" lon="-108.11312266818882"><ele>1785.0</ele><time>2026-04-16T22:53:22Z</time></trkpt><trkpt lat="36.83472032482378" lon="-108.11311938679673"><ele>1785.0</ele><time>2026-04-16T22:53:23Z</time></trkpt><trkpt lat="36.83460311851907" lon="-108.11312325129143"><ele>1785.0</ele><time>2026-04-16T22:53:24Z</time></trkpt><trkpt lat="36.83449529931589" lon="-108.11310055065208"><ele>1785.0</ele><time>2026-04-16T22:53:25Z</time></trkpt><trkpt lat="36.83438777655864" lon="-108.1130739507002"><ele>1784.6</ele><time>2026-04-16T22:53:26Z</time></trkpt><trkpt lat="36.83427585491134" lon="-108.11302795854412"><ele>1784.2</ele><time>2026-04-16T22:53:27Z</time></trkpt><trkpt lat="36.83418611562859" lon="-108.11295115810655"><ele>1783.8000000000002</ele><time>2026-04-16T22:53:28Z</time></trkpt><trkpt lat="36.83409264132303" lon="-108.11287348747283"><ele>1783.4</ele><time>2026-04-16T22:53:29Z</time></trkpt><trkpt lat="36.83400265444851" lon="-108.11280830122521"><ele>1783.0</ele><time>2026-04-16T22:53:30Z</time></trkpt><trkpt lat="36.8339152945729" lon="-108.11277116866638"><ele>1783.0</ele><time>2026-04-16T22:53:31Z</time></trkpt><trkpt lat="36.83381623956781" lon="-108.11273668170406"><ele>1783.0000000000002</ele><time>2026-04-16T22:53:32Z</time></trkpt><trkpt lat="36.833708099119185" lon="-108.11271944929278"><ele>1783.0000000000002</ele><time>2026-04-16T22:53:33Z</time></trkpt><trkpt lat="36.83359614257536" lon="-108.11269582087417"><ele>1783.0</ele><time>2026-04-16T22:53:34Z</time></trkpt><trkpt lat="36.83350341100466" lon="-108.11269588008473"><ele>1783.0</ele><time>2026-04-16T22:53:35Z</time></trkpt><trkpt lat="36.83340013012604" lon="-108.11272045648381"><ele>1781.75</ele><time>2026-04-16T22:53:36Z</time></trkpt><trkpt lat="36.83327699062378" lon="-108.11269474679472"><ele>1780.5</ele><time>2026-04-16T22:53:37Z</time></trkpt><trkpt lat="36.83317467232833" lon="-108.11261922805019"><ele>1779.25</ele><time>2026-04-16T22:53:38Z</time></trkpt><trkpt lat="36.83305090359135" lon="-108.11255897192417"><ele>1778.0</ele><time>2026-04-16T22:53:39Z</time></trkpt><trkpt lat="36.83292035656817" lon="-108.11252703260337"><ele>1778.0</ele><time>2026-04-16T22:53:40Z</time></trkpt><trkpt lat="36.832788159427004" lon="-108.11246947410785"><ele>1778.0</ele><time>2026-04-16T22:53:41Z</time></trkpt><trkpt lat="36.832663115403754" lon="-108.11242245791998"><ele>1778.0</ele><time>2026-04-16T22:53:42Z</time></trkpt><trkpt lat="36.83254326322145" lon="-108.11240351743324"><ele>1778.0</ele><time>2026-04-16T22:53:43Z</time></trkpt><trkpt lat="36.832435572859644" lon="-108.11243592402636"><ele>1776.6000000000001</ele><time>2026-04-16T22:53:44Z</time></trkpt><trkpt lat="36.83234674936834" lon="-108.1124985771597"><ele>1775.2000000000003</ele><time>2026-04-16T22:53:45Z</time></trkpt><trkpt lat="36.8322416596369" lon="-108.11253581345886"><ele>1773.8</ele><time>2026-04-16T22:53:46Z</time></trkpt><trkpt lat="36.8321496491033" lon="-108.11253452607485"><ele>1772.4</ele><time>2026-04-16T22:53:47Z</time></trkpt><trkpt lat="36.83207031033583" lon="-108.1125261024934"><ele>1771.0</ele><time>2026-04-16T22:53:48Z</time></trkpt><trkpt lat="36.832001654748694" lon="-108.11254058379396"><ele>1771.0</ele><time>2026-04-16T22:53:49Z</time></trkpt><trkpt lat="36.83191714145642" lon="-108.11258692010314"><ele>1771.0</ele><time>2026-04-16T22:53:51Z</time></trkpt><trkpt lat="36.831850781731845" lon="-108.11261412051428"><ele>1771.0</ele><time>2026-04-16T22:53:53Z</time></trkpt><trkpt lat="36.83178751097569" lon="-108.11253736985495"><ele>1771.0</ele><time>2026-04-16T22:53:57Z</time></trkpt><trkpt lat="36.83172470289775" lon="-108.11258607079093"><ele>1771.0</ele><time>2026-04-16T22:54:00Z</time></trkpt><trkpt lat="36.831450665053346" lon="-108.1126143201238"><ele>1771.0000000000002</ele><time>2026-04-16T22:54:01Z</time></trkpt><trkpt lat="36.83146024518632" lon="-108.11270617823408"><ele>1771.0</ele><time>2026-04-16T22:54:03Z</time></trkpt><trkpt lat="36.83140180853584" lon="-108.11274809995754"><ele>1771.0</ele><time>2026-04-16T22:54:04Z</time></trkpt><trkpt lat="36.83130322882069" lon="-108.11278182456094"><ele>1771.0</ele><time>2026-04-16T22:54:05Z</time></trkpt><trkpt lat="36.831210378714694" lon="-108.11280700028094"><ele>1771.0000000000002</ele><time>2026-04-16T22:54:06Z</time></trkpt><trkpt lat="36.83111093380765" lon="-108.11283469610237"><ele>1771.0</ele><time>2026-04-16T22:54:07Z</time></trkpt><trkpt lat="36.831010289655524" lon="-108.11284786831932"><ele>1771.0</ele><time>2026-04-16T22:54:08Z</time></trkpt><trkpt lat="36.8308958743615" lon="-108.11284293278095"><ele>1771.0</ele><time>2026-04-16T22:54:09Z</time></trkpt><trkpt lat="36.830776323002986" lon="-108.11285002032244"><ele>1771.0</ele><time>2026-04-16T22:54:10Z</time></trkpt><trkpt lat="36.830664720819016" lon="-108.11285695357617"><ele>1771.0</ele><time>2026-04-16T22:54:11Z</time></trkpt><trkpt lat="36.83055555935448" lon="-108.11287008701287"><ele>1771.0000000000002</ele><time>2026-04-16T22:54:12Z</time></trkpt><trkpt lat="36.83045081810595" lon="-108.1128861353944"><ele>1771.0</ele><time>2026-04-16T22:54:13Z</time></trkpt><trkpt lat="36.830363705428766" lon="-108.11291203408153"><ele>1771.0</ele><time>2026-04-16T22:54:14Z</time></trkpt><trkpt lat="36.83028833747486" lon="-108.11295415389765"><ele>1771.0</ele><time>2026-04-16T22:54:15Z</time></trkpt><trkpt lat="36.83021645369225" lon="-108.11299964592487"><ele>1771.0000000000002</ele><time>2026-04-16T22:54:16Z</time></trkpt><trkpt lat="36.83017059689927" lon="-108.11308428278934"><ele>1771.0</ele><time>2026-04-16T22:54:17Z</time></trkpt><trkpt lat="36.83017974654806" lon="-108.11317821858377"><ele>1770.75</ele><time>2026-04-16T22:54:18Z</time></trkpt><trkpt lat="36.83012736023749" lon="-108.11331243282022"><ele>1770.5</ele><time>2026-04-16T22:54:20Z</time></trkpt><trkpt lat="36.830179460703114" lon="-108.11347241609006"><ele>1770.25</ele><time>2026-04-16T22:54:21Z</time></trkpt><trkpt lat="36.83015622394525" lon="-108.11360183824199"><ele>1770.0</ele><time>2026-04-16T22:54:22Z</time></trkpt><trkpt lat="36.83010868632184" lon="-108.11374559242576"><ele>1770.0</ele><time>2026-04-16T22:54:23Z</time></trkpt><trkpt lat="36.83006989401649" lon="-108.11387451217932"><ele>1770.0</ele><time>2026-04-16T22:54:24Z</time></trkpt><trkpt lat="36.83002998092597" lon="-108.11399623416399"><ele>1770.0</ele><time>2026-04-16T22:54:25Z</time></trkpt><trkpt lat="36.83002604478955" lon="-108.1141241764751"><ele>1770.0</ele><time>2026-04-16T22:54:26Z</time></trkpt><trkpt lat="36.83001658928368" lon="-108.11424033102317"><ele>1770.0</ele><time>2026-04-16T22:54:27Z</time></trkpt><trkpt lat="36.82998568530595" lon="-108.1143242747572"><ele>1770.0</ele><time>2026-04-16T22:54:28Z</time></trkpt><trkpt lat="36.82991766863039" lon="-108.11446022664366"><ele>1770.0</ele><time>2026-04-16T22:54:30Z</time></trkpt><trkpt lat="36.8298145858763" lon="-108.11444998643871"><ele>1770.0</ele><time>2026-04-16T22:54:31Z</time></trkpt><trkpt lat="36.829743600423704" lon="-108.11444987750096"><ele>1770.0</ele><time>2026-04-16T22:54:32Z</time></trkpt><trkpt lat="36.82966496275581" lon="-108.11451050583845"><ele>1770.0</ele><time>2026-04-16T22:54:33Z</time></trkpt><trkpt lat="36.829588784910484" lon="-108.11457224279232"><ele>1770.0</ele><time>2026-04-16T22:54:34Z</time></trkpt><trkpt lat="36.829459973779585" lon="-108.11467142333248"><ele>1770.0</ele><time>2026-04-16T22:54:35Z</time></trkpt><trkpt lat="36.82933502463449" lon="-108.11476626443071"><ele>1770.0</ele><time>2026-04-16T22:54:36Z</time></trkpt><trkpt lat="36.82925993828846" lon="-108.11483048724284"><ele>1770.0</ele><time>2026-04-16T22:54:37Z</time></trkpt><trkpt lat="36.82916307658741" lon="-108.11489020296256"><ele>1770.0</ele><time>2026-04-16T22:54:38Z</time></trkpt><trkpt lat="36.8290737759481" lon="-108.11493855219443"><ele>1770.0</ele><time>2026-04-16T22:54:39Z</time></trkpt><trkpt lat="36.82898112959446" lon="-108.11500581093384"><ele>1770.0</ele><time>2026-04-16T22:54:40Z</time></trkpt><trkpt lat="36.8288785983914" lon="-108.11506346500309"><ele>1770.0</ele><time>2026-04-16T22:54:41Z</time></trkpt><trkpt lat="36.82877189128555" lon="-108.11512320334809"><ele>1770.0</ele><time>2026-04-16T22:54:42Z</time></trkpt><trkpt lat="36.82868056713286" lon="-108.11518503212513"><ele>1770.0</ele><time>2026-04-16T22:54:43Z</time></trkpt><trkpt lat="36.828578263565234" lon="-108.11525856904815"><ele>1770.0</ele><time>2026-04-16T22:54:44Z</time></trkpt><trkpt lat="36.82846069101389" lon="-108.11532650182157"><ele>1770.0</ele><time>2026-04-16T22:54:45Z</time></trkpt><trkpt lat="36.82835662725529" lon="-108.11539476871661"><ele>1770.0</ele><time>2026-04-16T22:54:46Z</time></trkpt><trkpt lat="36.828240617861844" lon="-108.11545181873507"><ele>1771.0</ele><time>2026-04-16T22:54:47Z</time></trkpt><trkpt lat="36.82813363883145" lon="-108.11551233832444"><ele>1772.0</ele><time>2026-04-16T22:54:48Z</time></trkpt><trkpt lat="36.8280338956822" lon="-108.11559196418759"><ele>1773.0</ele><time>2026-04-16T22:54:49Z</time></trkpt><trkpt lat="36.827938065907404" lon="-108.11565651850601"><ele>1774.0</ele><time>2026-04-16T22:54:50Z</time></trkpt><trkpt lat="36.82784698223005" lon="-108.11570422963088"><ele>1775.0</ele><time>2026-04-16T22:54:51Z</time></trkpt><trkpt lat="36.827752637387114" lon="-108.11575898626307"><ele>1775.2</ele><time>2026-04-16T22:54:52Z</time></trkpt><trkpt lat="36.827655032451005" lon="-108.1158194392769"><ele>1775.4</ele><time>2026-04-16T22:54:53Z</time></trkpt><trkpt lat="36.82756383785854" lon="-108.11587323360344"><ele>1775.6</ele><time>2026-04-16T22:54:54Z</time></trkpt><trkpt lat="36.827465875503975" lon="-108.11593312684023"><ele>1775.8</ele><time>2026-04-16T22:54:55Z</time></trkpt><trkpt lat="36.82736235070679" lon="-108.115995175829"><ele>1776.0</ele><time>2026-04-16T22:54:56Z</time></trkpt><trkpt lat="36.827268688197115" lon="-108.1160663439616"><ele>1777.0</ele><time>2026-04-16T22:54:57Z</time></trkpt><trkpt lat="36.827152541211944" lon="-108.11616533388312"><ele>1778.0</ele><time>2026-04-16T22:54:58Z</time></trkpt><trkpt lat="36.827013742665976" lon="-108.11625942182881"><ele>1779.0</ele><time>2026-04-16T22:54:59Z</time></trkpt><trkpt lat="36.82684197460526" lon="-108.11635619603148"><ele>1778.0</ele><time>2026-04-16T22:55:00Z</time></trkpt><trkpt lat="36.82667282875255" lon="-108.11646869793206"><ele>1777.0</ele><time>2026-04-16T22:55:01Z</time></trkpt><trkpt lat="36.82654702562402" lon="-108.11654909805887"><ele>1776.0</ele><time>2026-04-16T22:55:02Z</time></trkpt><trkpt lat="36.826434899937475" lon="-108.11660318085251"><ele>1776.0</ele><time>2026-04-16T22:55:03Z</time></trkpt><trkpt lat="36.826311924905006" lon="-108.1166649070331"><ele>1776.0</ele><time>2026-04-16T22:55:04Z</time></trkpt><trkpt lat="36.826203398419025" lon="-108.11675393999737"><ele>1776.0</ele><time>2026-04-16T22:55:05Z</time></trkpt><trkpt lat="36.82609114118236" lon="-108.1168404541085"><ele>1776.0</ele><time>2026-04-16T22:55:06Z</time></trkpt><trkpt lat="36.8259854270624" lon="-108.11690751657115"><ele>1776.25</ele><time>2026-04-16T22:55:07Z</time></trkpt><trkpt lat="36.82588721549999" lon="-108.11696870548603"><ele>1776.5</ele><time>2026-04-16T22:55:08Z</time></trkpt><trkpt lat="36.825778334788424" lon="-108.11704079101469"><ele>1776.75</ele><time>2026-04-16T22:55:09Z</time></trkpt><trkpt lat="36.825669175481686" lon="-108.11712333095146"><ele>1777.0</ele><time>2026-04-16T22:55:10Z</time></trkpt><trkpt lat="36.82554591049509" lon="-108.11719346134912"><ele>1777.0</ele><time>2026-04-16T22:55:11Z</time></trkpt><trkpt lat="36.82542585098655" lon="-108.11727108232031"><ele>1777.0</ele><time>2026-04-16T22:55:12Z</time></trkpt><trkpt lat="36.82532408360241" lon="-108.11733205909086"><ele>1777.0</ele><time>2026-04-16T22:55:13Z</time></trkpt><trkpt lat="36.825205168783995" lon="-108.1174066968127"><ele>1777.0</ele><time>2026-04-16T22:55:14Z</time></trkpt><trkpt lat="36.82508569046899" lon="-108.11748028656724"><ele>1777.75</ele><time>2026-04-16T22:55:15Z</time></trkpt><trkpt lat="36.824963618455826" lon="-108.11753906156586"><ele>1778.5</ele><time>2026-04-16T22:55:16Z</time></trkpt><trkpt lat="36.82484870256916" lon="-108.11760708834836"><ele>1779.25</ele><time>2026-04-16T22:55:17Z</time></trkpt><trkpt lat="36.82474315102507" lon="-108.11767394834733"><ele>1780.0</ele><time>2026-04-16T22:55:18Z</time></trkpt><trkpt lat="36.824639695397494" lon="-108.11773525678751"><ele>1780.0</ele><time>2026-04-16T22:55:19Z</time></trkpt><trkpt lat="36.82453354243376" lon="-108.11780027219999"><ele>1780.0</ele><time>2026-04-16T22:55:20Z</time></trkpt><trkpt lat="36.82442334742261" lon="-108.11787711974931"><ele>1780.0</ele><time>2026-04-16T22:55:21Z</time></trkpt><trkpt lat="36.82431148450618" lon="-108.11794508501586"><ele>1780.0</ele><time>2026-04-16T22:55:22Z</time></trkpt><trkpt lat="36.82420418952179" lon="-108.11801871787512"><ele>1780.5</ele><time>2026-04-16T22:55:23Z</time></trkpt><trkpt lat="36.82409210729055" lon="-108.11809401562961"><ele>1781.0</ele><time>2026-04-16T22:55:24Z</time></trkpt><trkpt lat="36.823992189600666" lon="-108.11816748355459"><ele>1781.5</ele><time>2026-04-16T22:55:25Z</time></trkpt><trkpt lat="36.823887027864814" lon="-108.11823459851763"><ele>1782.0</ele><time>2026-04-16T22:55:26Z</time></trkpt><trkpt lat="36.82378133699123" lon="-108.11829211810915"><ele>1782.1999999999998</ele><time>2026-04-16T22:55:27Z</time></trkpt><trkpt lat="36.823682494495934" lon="-108.11835635232462"><ele>1782.3999999999999</ele><time>2026-04-16T22:55:28Z</time></trkpt><trkpt lat="36.8235899874567" lon="-108.11841785872483"><ele>1782.6000000000001</ele><time>2026-04-16T22:55:29Z</time></trkpt><trkpt lat="36.82349370702493" lon="-108.11846989240748"><ele>1782.8000000000002</ele><time>2026-04-16T22:55:30Z</time></trkpt><trkpt lat="36.82339806458988" lon="-108.11853119022432"><ele>1783.0</ele><time>2026-04-16T22:55:31Z</time></trkpt><trkpt lat="36.823280155050064" lon="-108.11861733956843"><ele>1782.0</ele><time>2026-04-16T22:55:32Z</time></trkpt><trkpt lat="36.823176658074445" lon="-108.1187035467782"><ele>1781.0</ele><time>2026-04-16T22:55:33Z</time></trkpt><trkpt lat="36.82304892360587" lon="-108.11878347722296"><ele>1780.0</ele><time>2026-04-16T22:55:34Z</time></trkpt><trkpt lat="36.822936251438925" lon="-108.11885582655428"><ele>1779.0</ele><time>2026-04-16T22:55:35Z</time></trkpt><trkpt lat="36.82285411103366" lon="-108.11891578554923"><ele>1779.0</ele><time>2026-04-16T22:55:36Z</time></trkpt><trkpt lat="36.82278007476025" lon="-108.11897365971728"><ele>1779.0</ele><time>2026-04-16T22:55:37Z</time></trkpt><trkpt lat="36.82270439002763" lon="-108.11902085525608"><ele>1779.0</ele><time>2026-04-16T22:55:38Z</time></trkpt><trkpt lat="36.82262950099701" lon="-108.11906039918814"><ele>1779.0</ele><time>2026-04-16T22:55:39Z</time></trkpt><trkpt lat="36.822542670439866" lon="-108.11911762249515"><ele>1779.0</ele><time>2026-04-16T22:55:40Z</time></trkpt><trkpt lat="36.82245191321365" lon="-108.1191773626605"><ele>1778.2</ele><time>2026-04-16T22:55:41Z</time></trkpt><trkpt lat="36.82236022030325" lon="-108.11923701220277"><ele>1777.4</ele><time>2026-04-16T22:55:42Z</time></trkpt><trkpt lat="36.82226352982652" lon="-108.11930412044559"><ele>1776.6</ele><time>2026-04-16T22:55:43Z</time></trkpt><trkpt lat="36.82216867934726" lon="-108.119373990937"><ele>1775.8</ele><time>2026-04-16T22:55:44Z</time></trkpt><trkpt lat="36.82207393732728" lon="-108.11945677534065"><ele>1775.0</ele><time>2026-04-16T22:55:45Z</time></trkpt><trkpt lat="36.82198384456203" lon="-108.11951032231386"><ele>1775.0</ele><time>2026-04-16T22:55:46Z</time></trkpt><trkpt lat="36.82190231714719" lon="-108.11950804511085"><ele>1775.0</ele><time>2026-04-16T22:55:47Z</time></trkpt><trkpt lat="36.821807869861644" lon="-108.11947339514805"><ele>1775.0</ele><time>2026-04-16T22:55:48Z</time></trkpt><trkpt lat="36.821700138978365" lon="-108.11943596761144"><ele>1775.0</ele><time>2026-04-16T22:55:49Z</time></trkpt><trkpt lat="36.82160954484412" lon="-108.11943004790083"><ele>1775.0</ele><time>2026-04-16T22:55:50Z</time></trkpt><trkpt lat="36.821533469385315" lon="-108.11950446154562"><ele>1775.2</ele><time>2026-04-16T22:55:51Z</time></trkpt><trkpt lat="36.8214613474264" lon="-108.1195900271726"><ele>1775.4</ele><time>2026-04-16T22:55:52Z</time></trkpt><trkpt lat="36.82138490597068" lon="-108.1196192976605"><ele>1775.6</ele><time>2026-04-16T22:55:53Z</time></trkpt><trkpt lat="36.82131424764328" lon="-108.1196500190323"><ele>1775.8</ele><time>2026-04-16T22:55:54Z</time></trkpt><trkpt lat="36.82126447128649" lon="-108.1197893368366"><ele>1776.0</ele><time>2026-04-16T22:55:56Z</time></trkpt><trkpt lat="36.82117545923998" lon="-108.1197974383809"><ele>1776.0</ele><time>2026-04-16T22:55:57Z</time></trkpt><trkpt lat="36.82107166135955" lon="-108.11987396632408"><ele>1776.0</ele><time>2026-04-16T22:55:58Z</time></trkpt><trkpt lat="36.82098440668759" lon="-108.119985444683"><ele>1776.0</ele><time>2026-04-16T22:55:59Z</time></trkpt><trkpt lat="36.82089904891577" lon="-108.12011772147775"><ele>1776.0</ele><time>2026-04-16T22:56:00Z</time></trkpt><trkpt lat="36.820821417249356" lon="-108.1202349944317"><ele>1775.4</ele><time>2026-04-16T22:56:01Z</time></trkpt><trkpt lat="36.82073573781431" lon="-108.12033355899442"><ele>1774.8</ele><time>2026-04-16T22:56:02Z</time></trkpt><trkpt lat="36.82064296352083" lon="-108.12039912328494"><ele>1774.2000000000003</ele><time>2026-04-16T22:56:03Z</time></trkpt><trkpt lat="36.82052928302413" lon="-108.12043796931053"><ele>1773.6000000000001</ele><time>2026-04-16T22:56:04Z</time></trkpt><trkpt lat="36.820435440502" lon="-108.1204496846995"><ele>1773.0</ele><time>2026-04-16T22:56:05Z</time></trkpt><trkpt lat="36.8203827369424" lon="-108.12049739347805"><ele>1773.0</ele><time>2026-04-16T22:56:06Z</time></trkpt><trkpt lat="36.820282829692054" lon="-108.12057245735502"><ele>1773.0000000000002</ele><time>2026-04-16T22:56:08Z</time></trkpt><trkpt lat="36.820211854729635" lon="-108.12067823769065"><ele>1773.0000000000002</ele><time>2026-04-16T22:56:10Z</time></trkpt><trkpt lat="36.82016511911256" lon="-108.12078544083477"><ele>1773.0</ele><time>2026-04-16T22:56:11Z</time></trkpt><trkpt lat="36.82012654310617" lon="-108.12087740096452"><ele>1773.0</ele><time>2026-04-16T22:56:12Z</time></trkpt><trkpt lat="36.8201136782029" lon="-108.12095659696344"><ele>1773.2</ele><time>2026-04-16T22:56:13Z</time></trkpt><trkpt lat="36.82007848769708" lon="-108.12107582658524"><ele>1773.4</ele><time>2026-04-16T22:56:15Z</time></trkpt><trkpt lat="36.81997514508505" lon="-108.12113748858384"><ele>1773.6000000000001</ele><time>2026-04-16T22:56:17Z</time></trkpt><trkpt lat="36.81989795919241" lon="-108.12111704554981"><ele>1773.8000000000002</ele><time>2026-04-16T22:56:18Z</time></trkpt><trkpt lat="36.81982240013099" lon="-108.12106387100737"><ele>1774.0</ele><time>2026-04-16T22:56:19Z</time></trkpt><trkpt lat="36.81975520096904" lon="-108.12098710697583"><ele>1774.0</ele><time>2026-04-16T22:56:20Z</time></trkpt><trkpt lat="36.819632469723565" lon="-108.12097835381529"><ele>1774.0</ele><time>2026-04-16T22:56:22Z</time></trkpt><trkpt lat="36.81955596596697" lon="-108.12105877954284"><ele>1774.0</ele><time>2026-04-16T22:56:23Z</time></trkpt><trkpt lat="36.81947022887361" lon="-108.12113436815052"><ele>1774.0</ele><time>2026-04-16T22:56:24Z</time></trkpt><trkpt lat="36.81937390689499" lon="-108.1211921753789"><ele>1774.0</ele><time>2026-04-16T22:56:25Z</time></trkpt><trkpt lat="36.81927129738988" lon="-108.12126859834997"><ele>1775.25</ele><time>2026-04-16T22:56:26Z</time></trkpt><trkpt lat="36.819159158201664" lon="-108.12134669132156"><ele>1776.5</ele><time>2026-04-16T22:56:27Z</time></trkpt><trkpt lat="36.8190491219497" lon="-108.12139772758442"><ele>1777.75</ele><time>2026-04-16T22:56:28Z</time></trkpt><trkpt lat="36.818934838350685" lon="-108.1214573625739"><ele>1779.0</ele><time>2026-04-16T22:56:29Z</time></trkpt><trkpt lat="36.81880731016402" lon="-108.1215340595818"><ele>1779.5</ele><time>2026-04-16T22:56:30Z</time></trkpt><trkpt lat="36.818687023663024" lon="-108.1216371060529"><ele>1780.0</ele><time>2026-04-16T22:56:31Z</time></trkpt><trkpt lat="36.81857152286938" lon="-108.12170850809022"><ele>1780.5</ele><time>2026-04-16T22:56:32Z</time></trkpt><trkpt lat="36.81844423620837" lon="-108.12174984939239"><ele>1781.0</ele><time>2026-04-16T22:56:33Z</time></trkpt><trkpt lat="36.81829805554" lon="-108.12181332140855"><ele>1782.0</ele><time>2026-04-16T22:56:34Z</time></trkpt><trkpt lat="36.818199602449" lon="-108.12190468349552"><ele>1783.0</ele><time>2026-04-16T22:56:35Z</time></trkpt><trkpt lat="36.81808834499946" lon="-108.12198740516625"><ele>1784.0</ele><time>2026-04-16T22:56:36Z</time></trkpt><trkpt lat="36.81795387753601" lon="-108.12206660438069"><ele>1785.0</ele><time>2026-04-16T22:56:37Z</time></trkpt><trkpt lat="36.81783135736092" lon="-108.12214887968787"><ele>1785.0</ele><time>2026-04-16T22:56:38Z</time></trkpt><trkpt lat="36.8177321381118" lon="-108.12222787063253"><ele>1785.0</ele><time>2026-04-16T22:56:39Z</time></trkpt><trkpt lat="36.81761483730734" lon="-108.1223177391065"><ele>1785.0</ele><time>2026-04-16T22:56:40Z</time></trkpt><trkpt lat="36.817499723618674" lon="-108.1224010233495"><ele>1785.0</ele><time>2026-04-16T22:56:41Z</time></trkpt><trkpt lat="36.81737929531111" lon="-108.12248601562823"><ele>1784.5</ele><time>2026-04-16T22:56:42Z</time></trkpt><trkpt lat="36.81728492376935" lon="-108.12255111831378"><ele>1784.0</ele><time>2026-04-16T22:56:43Z</time></trkpt><trkpt lat="36.81717181300902" lon="-108.12263199132381"><ele>1783.5</ele><time>2026-04-16T22:56:44Z</time></trkpt><trkpt lat="36.817056174478466" lon="-108.12272064683947"><ele>1783.0</ele><time>2026-04-16T22:56:45Z</time></trkpt><trkpt lat="36.81695176595917" lon="-108.1227977323902"><ele>1783.0</ele><time>2026-04-16T22:56:46Z</time></trkpt><trkpt lat="36.816841279747095" lon="-108.12288258171723"><ele>1783.0</ele><time>2026-04-16T22:56:47Z</time></trkpt><trkpt lat="36.81672664387591" lon="-108.12298000132284"><ele>1783.0</ele><time>2026-04-16T22:56:48Z</time></trkpt><trkpt lat="36.81660859609083" lon="-108.1230883502334"><ele>1783.0</ele><time>2026-04-16T22:56:49Z</time></trkpt><trkpt lat="36.816510671757094" lon="-108.12318831703543"><ele>1782.75</ele><time>2026-04-16T22:56:50Z</time></trkpt><trkpt lat="36.816411110606936" lon="-108.12328757555557"><ele>1782.5</ele><time>2026-04-16T22:56:51Z</time></trkpt><trkpt lat="36.81631064731867" lon="-108.12338898183498"><ele>1782.25</ele><time>2026-04-16T22:56:52Z</time></trkpt><trkpt lat="36.816231291780376" lon="-108.12348695683401"><ele>1782.0</ele><time>2026-04-16T22:56:53Z</time></trkpt><trkpt lat="36.81615841510062" lon="-108.12355874996412"><ele>1782.0</ele><time>2026-04-16T22:56:54Z</time></trkpt><trkpt lat="36.816062502359685" lon="-108.12361845586584"><ele>1781.9999999999998</ele><time>2026-04-16T22:56:55Z</time></trkpt><trkpt lat="36.815978252734986" lon="-108.12364851949523"><ele>1781.9999999999998</ele><time>2026-04-16T22:56:56Z</time></trkpt><trkpt lat="36.81588441369687" lon="-108.12364764681635"><ele>1782.0</ele><time>2026-04-16T22:56:57Z</time></trkpt><trkpt lat="36.81579173658029" lon="-108.12363034291371"><ele>1782.0</ele><time>2026-04-16T22:56:58Z</time></trkpt><trkpt lat="36.81569913343213" lon="-108.12365547036087"><ele>1782.1999999999998</ele><time>2026-04-16T22:56:59Z</time></trkpt><trkpt lat="36.81560883338216" lon="-108.12369578915748"><ele>1782.3999999999999</ele><time>2026-04-16T22:57:00Z</time></trkpt><trkpt lat="36.8155068472257" lon="-108.1237914557874"><ele>1782.6000000000001</ele><time>2026-04-16T22:57:01Z</time></trkpt><trkpt lat="36.815431868372016" lon="-108.12383821167185"><ele>1782.8000000000002</ele><time>2026-04-16T22:57:02Z</time></trkpt><trkpt lat="36.81535003986246" lon="-108.12391001032746"><ele>1783.0</ele><time>2026-04-16T22:57:03Z</time></trkpt><trkpt lat="36.815280670397854" lon="-108.12399089503478"><ele>1783.0</ele><time>2026-04-16T22:57:04Z</time></trkpt><trkpt lat="36.81520560617063" lon="-108.12405975693692"><ele>1783.0000000000002</ele><time>2026-04-16T22:57:05Z</time></trkpt><trkpt lat="36.815111963648945" lon="-108.12412431066798"><ele>1783.0000000000002</ele><time>2026-04-16T22:57:06Z</time></trkpt><trkpt lat="36.81501251204224" lon="-108.1241784776138"><ele>1783.0</ele><time>2026-04-16T22:57:07Z</time></trkpt><trkpt lat="36.81491928746187" lon="-108.12425542745281"><ele>1783.0</ele><time>2026-04-16T22:57:08Z</time></trkpt><trkpt lat="36.81482218362332" lon="-108.12433688408461"><ele>1784.4</ele><time>2026-04-16T22:57:09Z</time></trkpt><trkpt lat="36.814716614746956" lon="-108.12440230935748"><ele>1785.8000000000002</ele><time>2026-04-16T22:57:10Z</time></trkpt><trkpt lat="36.8146172426603" lon="-108.12446735671134"><ele>1787.2</ele><time>2026-04-16T22:57:11Z</time></trkpt><trkpt lat="36.81453004844084" lon="-108.12453180698176"><ele>1788.6</ele><time>2026-04-16T22:57:12Z</time></trkpt><trkpt lat="36.814451607259656" lon="-108.12459580300525"><ele>1790.0</ele><time>2026-04-16T22:57:13Z</time></trkpt><trkpt lat="36.81435548730668" lon="-108.12466399212603"><ele>1790.0</ele><time>2026-04-16T22:57:14Z</time></trkpt><trkpt lat="36.81425765532402" lon="-108.12473150088987"><ele>1790.0</ele><time>2026-04-16T22:57:15Z</time></trkpt><trkpt lat="36.81415743760034" lon="-108.12479361916202"><ele>1790.0</ele><time>2026-04-16T22:57:16Z</time></trkpt><trkpt lat="36.814084135414234" lon="-108.12484750278176"><ele>1790.0</ele><time>2026-04-16T22:57:17Z</time></trkpt><trkpt lat="36.81401288000335" lon="-108.12490271905034"><ele>1790.0</ele><time>2026-04-16T22:57:18Z</time></trkpt><trkpt lat="36.813948410211495" lon="-108.12495587115518"><ele>1790.6</ele><time>2026-04-16T22:57:19Z</time></trkpt><trkpt lat="36.813887695071436" lon="-108.12499880652291"><ele>1791.2</ele><time>2026-04-16T22:57:20Z</time></trkpt><trkpt lat="36.81380573082831" lon="-108.12504733076736"><ele>1791.8000000000002</ele><time>2026-04-16T22:57:21Z</time></trkpt><trkpt lat="36.813722172840386" lon="-108.12511116841162"><ele>1792.4</ele><time>2026-04-16T22:57:22Z</time></trkpt><trkpt lat="36.813628869233156" lon="-108.1251768268385"><ele>1793.0</ele><time>2026-04-16T22:57:23Z</time></trkpt><trkpt lat="36.81353583970759" lon="-108.1252300848085"><ele>1793.2</ele><time>2026-04-16T22:57:24Z</time></trkpt><trkpt lat="36.81345488332236" lon="-108.12528130077266"><ele>1793.4</ele><time>2026-04-16T22:57:25Z</time></trkpt><trkpt lat="36.81338103866497" lon="-108.12533937208606"><ele>1793.6000000000001</ele><time>2026-04-16T22:57:26Z</time></trkpt><trkpt lat="36.8132898181213" lon="-108.1254181915526"><ele>1793.8000000000002</ele><time>2026-04-16T22:57:27Z</time></trkpt><trkpt lat="36.81319993565504" lon="-108.12549375795166"><ele>1794.0</ele><time>2026-04-16T22:57:28Z</time></trkpt><trkpt lat="36.81311626343669" lon="-108.12556694186709"><ele>1794.0</ele><time>2026-04-16T22:57:29Z</time></trkpt><trkpt lat="36.81304671385191" lon="-108.12561685438412"><ele>1794.0</ele><time>2026-04-16T22:57:30Z</time></trkpt><trkpt lat="36.81297209627834" lon="-108.12565913380084"><ele>1794.0</ele><time>2026-04-16T22:57:31Z</time></trkpt><trkpt lat="36.81290476806738" lon="-108.12569847656603"><ele>1794.0</ele><time>2026-04-16T22:57:32Z</time></trkpt><trkpt lat="36.81282131006788" lon="-108.12574619223187"><ele>1794.0</ele><time>2026-04-16T22:57:33Z</time></trkpt><trkpt lat="36.81274365917527" lon="-108.12581495041876"><ele>1794.0</ele><time>2026-04-16T22:57:34Z</time></trkpt><trkpt lat="36.812657782871405" lon="-108.12588142751038"><ele>1794.4</ele><time>2026-04-16T22:57:35Z</time></trkpt><trkpt lat="36.81256787913833" lon="-108.12594030458767"><ele>1794.8000000000002</ele><time>2026-04-16T22:57:36Z</time></trkpt><trkpt lat="36.81248428380666" lon="-108.12602256483034"><ele>1795.1999999999998</ele><time>2026-04-16T22:57:37Z</time></trkpt><trkpt lat="36.81240069158212" lon="-108.12611308317322"><ele>1795.6</ele><time>2026-04-16T22:57:38Z</time></trkpt><trkpt lat="36.812311597666074" lon="-108.12619811957387"><ele>1796.0</ele><time>2026-04-16T22:57:39Z</time></trkpt><trkpt lat="36.81221355115711" lon="-108.12626366422482"><ele>1796.0</ele><time>2026-04-16T22:57:40Z</time></trkpt><trkpt lat="36.81210408596159" lon="-108.12631827687053"><ele>1796.0</ele><time>2026-04-16T22:57:41Z</time></trkpt><trkpt lat="36.81197716155897" lon="-108.12635885390935"><ele>1796.0</ele><time>2026-04-16T22:57:42Z</time></trkpt><trkpt lat="36.811855746542676" lon="-108.12639740033568"><ele>1796.0</ele><time>2026-04-16T22:57:43Z</time></trkpt><trkpt lat="36.8117373314908" lon="-108.12645372029273"><ele>1796.5</ele><time>2026-04-16T22:57:44Z</time></trkpt><trkpt lat="36.81158908407096" lon="-108.126519585397"><ele>1797.0</ele><time>2026-04-16T22:57:45Z</time></trkpt><trkpt lat="36.81145309200482" lon="-108.12655191241672"><ele>1797.5</ele><time>2026-04-16T22:57:46Z</time></trkpt><trkpt lat="36.81132089716419" lon="-108.12657751347902"><ele>1798.0</ele><time>2026-04-16T22:57:47Z</time></trkpt><trkpt lat="36.81121109181101" lon="-108.12660358057182"><ele>1798.5000000000002</ele><time>2026-04-16T22:57:48Z</time></trkpt><trkpt lat="36.81114766571132" lon="-108.1266384230741"><ele>1799.0</ele><time>2026-04-16T22:57:49Z</time></trkpt><trkpt lat="36.81111591538778" lon="-108.12673767828167"><ele>1799.5</ele><time>2026-04-16T22:57:50Z</time></trkpt><trkpt lat="36.81104333491649" lon="-108.1268404271563"><ele>1800.0</ele><time>2026-04-16T22:57:51Z</time></trkpt><trkpt lat="36.81097663443495" lon="-108.12687329934553"><ele>1800.5000000000002</ele><time>2026-04-16T22:57:52Z</time></trkpt><trkpt lat="36.81089388089799" lon="-108.126940301653"><ele>1801.0</ele><time>2026-04-16T22:57:53Z</time></trkpt><trkpt lat="36.810817548721914" lon="-108.12694644244593"><ele>1801.0</ele><time>2026-04-16T22:57:54Z</time></trkpt><trkpt lat="36.81078101698347" lon="-108.12686589901405"><ele>1801.0</ele><time>2026-04-16T22:57:55Z</time></trkpt><trkpt lat="36.81071823212257" lon="-108.12676568284748"><ele>1801.0</ele><time>2026-04-16T22:57:56Z</time></trkpt><trkpt lat="36.81061398553833" lon="-108.12669076920514"><ele>1801.0</ele><time>2026-04-16T22:57:57Z</time></trkpt><trkpt lat="36.810487826432386" lon="-108.12663481176845"><ele>1801.0</ele><time>2026-04-16T22:57:58Z</time></trkpt><trkpt lat="36.81037758472355" lon="-108.12656523488627"><ele>1801.0</ele><time>2026-04-16T22:57:59Z</time></trkpt><trkpt lat="36.81025496618859" lon="-108.12650026833396"><ele>1801.0</ele><time>2026-04-16T22:58:00Z</time></trkpt><trkpt lat="36.810145677553976" lon="-108.12643416443092"><ele>1801.0</ele><time>2026-04-16T22:58:01Z</time></trkpt><trkpt lat="36.81006221474058" lon="-108.12637698719779"><ele>1801.0</ele><time>2026-04-16T22:58:02Z</time></trkpt><trkpt lat="36.80993212987679" lon="-108.1263505474273"><ele>1799.75</ele><time>2026-04-16T22:58:04Z</time></trkpt><trkpt lat="36.80982222433574" lon="-108.12632862403126"><ele>1798.5</ele><time>2026-04-16T22:58:05Z</time></trkpt><trkpt lat="36.8096518738954" lon="-108.12628429710189"><ele>1797.25</ele><time>2026-04-16T22:58:06Z</time></trkpt><trkpt lat="36.809529042545385" lon="-108.12628224778508"><ele>1796.0</ele><time>2026-04-16T22:58:07Z</time></trkpt><trkpt lat="36.80941282521291" lon="-108.1263266006292"><ele>1794.25</ele><time>2026-04-16T22:58:08Z</time></trkpt><trkpt lat="36.80928392181939" lon="-108.1264045990953"><ele>1792.5</ele><time>2026-04-16T22:58:09Z</time></trkpt><trkpt lat="36.80915949242973" lon="-108.12649300992172"><ele>1790.75</ele><time>2026-04-16T22:58:10Z</time></trkpt><trkpt lat="36.80903784333848" lon="-108.1265785729458"><ele>1789.0</ele><time>2026-04-16T22:58:11Z</time></trkpt><trkpt lat="36.80891608773414" lon="-108.12666072068441"><ele>1789.0</ele><time>2026-04-16T22:58:12Z</time></trkpt><trkpt lat="36.808795215605365" lon="-108.12674491079048"><ele>1789.0</ele><time>2026-04-16T22:58:13Z</time></trkpt><trkpt lat="36.808686470202666" lon="-108.12682490308809"><ele>1789.0</ele><time>2026-04-16T22:58:14Z</time></trkpt><trkpt lat="36.80857494183375" lon="-108.12691044805084"><ele>1789.0</ele><time>2026-04-16T22:58:15Z</time></trkpt><trkpt lat="36.80846873481489" lon="-108.1270089079506"><ele>1788.25</ele><time>2026-04-16T22:58:16Z</time></trkpt><trkpt lat="36.808374936581835" lon="-108.12711549579856"><ele>1787.5</ele><time>2026-04-16T22:58:17Z</time></trkpt><trkpt lat="36.808273235965174" lon="-108.12722689617999"><ele>1786.75</ele><time>2026-04-16T22:58:18Z</time></trkpt><trkpt lat="36.80816429033906" lon="-108.12732536020475"><ele>1786.0</ele><time>2026-04-16T22:58:19Z</time></trkpt><trkpt lat="36.808063238718674" lon="-108.12742242447464"><ele>1787.1999999999998</ele><time>2026-04-16T22:58:20Z</time></trkpt><trkpt lat="36.807986514491624" lon="-108.12751925136865"><ele>1788.3999999999999</ele><time>2026-04-16T22:58:21Z</time></trkpt><trkpt lat="36.80793202026003" lon="-108.1276188377593"><ele>1789.6</ele><time>2026-04-16T22:58:22Z</time></trkpt><trkpt lat="36.807855153699855" lon="-108.12771689623617"><ele>1790.8</ele><time>2026-04-16T22:58:23Z</time></trkpt><trkpt lat="36.80779813610399" lon="-108.12777728839156"><ele>1792.0</ele><time>2026-04-16T22:58:24Z</time></trkpt><trkpt lat="36.807779345131735" lon="-108.12785721273056"><ele>1792.0</ele><time>2026-04-16T22:58:25Z</time></trkpt><trkpt lat="36.80778922500342" lon="-108.12796059309015"><ele>1791.9999999999998</ele><time>2026-04-16T22:58:26Z</time></trkpt><trkpt lat="36.80780327610114" lon="-108.12806687139397"><ele>1791.9999999999998</ele><time>2026-04-16T22:58:27Z</time></trkpt><trkpt lat="36.80781026480614" lon="-108.12815489593534"><ele>1792.0</ele><time>2026-04-16T22:58:28Z</time></trkpt><trkpt lat="36.8077336301819" lon="-108.12826795182202"><ele>1792.0</ele><time>2026-04-16T22:58:30Z</time></trkpt><trkpt lat="36.80762851455099" lon="-108.12822059142651"><ele>1791.75</ele><time>2026-04-16T22:58:31Z</time></trkpt><trkpt lat="36.807511329163184" lon="-108.1281734876704"><ele>1791.5</ele><time>2026-04-16T22:58:32Z</time></trkpt><trkpt lat="36.807397877274084" lon="-108.12816744012257"><ele>1791.25</ele><time>2026-04-16T22:58:33Z</time></trkpt><trkpt lat="36.8072816655549" lon="-108.12820691962261"><ele>1791.0</ele><time>2026-04-16T22:58:34Z</time></trkpt><trkpt lat="36.807163733715335" lon="-108.12824847047648"><ele>1791.0</ele><time>2026-04-16T22:58:35Z</time></trkpt><trkpt lat="36.80704852599411" lon="-108.1282372377991"><ele>1791.0</ele><time>2026-04-16T22:58:36Z</time></trkpt><trkpt lat="36.806904080707845" lon="-108.12820134158866"><ele>1791.0</ele><time>2026-04-16T22:58:37Z</time></trkpt><trkpt lat="36.806769034718954" lon="-108.12819198199284"><ele>1791.0</ele><time>2026-04-16T22:58:38Z</time></trkpt><trkpt lat="36.80664628651776" lon="-108.12820630344662"><ele>1790.25</ele><time>2026-04-16T22:58:39Z</time></trkpt><trkpt lat="36.80652160861064" lon="-108.12823531076542"><ele>1789.5</ele><time>2026-04-16T22:58:40Z</time></trkpt><trkpt lat="36.80642101818976" lon="-108.12828818337718"><ele>1788.75</ele><time>2026-04-16T22:58:41Z</time></trkpt><trkpt lat="36.806343110736805" lon="-108.12841741294582"><ele>1788.0</ele><time>2026-04-16T22:58:42Z</time></trkpt><trkpt lat="36.80624109170593" lon="-108.12856153100373"><ele>1788.0</ele><time>2026-04-16T22:58:43Z</time></trkpt><trkpt lat="36.80610770831985" lon="-108.12861276293921"><ele>1788.0</ele><time>2026-04-16T22:58:44Z</time></trkpt><trkpt lat="36.805968067229315" lon="-108.12863332587861"><ele>1788.0</ele><time>2026-04-16T22:58:45Z</time></trkpt><trkpt lat="36.80584570433333" lon="-108.12870482816152"><ele>1788.0</ele><time>2026-04-16T22:58:46Z</time></trkpt><trkpt lat="36.805714058814516" lon="-108.12882539575871"><ele>1787.0</ele><time>2026-04-16T22:58:47Z</time></trkpt><trkpt lat="36.80557321710735" lon="-108.12888824591712"><ele>1786.0</ele><time>2026-04-16T22:58:48Z</time></trkpt><trkpt lat="36.80543821992556" lon="-108.12892693881687"><ele>1785.0</ele><time>2026-04-16T22:58:49Z</time></trkpt><trkpt lat="36.805321766947856" lon="-108.12897323912854"><ele>1784.0</ele><time>2026-04-16T22:58:50Z</time></trkpt><trkpt lat="36.805220471343425" lon="-108.12904040798318"><ele>1782.6</ele><time>2026-04-16T22:58:51Z</time></trkpt><trkpt lat="36.80514847127258" lon="-108.12912032145789"><ele>1781.2</ele><time>2026-04-16T22:58:52Z</time></trkpt><trkpt lat="36.80508417142342" lon="-108.1292146466079"><ele>1779.7999999999997</ele><time>2026-04-16T22:58:53Z</time></trkpt><trkpt lat="36.80503086129467" lon="-108.12926501933677"><ele>1778.3999999999999</ele><time>2026-04-16T22:58:54Z</time></trkpt><trkpt lat="36.80499395621342" lon="-108.12945491641315"><ele>1777.0</ele><time>2026-04-16T22:58:56Z</time></trkpt><trkpt lat="36.80497031597098" lon="-108.12958325292888"><ele>1777.0</ele><time>2026-04-16T22:58:57Z</time></trkpt><trkpt lat="36.80492059205945" lon="-108.12969025652743"><ele>1776.9999999999998</ele><time>2026-04-16T22:58:58Z</time></trkpt><trkpt lat="36.804898002853385" lon="-108.12978424312823"><ele>1776.9999999999998</ele><time>2026-04-16T22:58:59Z</time></trkpt><trkpt lat="36.804941339303774" lon="-108.12990833703519"><ele>1777.0</ele><time>2026-04-16T22:59:00Z</time></trkpt><trkpt lat="36.804953021231576" lon="-108.13006748048022"><ele>1777.0</ele><time>2026-04-16T22:59:01Z</time></trkpt><trkpt lat="36.804956420175685" lon="-108.13023713859037"><ele>1777.0</ele><time>2026-04-16T22:59:02Z</time></trkpt><trkpt lat="36.80495421090169" lon="-108.13042035542752"><ele>1777.0</ele><time>2026-04-16T22:59:03Z</time></trkpt><trkpt lat="36.80495137517913" lon="-108.13060331170252"><ele>1777.0</ele><time>2026-04-16T22:59:04Z</time></trkpt><trkpt lat="36.80494913729491" lon="-108.13079819419006"><ele>1777.0</ele><time>2026-04-16T22:59:05Z</time></trkpt><trkpt lat="36.80495450764798" lon="-108.13099822626512"><ele>1777.0</ele><time>2026-04-16T22:59:06Z</time></trkpt><trkpt lat="36.80495953567556" lon="-108.13119524824769"><ele>1777.0</ele><time>2026-04-16T22:59:07Z</time></trkpt><trkpt lat="36.804965220481655" lon="-108.13138578152699"><ele>1777.0</ele><time>2026-04-16T22:59:08Z</time></trkpt><trkpt lat="36.80497169164753" lon="-108.13156221472454"><ele>1777.25</ele><time>2026-04-16T22:59:09Z</time></trkpt><trkpt lat="36.8049783523538" lon="-108.1317458420758"><ele>1777.5</ele><time>2026-04-16T22:59:10Z</time></trkpt><trkpt lat="36.80498294071939" lon="-108.13192945390283"><ele>1777.75</ele><time>2026-04-16T22:59:11Z</time></trkpt><trkpt lat="36.80498680012897" lon="-108.13211067946285"><ele>1778.0</ele><time>2026-04-16T22:59:12Z</time></trkpt><trkpt lat="36.804990040454165" lon="-108.13229062412731"><ele>1778.8000000000002</ele><time>2026-04-16T22:59:13Z</time></trkpt><trkpt lat="36.80498981414565" lon="-108.13243317620653"><ele>1779.6000000000001</ele><time>2026-04-16T22:59:14Z</time></trkpt><trkpt lat="36.80498357105178" lon="-108.13254566140442"><ele>1780.3999999999999</ele><time>2026-04-16T22:59:15Z</time></trkpt><trkpt lat="36.8049598633849" lon="-108.13263559077676"><ele>1781.1999999999998</ele><time>2026-04-16T22:59:16Z</time></trkpt><trkpt lat="36.80490369532884" lon="-108.13270353938333"><ele>1782.0</ele><time>2026-04-16T22:59:17Z</time></trkpt><trkpt lat="36.80481566627771" lon="-108.1327442493584"><ele>1782.0</ele><time>2026-04-16T22:59:18Z</time></trkpt><trkpt lat="36.804702485580314" lon="-108.13276697961616"><ele>1782.0</ele><time>2026-04-16T22:59:19Z</time></trkpt><trkpt lat="36.80457425070596" lon="-108.1327896762997"><ele>1782.0</ele><time>2026-04-16T22:59:20Z</time></trkpt><trkpt lat="36.80443522198495" lon="-108.13280758680065"><ele>1782.0</ele><time>2026-04-16T22:59:21Z</time></trkpt><trkpt lat="36.80428274392347" lon="-108.13280132931324"><ele>1781.6666666666665</ele><time>2026-04-16T22:59:22Z</time></trkpt><trkpt lat="36.80411969136728" lon="-108.13279839647878"><ele>1781.3333333333333</ele><time>2026-04-16T22:59:23Z</time></trkpt><trkpt lat="36.80395675954344" lon="-108.13279928367557"><ele>1781.0</ele><time>2026-04-16T22:59:24Z</time></trkpt><trkpt lat="36.80379947330339" lon="-108.13280022473285"><ele>1781.0</ele><time>2026-04-16T22:59:25Z</time></trkpt><trkpt lat="36.803658032993724" lon="-108.13280362085582"><ele>1781.0</ele><time>2026-04-16T22:59:26Z</time></trkpt><trkpt lat="36.803529440725086" lon="-108.1328066443044"><ele>1781.0</ele><time>2026-04-16T22:59:27Z</time></trkpt><trkpt lat="36.80339179127677" lon="-108.13280585570185"><ele>1781.0</ele><time>2026-04-16T22:59:28Z</time></trkpt><trkpt lat="36.80324910568589" lon="-108.13281320584188"><ele>1779.75</ele><time>2026-04-16T22:59:29Z</time></trkpt><trkpt lat="36.80310543253813" lon="-108.13281815588289"><ele>1778.5</ele><time>2026-04-16T22:59:30Z</time></trkpt><trkpt lat="36.802960624326616" lon="-108.13282375077407"><ele>1777.25</ele><time>2026-04-16T22:59:31Z</time></trkpt><trkpt lat="36.802816038369706" lon="-108.13282532488924"><ele>1776.0</ele><time>2026-04-16T22:59:32Z</time></trkpt><trkpt lat="36.802668813662684" lon="-108.13282881927093"><ele>1775.5</ele><time>2026-04-16T22:59:33Z</time></trkpt><trkpt lat="36.80252231608642" lon="-108.13283474237583"><ele>1775.0</ele><time>2026-04-16T22:59:34Z</time></trkpt><trkpt lat="36.80238930416328" lon="-108.13284712395203"><ele>1774.5</ele><time>2026-04-16T22:59:35Z</time></trkpt><trkpt lat="36.802273913006" lon="-108.1328741083883"><ele>1774.0</ele><time>2026-04-16T22:59:36Z</time></trkpt><trkpt lat="36.802174767565035" lon="-108.13292765667956"><ele>1774.0</ele><time>2026-04-16T22:59:37Z</time></trkpt><trkpt lat="36.80209049599851" lon="-108.13299789732996"><ele>1774.0</ele><time>2026-04-16T22:59:38Z</time></trkpt><trkpt lat="36.802017360233975" lon="-108.13306297869096"><ele>1774.0</ele><time>2026-04-16T22:59:39Z</time></trkpt><trkpt lat="36.80195654082604" lon="-108.13311768469273"><ele>1774.0</ele><time>2026-04-16T22:59:40Z</time></trkpt><trkpt lat="36.80187043768117" lon="-108.1331916237711"><ele>1774.0</ele><time>2026-04-16T22:59:42Z</time></trkpt><trkpt lat="36.80174628795972" lon="-108.13314193147913"><ele>1773.0</ele><time>2026-04-16T22:59:44Z</time></trkpt><trkpt lat="36.80167235127139" lon="-108.13304018739078"><ele>1772.0</ele><time>2026-04-16T22:59:45Z</time></trkpt><trkpt lat="36.80159993957077" lon="-108.13291827909718"><ele>1771.0</ele><time>2026-04-16T22:59:46Z</time></trkpt><trkpt lat="36.801530299588" lon="-108.13278251089224"><ele>1770.0</ele><time>2026-04-16T22:59:47Z</time></trkpt><trkpt lat="36.8014698351438" lon="-108.13265218798685"><ele>1770.0</ele><time>2026-04-16T22:59:48Z</time></trkpt><trkpt lat="36.80140791796394" lon="-108.13251488444928"><ele>1770.0</ele><time>2026-04-16T22:59:49Z</time></trkpt><trkpt lat="36.80135215335116" lon="-108.13236414951363"><ele>1770.0</ele><time>2026-04-16T22:59:50Z</time></trkpt><trkpt lat="36.80130479031131" lon="-108.13220236761306"><ele>1770.0</ele><time>2026-04-16T22:59:51Z</time></trkpt><trkpt lat="36.80127831876306" lon="-108.13203123074099"><ele>1769.25</ele><time>2026-04-16T22:59:52Z</time></trkpt><trkpt lat="36.80127089858167" lon="-108.13184730581038"><ele>1768.5</ele><time>2026-04-16T22:59:53Z</time></trkpt><trkpt lat="36.80126899840914" lon="-108.13166748152656"><ele>1767.75</ele><time>2026-04-16T22:59:54Z</time></trkpt><trkpt lat="36.80126423650741" lon="-108.13148194667852"><ele>1767.0</ele><time>2026-04-16T22:59:55Z</time></trkpt><trkpt lat="36.801259403592674" lon="-108.13130522505722"><ele>1766.25</ele><time>2026-04-16T22:59:56Z</time></trkpt><trkpt lat="36.80125222369055" lon="-108.13111376155284"><ele>1765.5</ele><time>2026-04-16T22:59:57Z</time></trkpt><trkpt lat="36.80123220751653" lon="-108.13093781113535"><ele>1764.75</ele><time>2026-04-16T22:59:58Z</time></trkpt><trkpt lat="36.80118984098642" lon="-108.13076518972395"><ele>1764.0</ele><time>2026-04-16T22:59:59Z</time></trkpt><trkpt lat="36.80112310654663" lon="-108.13057598419799"><ele>1763.3333333333335</ele><time>2026-04-16T23:00:00Z</time></trkpt><trkpt lat="36.801029102423655" lon="-108.13039376566648"><ele>1762.6666666666667</ele><time>2026-04-16T23:00:01Z</time></trkpt><trkpt lat="36.80091280752123" lon="-108.13020861200576"><ele>1762.0</ele><time>2026-04-16T23:00:02Z</time></trkpt><trkpt lat="36.80078610644406" lon="-108.13004842135508"><ele>1760.6666666666667</ele><time>2026-04-16T23:00:03Z</time></trkpt><trkpt lat="36.80064109313897" lon="-108.12991886227394"><ele>1759.3333333333335</ele><time>2026-04-16T23:00:04Z</time></trkpt><trkpt lat="36.80049327361592" lon="-108.1298201358827"><ele>1758.0</ele><time>2026-04-16T23:00:05Z</time></trkpt><trkpt lat="36.80031396820976" lon="-108.12974625669251"><ele>1757.0</ele><time>2026-04-16T23:00:06Z</time></trkpt><trkpt lat="36.80010980608421" lon="-108.12968888334251"><ele>1756.0</ele><time>2026-04-16T23:00:07Z</time></trkpt><trkpt lat="36.79988656510784" lon="-108.12963872115851"><ele>1755.0</ele><time>2026-04-16T23:00:08Z</time></trkpt><trkpt lat="36.79965410793567" lon="-108.12957811802272"><ele>1755.0</ele><time>2026-04-16T23:00:09Z</time></trkpt><trkpt lat="36.79940358384093" lon="-108.12949191984072"><ele>1755.0</ele><time>2026-04-16T23:00:10Z</time></trkpt><trkpt lat="36.799173423913714" lon="-108.12937728039952"><ele>1754.3333333333335</ele><time>2026-04-16T23:00:11Z</time></trkpt><trkpt lat="36.79898619308843" lon="-108.12925434486048"><ele>1753.6666666666667</ele><time>2026-04-16T23:00:12Z</time></trkpt><trkpt lat="36.79883084709744" lon="-108.12910025581033"><ele>1753.0</ele><time>2026-04-16T23:00:13Z</time></trkpt><trkpt lat="36.798694141322045" lon="-108.12893721150427"><ele>1753.0</ele><time>2026-04-16T23:00:14Z</time></trkpt><trkpt lat="36.7985756910124" lon="-108.12878467020575"><ele>1753.0</ele><time>2026-04-16T23:00:15Z</time></trkpt><trkpt lat="36.798475130132914" lon="-108.1286308681094"><ele>1753.0</ele><time>2026-04-16T23:00:16Z</time></trkpt><trkpt lat="36.79838748599902" lon="-108.12844489122533"><ele>1754.3333333333335</ele><time>2026-04-16T23:00:17Z</time></trkpt><trkpt lat="36.798304577752724" lon="-108.1282209952567"><ele>1755.6666666666665</ele><time>2026-04-16T23:00:18Z</time></trkpt><trkpt lat="36.7982502222911" lon="-108.12800671949417"><ele>1757.0</ele><time>2026-04-16T23:00:19Z</time></trkpt><trkpt lat="36.798217898288456" lon="-108.12780225722958"><ele>1757.0</ele><time>2026-04-16T23:00:20Z</time></trkpt><trkpt lat="36.798193397640965" lon="-108.12759605721826"><ele>1757.0</ele><time>2026-04-16T23:00:21Z</time></trkpt><trkpt lat="36.79818283830881" lon="-108.1274027236569"><ele>1757.0</ele><time>2026-04-16T23:00:22Z</time></trkpt><trkpt lat="36.79818704654057" lon="-108.1272216093567"><ele>1754.75</ele><time>2026-04-16T23:00:23Z</time></trkpt><trkpt lat="36.79819647281795" lon="-108.12705283392904"><ele>1752.5</ele><time>2026-04-16T23:00:24Z</time></trkpt><trkpt lat="36.79820272225952" lon="-108.12690579848197"><ele>1750.25</ele><time>2026-04-16T23:00:25Z</time></trkpt><trkpt lat="36.798207818977176" lon="-108.12677540800834"><ele>1748.0</ele><time>2026-04-16T23:00:26Z</time></trkpt><trkpt lat="36.798223424506034" lon="-108.1266581299146"><ele>1746.8000000000002</ele><time>2026-04-16T23:00:27Z</time></trkpt><trkpt lat="36.79826214882775" lon="-108.1265495937274"><ele>1745.6000000000001</ele><time>2026-04-16T23:00:28Z</time></trkpt><trkpt lat="36.7983244109502" lon="-108.12646797329187"><ele>1744.3999999999999</ele><time>2026-04-16T23:00:29Z</time></trkpt><trkpt lat="36.7984142144938" lon="-108.12642387388172"><ele>1743.1999999999998</ele><time>2026-04-16T23:00:30Z</time></trkpt><trkpt lat="36.798532813449825" lon="-108.1264056847234"><ele>1742.0</ele><time>2026-04-16T23:00:31Z</time></trkpt><trkpt lat="36.798664317850985" lon="-108.12641801629243"><ele>1742.0</ele><time>2026-04-16T23:00:32Z</time></trkpt><trkpt lat="36.798802790647954" lon="-108.12644378618609"><ele>1742.0</ele><time>2026-04-16T23:00:33Z</time></trkpt><trkpt lat="36.798948021073755" lon="-108.12645334432848"><ele>1742.0</ele><time>2026-04-16T23:00:34Z</time></trkpt><trkpt lat="36.79909869617259" lon="-108.12645383293892"><ele>1742.0</ele><time>2026-04-16T23:00:35Z</time></trkpt><trkpt lat="36.799252578944134" lon="-108.12645828813692"><ele>1743.0</ele><time>2026-04-16T23:00:36Z</time></trkpt><trkpt lat="36.79937984222542" lon="-108.12646578101362"><ele>1743.9999999999998</ele><time>2026-04-16T23:00:37Z</time></trkpt><trkpt lat="36.799487675155376" lon="-108.1264729012981"><ele>1744.9999999999998</ele><time>2026-04-16T23:00:38Z</time></trkpt><trkpt lat="36.79958397551473" lon="-108.12647615902189"><ele>1746.0</ele><time>2026-04-16T23:00:39Z</time></trkpt><trkpt lat="36.799668163400305" lon="-108.12646383713387"><ele>1747.0</ele><time>2026-04-16T23:00:40Z</time></trkpt><trkpt lat="36.79973318446353" lon="-108.12640867211579"><ele>1747.0000000000002</ele><time>2026-04-16T23:00:41Z</time></trkpt><trkpt lat="36.79976571303247" lon="-108.12630629153232"><ele>1747.0</ele><time>2026-04-16T23:00:42Z</time></trkpt><trkpt lat="36.799780427777" lon="-108.12617036384898"><ele>1747.0</ele><time>2026-04-16T23:00:43Z</time></trkpt><trkpt lat="36.79978078923125" lon="-108.12605102247201"><ele>1747.0</ele><time>2026-04-16T23:00:44Z</time></trkpt><trkpt lat="36.799769603689526" lon="-108.12595777460835"><ele>1747.0000000000002</ele><time>2026-04-16T23:00:45Z</time></trkpt><trkpt lat="36.799742467763046" lon="-108.12587316138949"><ele>1747.0</ele><time>2026-04-16T23:00:46Z</time></trkpt><trkpt lat="36.79972740891932" lon="-108.12573119735752"><ele>1747.0</ele><time>2026-04-16T23:00:48Z</time></trkpt></trkseg></trk></gpx>